[[{"header":{"parameterUnit":"m.s-1","parameterCategory":1,"la1":31.0,"la2":29.5877,"lo1":-88.7671,"lo2":-86.6584,"dx":0.0162,"dy":0.0185,"nx":115,"ny":88,"refTime":"2022-11-25T06:00:00:Z","depth":0,"parameterNumber":2,"parameterNumberName":"U-component_of_WINDS"},"data":[0.0,0.0,0.0,0.0,0.0,0.0,0.0,0.0,0.0,0.0,0.0,0.0,0.0,0.0,0.0,0.0,0.0,0.0,0.0,0.0,0.0,0.0,0.0,0.0,0.0,0.0,0.0,0.0,0.0,0.0,0.0,0.0,0.0,0.0,0.0,0.0,0.0,0.0,0.0,0.0,0.0,0.0,0.0,0.0,0.0,0.0,0.0,0.0,0.0,0.0,0.0,0.0,0.0,0.0,0.0,0.0,0.0,0.0,0.0,0.0,0.0,0.0,0.0,0.0,0.0,0.0,0.0,0.0,0.0,0.0,0.0,0.0,0.0,0.0,0.0,0.0,0.0,0.0,0.0,0.0,0.0,0.0,0.0,0.0,0.0,0.0,0.0,0.0,0.0,0.0,0.0,0.0,0.0,0.0,0.0,0.0,0.0,0.0,0.0,0.0,0.0,0.0,0.0,0.0,0.0,0.0,0.0,0.0,0.0,0.0,0.0,0.0,0.0,0.0,0.0,0.0,0.0,0.0,0.0,0.0,0.0,0.0,0.0,0.0,0.0,0.0,0.0,0.0,0.0,0.0,0.0,0.0,0.0,0.0,0.0,0.0,0.0,0.0,0.0,0.0,0.0,0.0,0.0,0.0,0.0,0.0,0.0,0.0,0.0,0.0,0.0,0.0,0.0,0.0,0.0,0.0,0.0,0.0,0.0,0.0,0.0,0.0,0.0,0.0,0.0,0.0,0.0,0.0,0.0,0.0,0.0,0.0,0.0,0.0,0.0,0.0,0.0,0.0,0.0,0.0,0.0,0.0,0.0,0.0,0.0,0.0,0.0,0.0,0.0,0.0,0.0,0.0,0.0,0.0,0.0,0.0,0.0,0.0,0.0,0.0,0.0,0.0,0.0,0.0,0.0,0.0,0.0,0.0,0.0,0.0,0.0,0.0,0.0,0.0,0.0,0.0,0.0,0.0,0.0,0.0,0.0,0.0,0.0,0.0,0.0,0.0,0.0,0.0,0.0,0.0,0.0,0.0,0.0,0.0,0.0,0.0,0.0,0.0,0.0,0.0,0.0,0.0,0.0,0.0,0.0,0.0,0.0,0.0,0.0,0.0,0.0,0.0,0.0,0.0,0.0,0.0,0.0,0.0,0.0,0.0,0.0,0.0,0.0,0.0,0.0,0.0,0.0,0.0,0.0,0.0,0.0,0.0,0.0,0.0,0.0,0.0,0.0,0.0,0.0,0.0,0.0,0.0,0.0,0.0,0.0,0.0,0.0,0.0,0.0,0.0,0.0,0.0,0.0,0.0,0.0,0.0,0.0,0.0,0.0,0.0,0.0,0.0,0.0,0.0,0.0,0.0,0.0,0.0,0.0,0.0,0.0,0.0,0.0,0.0,0.0,0.0,0.0,0.0,0.0,0.0,0.0,0.0,0.0,0.0,0.0,0.0,0.0,0.0,0.0,0.0,0.0,0.0,0.0,0.0,0.0,0.0,0.0,0.0,0.0,0.0,0.0,0.0,0.0,0.0,0.0,0.0,0.0,0.0,0.0,0.0,0.0,0.0,0.0,0.0,0.0,0.0,0.0,0.0,0.0,0.0,0.0,0.0,0.0,0.0,0.0,0.0,0.0,0.0,0.0,0.0,0.0,0.0,0.0,0.0,0.0,0.0,0.0,0.0,0.0,0.0,0.0,0.0,0.0,0.0,0.0,0.0,0.0,0.0,0.0,0.0,0.0,0.0,0.0,0.0,0.0,0.0,0.0,0.0,0.0,0.0,0.0,0.0,0.0,0.0,0.0,0.0,0.0,0.0,0.0,0.0,0.0,0.0,0.0,0.0,0.0,0.0,0.0,0.0,0.0,0.0,0.0,0.0,0.0,0.0,0.0,0.0,0.0,0.0,0.0,0.0,0.0,0.0,0.0,0.0,0.0,0.0,0.0,0.0,0.0,0.0,0.0,0.0,0.0,0.0,0.0,0.0,0.0,0.0,0.0,0.0,0.0,0.0,0.0,0.0,0.0,0.0,0.0,0.0,0.0,0.0,0.0,0.0,0.0,0.0,0.0,0.0,0.0,0.0,0.0,0.0,0.0,0.0,0.0,0.0,0.0,0.0,0.0,0.0,0.0,0.0,0.0,0.0,0.0,0.0,0.0,0.0,0.0,0.0,0.0,0.0,0.0,0.0,0.0,0.0,0.0,0.0,0.0,0.0,0.0,0.0,0.0,0.0,0.0,0.0,0.0,0.0,0.0,0.0,0.0,0.0,0.0,0.0,0.0,0.0,0.0,0.0,0.0,0.0,0.0,0.0,0.0,0.0,0.0,0.0,0.0,0.0,0.0,0.0,0.0,0.0,0.0,0.0,0.0,0.0,0.0,0.0,0.0,0.0,0.0,0.0,0.0,0.0,0.0,0.0,0.0,0.0,0.0,0.0,0.0,0.0,0.0,0.0,0.0,0.0,0.0,0.0,0.0,0.0,0.0,0.0,0.0,0.0,0.0,0.0,0.0,0.0,0.0,0.0,0.0,0.0,0.0,0.0,0.0,0.0,0.0,0.0,0.0,0.0,0.0,0.0,0.0,0.0,0.0,0.0,0.0,0.0,0.0,0.0,0.0,0.0,0.0,0.0,0.0,0.0,0.0,0.0,0.0,0.0,0.0,0.0,0.0,0.0,0.0,0.0,0.0,0.0,0.0,0.0,0.0,0.0,0.0,0.0,0.0,0.0,0.0,0.0,0.0,0.0,0.0,0.0,0.0,0.0,0.0,0.0,0.0,0.0,0.0,0.0,0.0,0.0,0.0,0.0,0.0,0.0,0.0,0.0,0.0,0.0,0.0,0.0,0.0,0.0,0.0,0.0,0.0,0.0,0.0,0.0,0.0,0.0,0.0,0.0,0.0,0.0,0.0,0.0,0.0,0.0,0.0,0.0,0.0,0.0,0.0,0.0,0.0,0.0,0.0,0.0,0.0,0.0,0.0,0.0,0.0,0.0,0.0,0.0,0.0,0.0,0.0,0.0,0.0,0.0,0.0,0.0,0.0,0.0,0.0,0.0,0.0,0.0,0.0,0.0,0.0,0.0,0.0,0.0,0.0,0.0,0.0,0.0,0.0,0.0,0.0,0.0,0.0,0.0,0.0,0.0,0.0,0.0,0.0,0.0,0.0,0.0,0.0,0.0,0.0,0.0,0.0,0.0,0.0,0.0,0.0,0.0,0.0,0.0,0.0,0.0,0.0,0.0,0.0,0.0,0.0,0.0,0.0,0.0,0.0,0.0,0.0,0.0,0.0,0.0,0.0,0.0,0.0,0.0,0.0,0.0,0.0,0.0,0.0,0.0,0.0,0.0,0.0,0.0,0.0,0.0,0.0,0.0,0.0,0.0,0.0,0.0,0.0,0.0,0.0,0.0,0.0,0.0,0.0,0.0,0.0,0.0,0.0,0.0,0.0,0.0,0.0,0.0,0.0,0.0,0.0,0.0,0.0,0.0,0.0,0.0,0.0,0.0,0.0,0.0,0.0,0.0,0.0,0.0,0.0,0.0,0.0,0.0,0.0,0.0,0.0,0.0,0.0,0.0,0.0,0.0,0.0,0.0,0.0,0.0,0.0,0.0,0.0,0.0,0.0,0.0,0.0,0.0,0.0,0.0,0.0,0.0,0.0,0.0,0.0,0.0,0.0,0.0,0.0,0.0,0.0,0.0,0.0,0.0,0.0,0.0,0.0,0.0,0.0,0.0,0.0,0.0,0.0,0.0,0.0,0.0,0.0,0.0,0.0,0.0,0.0,0.0,0.0,0.0,0.0,0.0,0.0,0.0,0.0,0.0,0.0,0.0,0.0,0.0,0.0,0.0,0.0,0.0,0.0,0.0,0.0,0.0,0.0,0.0,0.0,0.0,0.0,0.0,0.0,0.0,0.0,0.0,0.0,0.0,0.0,0.0,0.0,0.0,0.0,0.0,0.0,0.0,0.0,0.0,0.0,0.0,0.0,0.0,0.0,0.0,0.0,0.0,0.0,0.0,0.0,0.0,0.0,0.0,0.0,0.0,0.0,0.0,0.0,0.0,0.0,0.0,0.0,0.0,0.0,0.0,0.0,0.0,0.0,0.0,0.0,0.0,0.0,0.0,0.0,0.0,0.0,0.0,0.0,0.0,0.0,0.0,0.0,0.0,0.0,0.0,0.0,0.0,0.0,0.0,0.0,0.0,0.0,0.0,0.0,0.0,0.0,0.0,0.0,0.0,0.0,0.0,0.0,0.0,0.0,0.0,-0.6787,0.0,0.0,0.0,-0.5484,0.0,0.0,0.0,0.0,0.0,0.0,0.0,0.0,0.0,0.0,0.0,0.0,0.0,0.0,0.0,0.0,0.0,0.0,0.0,0.0,0.0,0.0,0.0,0.0,0.0,0.0,0.0,0.0,0.0,0.0,0.0,0.0,0.0,0.0,0.0,0.0,0.0,0.0,0.0,0.0,0.0,0.0,0.0,0.0,0.0,0.0,0.0,0.0,0.0,0.0,0.0,0.0,0.0,0.0,0.0,0.0,0.0,0.0,0.0,0.0,0.0,0.0,0.0,0.0,0.0,0.0,0.0,0.0,0.0,0.0,0.0,0.0,0.0,0.0,0.0,0.0,0.0,0.0,0.0,0.0,0.0,0.0,0.0,0.0,0.0,0.0,0.0,0.0,0.0,0.0,0.0,0.0,0.0,0.0,0.0,0.0,0.0,0.0,0.0,0.0,0.0,0.0,0.0,0.0,0.0,0.0,0.0,0.0,0.0,0.0,-0.6346,-0.5932,-0.6506,-0.6346,-0.5331,0.0,0.0,0.0,0.0,0.0,0.0,0.0,0.0,0.0,0.0,0.0,0.0,0.0,0.0,0.0,0.0,0.0,0.0,0.0,0.0,0.0,0.0,0.0,0.0,0.0,0.0,0.0,0.0,0.0,0.0,0.0,0.0,0.0,0.0,0.0,0.0,0.0,0.0,0.0,0.0,0.0,0.0,0.0,0.0,0.0,0.0,0.0,0.0,0.0,0.0,0.0,0.0,0.0,0.0,0.0,0.0,0.0,0.0,0.0,0.0,0.0,0.0,0.0,0.0,0.0,0.0,0.0,0.0,0.0,0.0,0.0,0.0,0.0,0.0,0.0,0.0,0.0,0.0,0.0,0.0,0.0,0.0,0.0,0.0,0.0,0.0,0.0,0.0,0.0,0.0,0.0,0.0,0.0,0.0,0.0,0.0,0.0,0.0,0.0,0.0,0.0,0.0,0.0,0.0,0.0,0.0,0.0,0.0,0.0,0.0,0.0,0.0,-0.6627,-0.6442,-0.5362,0.0,0.0,0.0,0.0,0.0,0.0,0.0,0.0,0.0,0.0,0.0,0.0,0.0,0.0,0.0,0.0,0.0,0.0,0.0,0.0,0.0,0.0,0.0,0.0,0.0,0.0,0.0,0.0,0.0,0.0,0.0,0.0,0.0,0.0,0.0,0.0,0.0,0.0,0.0,0.0,0.0,0.0,0.0,0.0,0.0,0.0,0.0,0.0,0.0,0.0,0.0,0.0,0.0,0.0,0.0,0.0,0.0,0.0,0.0,0.0,0.0,0.0,0.0,0.0,0.0,0.0,0.0,0.0,0.0,0.0,0.0,0.0,0.0,0.0,0.0,0.0,0.0,0.0,0.0,0.0,0.0,0.0,0.0,0.0,0.0,0.0,0.0,0.0,0.0,0.0,0.0,0.0,0.0,0.0,0.0,0.0,0.0,0.0,0.0,0.0,0.0,0.0,0.0,0.0,0.0,0.0,0.0,0.0,0.0,0.0,-0.6119,-0.688,-0.6932,0.0,-0.542,0.0,0.0,0.0,0.0,0.0,0.0,0.0,0.0,0.0,0.0,0.0,0.0,0.0,0.0,0.0,0.0,0.0,0.0,0.0,0.0,0.0,0.0,0.0,0.0,0.0,0.0,0.0,0.0,0.0,0.0,0.0,0.0,0.0,0.0,0.0,0.0,0.0,0.0,0.0,0.0,0.0,0.0,0.0,0.0,0.0,0.0,0.0,0.0,0.0,0.0,0.0,0.0,0.0,0.0,0.0,0.0,0.0,0.0,0.0,0.0,0.0,0.0,0.0,0.0,0.0,0.0,0.0,0.0,0.0,0.0,0.0,0.0,0.0,0.0,0.0,0.0,0.0,0.0,0.0,0.0,0.0,0.0,0.0,0.0,0.0,0.0,0.0,0.0,0.0,0.0,0.0,0.0,0.0,0.0,0.0,0.0,0.0,0.0,0.0,0.0,0.0,0.0,0.0,0.0,0.0,0.0,0.0,0.0,0.0,0.0,-0.64,-0.676,-0.66,-0.6621,0.0,0.0,0.0,0.0,0.0,0.0,0.0,0.0,0.0,0.0,0.0,0.0,0.0,0.0,0.0,0.0,0.0,0.0,0.0,0.0,0.0,0.0,0.0,0.0,0.0,0.0,0.0,0.0,0.0,0.0,0.0,0.0,0.0,0.0,0.0,0.0,0.0,0.0,0.0,0.0,0.0,0.0,0.0,0.0,0.0,0.0,0.0,0.0,0.0,0.0,0.0,0.0,0.0,0.0,0.0,0.0,0.0,0.0,0.0,0.0,0.0,0.0,0.0,0.0,0.0,0.0,0.0,0.0,0.0,0.0,0.0,0.0,0.0,0.0,0.0,0.0,0.0,0.0,0.0,0.0,0.0,0.0,0.0,0.0,0.0,0.0,0.0,0.0,0.0,0.0,0.0,0.0,0.0,0.0,0.0,0.0,0.0,0.0,0.0,0.0,0.0,0.0,0.0,0.0,0.0,0.0,0.0,0.0,0.0,0.0,-0.64,-0.6707,-0.6921,-0.6707,-0.6877,-0.7621,0.0,0.0,0.0,0.0,0.0,0.0,0.0,0.0,0.0,0.0,0.0,0.0,0.0,0.0,0.0,0.0,0.0,0.0,0.0,0.0,0.0,0.0,0.0,0.0,0.0,0.0,0.0,0.0,0.0,0.0,0.0,0.0,0.0,0.0,0.0,0.0,0.0,0.0,0.0,0.0,0.0,0.0,0.0,0.0,0.0,0.0,0.0,0.0,0.0,0.0,0.0,0.0,0.0,0.0,0.0,0.0,0.0,0.0,0.0,0.0,0.0,0.0,0.0,0.0,0.0,0.0,0.0,0.0,0.0,0.0,0.0,0.0,0.0,0.0,0.0,0.0,0.0,0.0,0.0,0.0,0.0,0.0,0.0,0.0,0.0,0.0,0.0,0.0,0.0,0.0,0.0,0.0,0.0,0.0,0.0,0.0,0.0,0.0,0.0,0.0,0.0,0.0,0.0,0.0,0.0,0.0,0.0,0.0,-0.7655,-0.6987,-0.7001,-0.7769,-0.7562,-0.7335,0.0,0.0,0.0,0.0,0.0,0.0,0.0,0.0,0.0,0.0,0.0,0.0,0.0,0.0,0.0,0.0,0.0,0.0,0.0,0.0,0.0,0.0,0.0,0.0,0.0,0.0,0.0,0.0,0.0,0.0,0.0,0.0,0.0,0.0,0.0,0.0,0.0,0.0,0.0,0.0,0.0,0.0,0.0,0.0,0.0,0.0,0.0,0.0,0.0,0.0,0.0,0.0,0.0,0.0,0.0,0.0,0.0,0.0,0.0,0.0,0.0,0.0,0.0,0.0,0.0,0.0,0.0,0.0,0.0,0.0,0.0,0.0,0.0,0.0,0.0,0.0,0.0,0.0,0.0,0.0,0.0,0.0,0.0,0.0,0.0,0.0,0.0,0.0,0.0,0.0,0.0,0.0,0.0,0.0,0.0,0.0,0.0,0.0,0.0,0.0,0.0,0.0,0.0,0.0,0.0,0.0,0.0,0.0,0.0,-0.5638,-0.5892,-0.6814,-0.835,-0.6921,-0.6913,0.0,0.0,0.0,0.0,0.0,0.0,0.0,0.0,0.0,0.0,0.0,0.0,0.0,0.0,0.0,0.0,0.0,0.0,0.0,0.0,0.0,0.0,0.0,0.0,0.0,0.0,0.0,0.0,0.0,0.0,0.0,0.0,0.0,0.0,0.0,0.0,0.0,0.0,0.0,0.0,0.0,0.0,0.0,0.0,0.0,0.0,0.0,0.0,0.0,0.0,0.0,0.0,0.0,0.0,0.0,0.0,0.0,0.0,0.0,0.0,0.0,0.0,0.0,0.0,0.0,0.0,0.0,0.0,0.0,0.0,0.0,0.0,0.0,0.0,0.0,0.0,0.0,0.0,0.0,0.0,0.0,0.0,0.0,0.0,0.0,0.0,0.0,0.0,0.0,0.0,0.0,0.0,0.0,0.0,0.0,0.0,0.0,0.0,0.0,0.0,0.0,0.0,0.0,0.0,0.0,0.0,0.0,0.0,0.0,-0.5384,-0.6359,-0.7348,-0.8243,-0.6747,-0.652,0.0,0.0,0.0,0.0,0.0,0.0,0.0,0.0,0.0,0.0,0.0,0.0,0.0,0.0,0.0,0.0,0.0,0.0,0.0,0.0,0.0,0.0,0.0,0.0,0.0,0.0,0.0,0.0,0.0,0.0,0.0,0.0,0.0,0.0,0.0,0.0,0.0,0.0,0.0,0.0,0.0,0.0,0.0,0.0,0.0,0.0,0.0,0.0,0.0,0.0,0.0,0.0,0.0,0.0,0.0,0.0,0.0,0.0,0.0,0.0,0.0,0.0,0.0,0.0,0.0,0.0,0.0,0.0,0.0,0.0,0.0,0.0,0.0,0.0,0.0,0.0,0.0,0.0,0.0,0.0,0.0,0.0,0.0,0.0,0.0,0.0,0.0,0.0,0.0,0.0,0.0,0.0,0.0,0.0,0.0,0.0,0.0,0.0,0.0,0.0,0.0,0.0,0.0,0.0,0.0,0.0,0.0,0.0,-0.4861,-0.7321,-0.851,-0.8577,-0.758,-0.7148,-0.6188,0.0,0.0,0.0,0.0,0.0,0.0,0.0,0.0,0.0,0.0,0.0,0.0,0.0,0.0,0.0,0.0,0.0,0.0,0.0,0.0,0.0,0.0,0.0,0.0,0.0,0.0,0.0,0.0,0.0,0.0,0.0,0.0,0.0,0.0,0.0,0.0,0.0,0.0,0.0,0.0,0.0,0.0,0.0,0.0,0.0,0.0,0.0,0.0,0.0,0.0,0.0,0.0,0.0,0.0,0.0,0.0,0.0,0.0,0.0,0.0,0.0,0.0,0.0,0.0,0.0,0.0,0.0,0.0,0.0,0.0,0.0,0.0,0.0,0.0,0.0,0.0,0.0,0.0,0.0,0.0,0.0,0.0,0.0,0.0,0.0,0.0,0.0,0.0,0.0,0.0,0.0,0.0,0.0,0.0,0.0,0.0,0.0,0.0,0.0,0.0,0.0,0.0,0.0,0.0,0.0,0.0,0.0,0.0,0.0,-0.6035,-0.7508,-0.83,-0.835,-0.7108,-0.6376,0.0,0.0,0.0,0.0,0.0,0.0,0.0,0.0,0.0,0.0,0.0,0.0,0.0,0.0,0.0,0.0,0.0,0.0,0.0,0.0,0.0,0.0,0.0,0.0,0.0,0.0,0.0,0.0,0.0,0.0,0.0,0.0,0.0,0.0,0.0,0.0,0.0,0.0,0.0,0.0,0.0,0.0,0.0,0.0,0.0,0.0,0.0,0.0,0.0,0.0,0.0,0.0,0.0,0.0,0.0,0.0,0.0,0.0,0.0,0.0,0.0,0.0,0.0,0.0,0.0,0.0,0.0,0.0,0.0,0.0,0.0,0.0,0.0,0.0,0.0,0.0,0.0,0.0,0.0,0.0,0.0,0.0,0.0,0.0,0.0,0.0,0.0,0.0,0.0,0.0,0.0,0.0,0.0,0.0,0.0,0.0,0.0,0.0,0.0,0.0,0.0,0.0,0.0,0.0,0.0,0.0,0.0,0.0,0.0,-0.6908,-0.827,-0.9031,-0.8911,-0.7575,-0.6575,-0.6021,0.0,0.0,0.0,0.0,0.0,0.0,0.0,0.0,0.0,0.0,0.0,0.0,0.0,0.0,0.0,0.0,0.0,0.0,0.0,0.0,0.0,0.0,0.0,0.0,0.0,0.0,0.0,0.0,0.0,0.0,0.0,0.0,0.0,0.0,0.0,0.0,0.0,0.0,0.0,0.0,0.0,0.0,0.0,0.0,0.0,0.0,0.0,0.0,0.0,0.0,0.0,0.0,0.0,0.0,0.0,0.0,0.0,0.0,0.0,0.0,0.0,0.0,0.0,0.0,0.0,0.0,0.0,0.0,0.0,0.0,0.0,0.0,0.0,0.0,0.0,0.0,0.0,0.0,0.0,0.0,0.0,0.0,0.0,0.0,0.0,0.0,0.0,0.0,0.0,0.0,0.0,0.0,0.0,0.0,0.0,0.0,0.0,0.0,0.0,0.0,0.0,0.0,0.0,0.0,0.0,0.0,0.0,0.0,-0.9312,-1.0408,-1.0434,-0.9296,-0.8406,-0.6911,0.0,0.0,0.0,0.0,0.0,0.0,0.0,0.0,0.0,0.0,0.0,0.0,0.0,0.0,0.0,0.0,0.0,0.0,0.0,0.0,0.0,0.0,0.0,0.0,0.0,0.0,0.0,0.0,0.0,0.0,0.0,0.0,0.0,0.0,0.0,0.0,0.0,0.0,0.0,0.0,0.0,0.0,0.0,0.0,0.0,0.0,0.0,0.0,0.0,0.0,0.0,0.0,0.0,0.0,0.0,0.0,0.0,0.0,0.0,0.0,0.0,0.0,0.0,0.0,0.0,0.0,0.0,0.0,0.0,0.0,0.0,0.0,0.0,0.0,0.0,0.0,0.0,0.0,0.0,0.0,0.0,0.0,0.0,0.0,0.0,0.0,0.0,0.0,0.0,0.0,0.0,0.0,0.0,0.0,0.0,0.0,0.0,0.0,0.0,0.0,0.0,0.0,0.0,0.0,0.0,0.0,0.0,0.0,0.0,-1.0255,-1.0728,-1.0742,-1.0221,-0.9365,-0.8709,0.0,0.0,0.0,0.0,0.0,0.0,0.0,0.0,0.0,0.0,0.0,0.0,0.0,0.0,0.0,0.0,0.0,0.0,0.0,0.0,0.0,0.0,0.0,0.0,0.0,0.0,0.0,0.0,0.0,0.0,0.0,0.0,0.0,0.0,0.0,0.0,0.0,0.0,0.0,0.0,0.0,0.0,0.0,0.0,0.0,0.0,0.0,0.0,0.0,0.0,0.0,0.0,0.0,0.0,0.0,0.0,0.0,0.0,0.0,0.0,0.0,0.0,0.0,0.0,0.0,0.0,0.0,0.0,0.0,0.0,0.0,0.0,0.0,0.0,0.0,0.0,0.0,0.0,0.0,0.0,0.0,0.0,0.0,0.0,0.0,0.0,0.0,0.0,0.0,0.0,0.0,0.0,0.0,0.0,0.0,0.0,0.0,0.0,0.0,0.0,0.0,0.0,0.0,0.0,0.0,0.0,0.0,0.0,-1.1224,-1.0967,-1.0848,-1.0728,-1.0618,-0.994,-0.9743,0.0,0.0,0.0,0.0,0.0,0.0,0.0,0.0,0.0,0.0,0.0,0.0,0.0,0.0,0.0,0.0,0.0,0.0,0.0,0.0,0.0,0.0,0.0,0.0,0.0,0.0,0.0,0.0,0.0,0.0,0.0,0.0,0.0,0.0,0.0,0.0,0.0,0.0,0.0,0.0,0.0,0.0,0.0,0.0,0.0,0.0,0.0,0.0,0.0,0.0,0.0,0.0,0.0,0.0,0.0,0.0,0.0,0.0,0.0,0.0,0.0,0.0,0.0,0.0,0.0,0.0,0.0,0.0,0.0,0.0,0.0,0.0,0.0,0.0,0.0,0.0,0.0,0.0,0.0,0.0,0.0,0.0,0.0,0.0,0.0,0.0,0.0,0.0,0.0,0.0,0.0,0.0,0.0,0.0,0.0,0.0,0.0,0.0,0.0,0.0,0.0,0.0,0.0,0.0,0.0,0.0,0.0,0.0,-1.1414,-1.1396,-1.0889,-1.0621,-1.0635,-1.0327,-1.0317,0.0,0.0,0.0,0.0,0.0,0.0,0.0,0.0,0.0,0.0,0.0,0.0,0.0,0.0,0.0,0.0,0.0,0.0,0.0,0.0,0.0,0.0,0.0,0.0,0.0,0.0,0.0,0.0,0.0,0.0,0.0,0.0,0.0,0.0,0.0,0.0,0.0,0.0,0.0,0.0,0.0,0.0,0.0,0.0,0.0,0.0,0.0,0.0,0.0,0.0,0.0,0.0,0.0,0.0,0.0,0.0,0.0,0.0,0.0,0.0,0.0,0.0,0.0,0.0,0.0,0.0,0.0,0.0,0.0,0.0,0.0,0.0,0.0,0.0,0.0,0.0,0.0,0.0,0.0,0.0,0.0,0.0,0.0,0.0,0.0,0.0,0.0,0.0,0.0,0.0,0.0,0.0,0.0,0.0,0.0,0.0,0.0,0.0,0.0,0.0,0.0,0.0,0.0,0.0,0.0,0.0,0.0,0.0,-1.1416,-1.1383,-1.1076,-1.1009,-1.1236,-1.0742,-1.0746,0.0,0.0,0.0,0.0,0.0,0.0,0.0,0.0,0.0,0.0,0.0,0.0,0.0,0.0,0.0,0.0,0.0,0.0,0.0,0.0,0.0,0.0,0.0,0.0,0.0,0.0,0.0,0.0,0.0,0.0,0.0,0.0,0.0,0.0,0.0,0.0,0.0,0.0,0.0,0.0,0.0,0.0,0.0,0.0,0.0,0.0,0.0,0.0,-0.4502,0.0,0.0,0.0,0.0,0.0,0.0,0.0,0.0,0.0,0.0,0.0,0.0,0.0,0.0,0.0,0.0,0.0,0.0,0.0,0.0,0.0,0.0,0.0,0.0,0.0,0.0,0.0,0.0,0.0,0.0,0.0,0.0,0.0,0.0,0.0,0.0,0.0,0.0,0.0,0.0,0.0,0.0,0.0,0.0,0.0,0.0,0.0,0.0,0.0,0.0,0.0,0.0,0.0,0.0,0.0,0.0,0.0,0.0,0.0,-1.1455,-1.1597,-1.1356,-1.1263,-1.141,-1.1263,-1.1241,0.0,0.0,0.0,0.0,0.0,0.0,0.0,0.0,0.0,0.0,0.0,0.0,0.0,0.0,0.0,0.0,0.0,0.0,0.0,0.0,0.0,0.0,0.0,0.0,0.0,0.0,0.0,0.0,0.0,0.0,0.0,0.0,0.0,0.0,0.0,0.0,0.0,0.0,0.0,0.0,0.0,0.0,0.0,0.0,0.0,0.0,0.0,0.0,0.0,0.0,0.0,0.0,0.0,0.0,0.0,0.0,0.0,0.0,0.0,0.0,0.0,0.0,0.0,0.0,0.0,0.0,0.0,0.0,0.0,0.0,0.0,0.0,0.0,0.0,0.0,0.0,0.0,0.0,0.0,0.0,0.0,0.0,0.0,0.0,0.0,0.0,0.0,0.0,0.0,0.0,0.0,0.0,0.0,0.0,0.0,0.0,0.0,0.0,0.0,0.0,0.0,0.0,0.0,0.0,0.0,0.0,0.0,-1.1614,-1.1628,-1.1908,-1.1623,-1.1503,-1.1557,-1.1837,-1.1915,-1.1526,0.0,0.0,0.0,0.0,0.0,0.0,0.0,0.0,0.0,0.0,0.0,0.0,0.0,0.0,0.0,0.0,0.0,0.0,0.0,0.0,0.0,0.0,0.0,0.0,0.0,0.0,0.0,0.0,0.0,0.0,0.0,0.0,0.0,0.0,0.0,0.0,0.0,0.0,-0.3337,-0.4185,0.0,0.0,0.0,0.0,0.0,0.0,0.0,0.0,-0.491,0.0,0.0,0.0,0.0,0.0,0.0,0.0,0.0,0.0,0.0,0.0,0.0,0.0,0.0,0.0,0.0,0.0,0.0,0.0,0.0,0.0,0.0,0.0,0.0,0.0,0.0,0.0,0.0,0.0,0.0,0.0,0.0,0.0,0.0,0.0,0.0,0.0,0.0,0.0,0.0,0.0,0.0,0.0,0.0,0.0,0.0,0.0,0.0,0.0,0.0,0.0,0.0,0.0,0.0,0.0,0.0,-0.9756,-1.1361,-1.2101,-1.1921,-1.1824,-1.1904,-1.2158,-1.2526,-1.2469,-1.2089,0.0,0.0,0.0,0.0,0.0,0.0,0.0,0.0,0.0,0.0,0.0,0.0,0.0,0.0,0.0,0.0,0.0,0.0,0.0,0.0,0.0,0.0,0.0,0.0,0.0,0.0,0.0,0.0,0.0,0.0,0.0,0.0,0.0,0.0,0.0,0.0,0.0,0.0,0.0,-0.4904,-0.5196,0.0,0.0,0.0,0.0,0.0,0.0,0.0,0.0,-0.4674,0.0,0.0,0.0,0.0,0.0,0.0,0.0,0.0,0.0,0.0,0.0,0.0,0.0,0.0,0.0,0.0,0.0,0.0,0.0,0.0,0.0,0.0,0.0,0.0,0.0,0.0,0.0,0.0,0.0,0.0,0.0,0.0,0.0,0.0,0.0,0.0,0.0,0.0,0.0,0.0,0.0,0.0,0.0,0.0,0.0,0.0,0.0,0.0,0.0,0.0,0.0,0.0,0.0,0.0,0.0,-0.9382,-1.1368,-1.2277,-1.2078,-1.2091,-1.2158,-1.2305,-1.2043,-1.2171,0.0,0.0,0.0,0.0,0.0,0.0,0.0,0.0,0.0,0.0,0.0,0.0,0.0,0.0,0.0,0.0,0.0,0.0,0.0,0.0,0.0,0.0,0.0,0.0,0.0,0.0,0.0,0.0,0.0,0.0,0.0,0.0,0.0,0.0,0.0,0.0,0.0,0.0,0.0,0.0,-0.5128,-0.5386,-0.5467,0.0,0.0,0.0,0.0,0.0,0.0,-0.5135,-0.485,0.0,0.0,0.0,0.0,0.0,0.0,0.0,0.0,0.0,0.0,0.0,0.0,0.0,0.0,0.0,0.0,0.0,0.0,0.0,0.0,0.0,0.0,0.0,0.0,0.0,0.0,0.0,0.0,0.0,0.0,0.0,0.0,0.0,0.0,0.0,0.0,0.0,0.0,0.0,0.0,0.0,0.0,0.0,0.0,0.0,0.0,0.0,0.0,0.0,0.0,0.0,0.0,0.0,0.0,0.0,-1.0306,-1.1778,-1.2493,-1.2478,-1.2478,-1.2492,-1.2492,-1.1642,-1.1515,0.0,0.0,0.0,0.0,0.0,0.0,0.0,0.0,0.0,0.0,0.0,0.0,0.0,0.0,0.0,0.0,0.0,0.0,0.0,0.0,0.0,0.0,0.0,0.0,0.0,0.0,0.0,0.0,0.0,0.0,0.0,0.0,0.0,0.0,0.0,0.0,0.0,0.0,0.0,0.0,0.0,-0.5562,-0.5732,-0.5555,0.0,0.0,0.0,0.0,-0.5928,-0.5583,0.0,0.0,0.0,0.0,0.0,0.0,0.0,0.0,0.0,0.0,0.0,0.0,0.0,0.0,0.0,0.0,0.0,0.0,0.0,0.0,0.0,0.0,0.0,0.0,0.0,0.0,0.0,0.0,0.0,0.0,0.0,0.0,0.0,0.0,0.0,0.0,0.0,0.0,0.0,0.0,0.0,0.0,0.0,0.0,0.0,0.0,0.0,0.0,0.0,0.0,0.0,0.0,0.0,0.0,0.0,0.0,-1.2617,-1.3013,-1.3129,-1.3053,-1.3106,-1.3106,-1.3106,-1.2371,-1.0897,0.0,0.0,0.0,0.0,0.0,0.0,0.0,0.0,0.0,0.0,0.0,0.0,0.0,0.0,0.0,0.0,0.0,0.0,0.0,0.0,0.0,0.0,0.0,0.0,0.0,0.0,0.0,0.0,0.0,0.0,0.0,0.0,0.0,0.0,0.0,0.0,0.0,0.0,0.0,0.0,0.0,-0.5867,-0.5644,-0.5583,-0.5644,0.0,0.0,-0.5813,-0.6668,-0.6512,0.0,0.0,0.0,0.0,0.0,0.0,0.0,0.0,0.0,0.0,0.0,0.0,0.0,0.0,0.0,0.0,0.0,0.0,0.0,0.0,0.0,0.0,0.0,0.0,0.0,0.0,0.0,0.0,0.0,0.0,0.0,0.0,0.0,0.0,0.0,0.0,0.0,0.0,0.0,0.0,0.0,0.0,0.0,0.0,0.0,0.0,0.0,0.0,0.0,0.0,0.0,0.0,0.0,0.0,0.0,-0.8102,-1.2996,-1.357,-1.3563,-1.3186,-1.3213,-1.3213,-1.3213,-1.1824,-1.0126,0.0,0.0,0.0,0.0,0.0,0.0,0.0,0.0,0.0,0.0,0.0,0.0,0.0,0.0,0.0,0.0,0.0,0.0,0.0,0.0,0.0,0.0,0.0,0.0,0.0,0.0,0.0,0.0,0.0,0.0,0.0,0.0,0.0,0.0,0.0,0.0,0.0,0.0,0.0,0.0,0.0,0.0,-0.6302,-0.6132,0.0,0.0,0.0,-0.6383,-0.6851,0.0,0.0,0.0,0.0,0.0,0.0,0.0,0.0,0.0,0.0,0.0,0.0,0.0,0.0,0.0,0.0,0.0,0.0,0.0,0.0,0.0,0.0,0.0,0.0,0.0,0.0,0.0,0.0,0.0,0.0,0.0,0.0,0.0,0.0,0.0,0.0,0.0,0.0,0.0,0.0,0.0,0.0,0.0,0.0,0.0,0.0,0.0,0.0,0.0,0.0,0.0,0.0,0.0,0.0,0.0,0.0,0.0,-1.3281,-1.3887,-1.3909,-1.3427,-1.3172,-1.3011,-1.2943,-1.1091,0.0,0.0,0.0,0.0,0.0,0.0,0.0,0.0,0.0,0.0,0.0,0.0,0.0,0.0,0.0,0.0,0.0,0.0,0.0,0.0,0.0,0.0,0.0,0.0,0.0,0.0,0.0,-0.2177,0.0,0.0,0.0,0.0,0.0,0.0,0.0,0.0,0.0,0.0,0.0,0.0,0.0,0.0,-0.6023,-0.677,-0.6586,-0.6491,0.0,0.0,-0.6892,-0.7115,-0.7149,-0.7021,0.0,0.0,0.0,0.0,0.0,0.0,0.0,0.0,0.0,0.0,0.0,0.0,0.0,0.0,0.0,0.0,0.0,0.0,0.0,0.0,0.0,0.0,0.0,0.0,0.0,0.0,0.0,0.0,0.0,0.0,0.0,0.0,0.0,0.0,0.0,0.0,0.0,0.0,0.0,0.0,0.0,0.0,0.0,0.0,0.0,0.0,0.0,0.0,0.0,0.0,0.0,0.0,0.0,0.0,-0.7623,-1.3816,-1.4079,-1.4118,-1.4015,-1.2977,-1.236,-1.2275,-1.0348,-0.869,0.0,0.0,0.0,0.0,0.0,0.0,0.0,0.0,0.0,0.0,0.0,0.0,0.0,0.0,0.0,0.0,0.0,0.0,0.0,0.0,0.0,0.0,0.0,0.0,0.0,0.0,0.0,0.0,0.0,0.0,0.0,0.0,0.0,0.0,0.0,0.0,0.0,0.0,0.0,0.0,0.0,-0.5881,-0.6614,-0.6688,-0.6824,0.0,-0.7204,-0.7258,-0.7685,-0.7746,-0.7519,-0.6878,0.0,0.0,0.0,0.0,0.0,0.0,0.0,0.0,0.0,0.0,0.0,0.0,0.0,0.0,0.0,0.0,0.0,0.0,0.0,0.0,0.0,0.0,0.0,0.0,0.0,0.0,0.0,0.0,-0.2679,0.0,0.0,0.0,0.0,0.0,0.0,0.0,0.0,0.0,0.0,0.0,0.0,0.0,0.0,0.0,0.0,0.0,0.0,0.0,0.0,0.0,0.0,0.0,0.0,-0.7644,-1.3979,-1.4123,-1.4072,-1.4082,-1.3646,-1.3379,-1.3392,-1.197,-1.0573,0.0,0.0,0.0,0.0,0.0,0.0,0.0,0.0,0.0,0.0,0.0,0.0,0.0,0.0,0.0,0.0,0.0,0.0,0.0,0.0,0.0,0.0,0.0,0.0,0.0,0.0,0.0,0.0,-0.4253,-0.4416,-0.4111,0.0,0.0,0.0,0.0,0.0,0.0,0.0,0.0,0.0,0.0,-0.6546,-0.6919,-0.7054,0.0,0.0,-0.7672,-0.7814,-0.8167,-0.8209,-0.8058,-0.7731,-0.6263,0.0,0.0,0.0,0.0,0.0,0.0,0.0,0.0,0.0,0.0,0.0,0.0,0.0,0.0,0.0,0.0,0.0,0.0,0.0,0.0,0.0,0.0,0.0,0.0,0.0,0.0,0.0,-0.243,0.0,0.0,0.0,0.0,0.0,0.0,0.0,0.0,0.0,0.0,0.0,0.0,0.0,0.0,0.0,0.0,0.0,0.0,0.0,0.0,0.0,0.0,0.0,0.0,-0.7653,-1.3995,-1.4078,-1.3913,-1.3561,-1.3297,-1.2955,-1.254,-1.1882,-1.0696,0.0,0.0,0.0,0.0,0.0,0.0,0.0,0.0,0.0,0.0,0.0,0.0,0.0,0.0,0.0,0.0,0.0,0.0,0.0,0.0,0.0,0.0,0.0,0.0,0.0,0.0,0.0,0.0,-0.4769,-0.4782,-0.4187,0.0,0.0,0.0,0.0,0.0,0.0,0.0,0.0,0.0,0.0,-0.6993,-0.7262,-0.7502,-0.7645,-0.7758,-0.7918,-0.816,-0.8282,-0.8334,-0.83,-0.8197,0.0,0.0,0.0,0.0,0.0,0.0,0.0,0.0,0.0,0.0,0.0,0.0,0.0,0.0,0.0,0.0,0.0,0.0,0.0,0.0,0.0,0.0,0.0,0.0,0.0,0.0,0.0,-0.1821,0.0,0.0,-0.2347,0.0,0.0,0.0,0.0,0.0,0.0,0.0,0.0,0.0,0.0,0.0,0.0,0.0,0.0,0.0,0.0,0.0,0.0,0.0,0.0,0.0,0.0,-0.7663,-1.3995,-1.4106,-1.3574,-1.2431,-1.1356,-1.0406,-0.9262,-0.9153,-0.8376,-0.6732,0.0,0.0,0.0,0.0,0.0,0.0,0.0,0.0,0.0,0.0,0.0,0.0,0.0,0.0,0.0,0.0,0.0,0.0,0.0,0.0,0.0,0.0,0.0,0.0,0.0,0.0,-0.3873,-0.4348,-0.4524,0.0,0.0,0.0,0.0,0.0,0.0,0.0,0.0,0.0,-0.6722,-0.679,-0.7034,-0.7882,-0.7925,-0.7932,-0.7766,-0.7991,-0.8208,-0.7984,-0.8247,-0.8327,0.0,0.0,0.0,0.0,0.0,0.0,0.0,0.0,0.0,0.0,0.0,0.0,0.0,0.0,0.0,0.0,0.0,0.0,0.0,0.0,0.0,0.0,0.0,0.0,0.0,0.0,0.0,-0.2392,-0.2381,0.0,0.0,0.0,0.0,0.0,0.0,0.0,0.0,0.0,0.0,0.0,-1.2813,-1.2688,0.0,0.0,0.0,0.0,0.0,0.0,0.0,0.0,0.0,0.0,0.0,0.0,-0.789,-1.4301,-1.4698,-1.448,-1.4115,-1.2933,-1.2035,-1.16,-1.0849,-1.0074,-0.9217,0.0,0.0,0.0,0.0,0.0,0.0,0.0,0.0,0.0,0.0,0.0,0.0,0.0,0.0,0.0,0.0,0.0,0.0,0.0,0.0,0.0,0.0,0.0,0.0,0.0,-0.4348,0.0,0.0,0.0,0.0,0.0,0.0,0.0,0.0,0.0,0.0,-0.5786,-0.6498,-0.7136,-0.7522,-0.7814,-0.8011,-0.8011,-0.8073,0.0,0.0,0.0,0.0,0.0,0.0,0.0,0.0,0.0,0.0,0.0,0.0,0.0,-0.0,-0.0,-0.0,-0.0,-0.0,-0.0,0.0,0.0,0.0,0.0,0.0,0.0,0.0,0.0,0.0,0.0,0.0,0.0,0.0,0.0,-0.6733,-0.5858,-0.5022,0.0,0.0,0.0,0.0,0.0,0.0,0.0,0.0,-0.9574,-1.2578,-1.5749,-1.5618,-1.4434,-1.2401,-1.0701,-0.8725,0.0,0.0,0.0,0.0,0.0,0.0,0.0,0.0,-0.8264,-1.4963,-1.5247,-1.49,-1.4179,-1.3111,-1.2091,-1.1191,-1.0352,-1.0148,-1.0727,-0.8683,-0.7044,0.0,0.0,0.0,0.0,0.0,0.0,0.0,0.0,0.0,0.0,0.0,0.0,0.0,0.0,0.0,0.0,0.0,0.0,0.0,0.0,0.0,0.0,0.0,-0.4755,0.0,0.0,0.0,0.0,0.0,0.0,0.0,0.0,0.0,-0.5913,-0.6559,-0.7265,-0.7773,-0.8133,-0.8364,-0.832,0.0,0.0,0.0,0.0,0.0,0.0,0.0,-0.5836,-0.5784,-0.2558,-0.0,-0.0,-0.0,-0.0,-0.0,0.0,0.0,-0.0,-0.0,-0.0,-0.0,-0.0,-0.0,-0.0,-0.0,-0.0,0.0,0.0,0.0,0.0,-0.652,0.0,0.0,0.0,-1.2269,-1.418,0.0,-1.0017,0.0,0.0,0.0,0.0,-0.6396,-0.4717,0.0,0.0,-1.2192,-1.5832,-1.5747,-1.5295,-1.5058,-1.4833,-1.2492,-1.0973,-1.045,-0.9102,-0.761,0.0,0.0,0.0,0.0,0.0,-0.8901,-1.549,-1.5623,-1.4721,-1.2813,-1.1932,-1.0224,-0.7827,-0.7732,-0.8777,-1.0753,-0.8771,-0.7703,-0.7923,-0.5839,0.0,0.0,0.0,0.0,0.0,0.0,0.0,0.0,0.0,0.0,0.0,0.0,0.0,0.0,0.0,0.0,0.0,0.0,0.0,0.0,-0.4972,0.0,0.0,0.0,0.0,0.0,0.0,0.0,0.0,0.0,-0.7432,-0.6817,-0.7156,-0.774,-0.8601,0.0,0.0,0.0,0.0,-0.8928,-0.8877,-0.8671,-0.6489,-0.0924,-0.0,-0.0,-0.0,0.0,0.0,-0.0,-0.0,-0.0,-0.0,-0.0,-0.0,-0.0,-0.0,-0.0,-0.0,-0.0,-0.0,-0.0,-0.0,-0.0,-1.0443,0.0,0.0,0.0,0.0,-0.8403,-0.8309,-0.89,-1.3735,-1.542,-1.459,-1.2223,0.0,0.0,0.0,0.0,0.0,0.0,-0.8108,-0.8719,-1.3477,-1.5832,-1.5828,-1.6085,-1.5835,-1.5012,-1.4653,-1.416,-1.3648,-1.327,-1.0838,-0.6444,0.0,0.0,0.0,0.0,-1.0512,-1.5342,-1.4178,-1.3329,-1.3247,-1.1625,-0.9985,-0.833,-0.8228,-0.8431,-0.8838,-0.8199,-0.787,-0.8027,-0.7355,0.0,0.0,0.0,0.0,0.0,0.0,0.0,0.0,0.0,0.0,0.0,0.0,0.0,0.0,0.0,0.0,0.0,0.0,0.0,-0.449,-0.5277,-0.558,0.0,0.0,0.0,0.0,0.0,0.0,0.0,0.0,0.0,-0.822,-0.8241,-0.8506,0.0,0.0,-0.9084,-0.9231,-0.909,-0.8914,-0.894,-0.5236,0.0,-0.025,-0.0,-0.0,-0.0,-0.0,-0.0,-0.0,-0.0,-0.0,-0.0,-0.0,-0.0,-0.0,-0.0,-0.0,-0.0,-0.0,-0.0,-0.0,-0.0,-0.0,-1.3686,-1.2286,-1.0701,-1.0537,-1.1284,-1.0458,-1.1066,-1.2825,-1.4889,-1.5913,-1.6096,-1.4542,-1.2527,-1.0335,-1.0251,0.0,0.0,0.0,-1.1215,-1.2897,-1.5356,-1.6468,-1.656,-1.6919,-1.6854,-1.64,-1.6169,-1.5939,-1.5832,-1.5248,-1.3187,-0.968,0.0,-0.5647,-0.4898,-0.7286,-1.091,-1.5491,-1.3641,-1.2883,-1.3423,-1.1513,-1.0128,-0.9406,-0.8793,-0.8374,-0.8157,-0.8157,-0.8275,-0.8333,-0.8326,-0.7819,0.0,0.0,0.0,0.0,0.0,0.0,0.0,0.0,0.0,0.0,0.0,-0.4058,-0.358,0.0,0.0,0.0,-0.506,-0.5345,-0.5677,-0.622,0.0,0.0,0.0,0.0,0.0,0.0,0.0,-0.7557,-0.8784,-0.9457,-0.9123,-0.9205,-0.9286,-0.9422,-0.9453,-0.8973,-0.7807,0.0,-0.8369,-0.5774,-0.233,-0.0,-0.0,-0.0,-0.0,-0.0,-0.0,-0.0,-0.0,-0.0,-0.0,-0.0,-0.0,-0.0,-0.0,-0.0,-0.0,-0.0,-0.0,-0.0,-0.0,-0.0,-0.0,-1.6313,-1.6042,-1.2522,-1.1974,-1.3294,-1.1661,-1.2802,-1.5732,-1.5856,-1.6289,-1.6746,-1.6754,-1.5118,-1.2264,-1.188,0.0,-1.4147,-1.2554,-1.3619,-1.6733,-1.7305,-1.7649,-1.7636,-1.7598,-1.7938,-1.8427,-1.7103,-1.6673,-1.7154,-1.5902,-1.4903,-1.4358,-1.1368,-0.891,-0.7208,-0.8158,-1.1154,-1.5836,-1.4174,-1.3185,-1.3271,-1.1587,-1.0793,-1.0689,-0.9347,-0.852,-0.852,-0.852,-0.8625,-0.8941,-0.8952,-0.8549,-0.7808,0.0,0.0,0.0,0.0,0.0,0.0,0.0,0.0,0.0,0.0,0.0,0.0,0.0,0.0,-0.6051,-0.6946,0.0,-0.7577,-0.7489,0.0,0.0,0.0,-0.6851,-0.7115,-0.7537,-0.7924,-0.8404,0.0,0.0,-0.9842,-0.9992,-1.0032,-0.989,-0.9875,-0.8494,-0.5006,-0.6974,-0.6779,-0.119,-0.0,-0.0,-0.0,-0.0,-0.0,-0.0,-0.0,-0.0,-0.0,-0.0,-0.0,-0.0,-0.0,-0.0,-0.0,-0.0,-0.0,-0.0,-0.0,-0.0,-0.0,-0.0,-0.0,-1.6607,-1.6553,-1.559,-1.5499,-1.5765,-1.4911,-1.5047,-1.5818,-1.672,-1.7227,-1.7424,-1.7396,-1.6693,-1.5562,-1.5467,-1.5934,-1.6649,-1.5896,-1.6156,-1.7322,-1.7564,-1.7577,-1.7577,-1.8117,-1.8358,-1.8462,-1.7901,-1.7582,-1.7475,-1.716,-1.6491,-1.5364,-1.507,-1.3254,-1.0227,-1.35,-1.5922,-1.7186,-1.6749,-1.5376,-1.3295,-1.1818,-1.0966,-1.0974,-0.9581,-0.8832,-0.8832,-0.8825,-0.8941,-0.9275,-0.9284,-0.9147,-0.8872,-0.7428,0.0,0.0,0.0,0.0,0.0,0.0,0.0,0.0,0.0,-0.5658,-0.4671,0.0,-0.5833,0.0,-0.7801,-0.8133,-0.7489,-0.7699,0.0,0.0,-0.7638,-0.7678,-0.8832,-0.8633,-0.8654,-0.9564,-1.0046,-1.0266,-1.0168,-1.0297,-1.0371,-1.0337,-1.029,-0.8103,-0.2345,-0.1715,-0.1879,-0.0,-0.0,-0.0,-0.0,-0.0,-0.0,-0.0,-0.0,-0.0,-0.0,-0.0,-0.0,-0.0,-0.0,-0.0,-0.0,-0.0,-0.0,-0.0,-0.0,-0.0,-0.0,-0.0,-0.0,-1.6901,-1.6914,-1.7048,-1.7101,-1.7074,-1.6478,-1.6212,-1.6227,-1.7231,-1.7557,-1.7579,-1.7716,-1.7549,-1.7315,-1.7448,-1.7675,-1.7983,-1.7741,-1.779,-1.7981,-1.8242,-1.8366,-1.838,-1.8739,-1.8863,-1.8933,-1.8561,-1.849,-1.8557,-1.8437,-1.8072,-1.7541,-1.6124,-1.4335,-1.2316,-1.3525,-1.4176,-1.4169,-1.5251,-1.5121,-1.3558,-1.2015,-1.1159,-1.1118,-0.9912,-0.9171,-0.8923,-0.8931,-0.903,-0.9182,-0.9051,-0.9092,-0.9266,-0.8302,-0.7753,0.0,0.0,0.0,0.0,0.0,0.0,0.0,0.0,0.0,0.0,0.0,-0.681,-0.7034,-0.8275,-0.8696,-0.7936,-0.8391,-0.8832,-0.9055,-0.8771,-0.892,-0.9815,-0.9566,-0.9573,-1.01,-1.0283,-1.0378,-1.0378,-1.05,-1.0595,-1.0609,-1.0609,-0.9168,-0.5352,-0.2169,-0.0,-0.0,-0.0,-0.0,-0.0,-0.0,-0.0,-0.0,-0.0,-0.0,-0.0,-0.0,-0.0,-0.0,-0.0,-0.0,-0.0,-0.0,-0.0,-0.0,-0.0,-0.0,-0.0,-0.0,-0.0,-1.7418,-1.7341,-1.7595,-1.7689,-1.7662,-1.7038,-1.683,-1.6795,-1.7418,-1.7684,-1.7716,-1.7983,-1.7994,-1.8116,-1.837,-1.8504,-1.8544,-1.8682,-1.8695,-1.8611,-1.9111,-1.9389,-1.9417,-1.9431,-1.9456,-1.9475,-1.9219,-1.9359,-1.984,-1.9599,-1.9482,-1.9456,-1.6228,-1.4084,-1.3186,-1.1845,-1.0834,-0.9913,-1.2072,-1.3364,-1.3735,-1.2259,-1.1427,-1.1142,-1.0222,-0.9392,-0.9023,-0.9013,-0.8987,-0.8997,-0.8732,-0.8858,-0.9455,-0.9133,-0.8716,0.0,-0.7929,0.0,0.0,0.0,0.0,0.0,0.0,0.0,0.0,-0.8113,-0.8018,-0.7421,-0.8648,-0.9259,-0.8757,-0.9306,-0.9747,-0.9863,-0.9998,-1.0141,-1.0283,-1.031,-1.0317,-1.0337,-1.0446,-1.0521,-1.0534,-1.0643,-1.0738,-1.0685,-1.0684,-1.0522,-1.0028,-0.5464,-0.0,-0.0,-0.0,-0.0,-0.0,-0.0,-0.0,-0.0,-0.0,-0.0,-0.0,-0.0,-0.0,-0.0,-0.0,-0.0,-0.0,-0.0,-0.0,-0.0,-0.0,-0.0,-0.0,-0.0,-0.0,-1.8237,-1.8237,-1.829,-1.8317,-1.8303,-1.7707,-1.7443,-1.7421,-1.752,-1.7895,-1.8317,-1.8247,-1.8287,-1.841,-1.8464,-1.8611,-1.8838,-1.8838,-1.8971,-1.9199,-1.9327,-1.9448,-1.9415,-1.9821,-2.0101,-1.9987,-1.9987,-2.004,-2.0147,-2.0094,-1.9477,-1.8277,-1.8679,-1.631,-1.1455,0.0,0.0,0.0,-1.0457,-1.1636,-1.3722,-1.2463,-1.1737,-1.1678,-1.0383,0.0,-0.97,-0.9627,-0.968,-0.9592,-0.9092,0.0,-0.9249,0.0,0.0,0.0,0.0,0.0,0.0,0.0,0.0,0.0,-0.8506,-0.8391,-0.8228,-0.8981,-0.9239,-0.8689,-0.9408,-0.993,-0.9944,-1.0059,-1.0168,-1.0188,-1.0222,-1.029,-1.0432,-1.0453,-1.05,-1.0622,-1.0663,-1.0683,-1.0704,-1.0731,-1.0719,-1.0692,-1.0735,-1.0643,-1.0553,-0.8894,-0.6294,-0.0,-0.0,-0.0,-0.0,-0.0,-0.0,-0.0,-0.0,-0.0,-0.0,-0.0,-0.0,-0.0,-0.0,-0.0,-0.0,-0.0,-0.0,-0.0,-0.0,-0.0,-0.0,-0.0,-0.0,-1.8931,-1.8918,-1.8771,-1.8704,0.0,-1.8203,-1.8,-1.8105,-1.8366,-1.8628,-1.8877,-1.8637,-1.8579,-1.8718,-1.8865,-1.8998,-1.9145,-1.9132,-1.9176,-1.9442,-1.9442,-1.9457,-1.9468,-2.028,-2.0643,-2.0645,-2.0375,-2.0307,-2.0454,-2.0454,-2.0139,-1.9524,-2.0289,-1.8976,-1.5813,-1.9274,-1.7656,-1.0564,-1.0285,-1.0845,-1.1987,-1.1386,-1.0944,-1.0793,-1.0362,0.0,0.0,0.0,0.0,0.0,0.0,0.0,0.0,-0.9591,-0.9408,-0.9476,-0.9198,-0.8967,-0.8825,-0.8879,-0.9123,-0.9557,-0.9666,-0.9578,-0.9286,-0.9747,-0.9924,-0.9639,-0.9951,-1.0195,-1.027,-1.0344,-1.0385,-1.0392,-1.0453,-1.0534,-1.0588,-1.0616,-1.0649,-1.0731,-1.0685,-1.0739,-1.0752,-0.9075,-0.891,-1.0358,-1.0712,-0.9286,-0.6127,-0.5373,-0.3741,-0.0,-0.0,-0.0,-0.0,-0.0,-0.0,-0.0,-0.0,-0.0,-0.0,-0.0,-0.0,-0.0,-0.0,-0.0,-0.0,-0.0,-0.0,-0.0,-0.0,-0.0,-0.0,-0.0,-0.0,-1.9519,-1.9492,-1.9252,-1.9158,-1.9145,-1.8774,-1.8672,-1.8685,-1.9203,0.0,0.0,-1.9031,-1.8884,-1.9025,-1.9319,-1.9439,-1.9452,-1.9506,-1.9508,-1.9469,-1.9469,-1.9627,-1.9755,-2.0713,-2.1039,-2.108,-2.0537,-2.0508,-2.0748,-2.0762,-2.0869,-2.1096,-2.1102,-2.1102,-2.1136,-2.112,-1.7697,-1.1143,-1.0679,-1.0579,-1.0317,-1.0317,-1.0195,-0.9944,-1.0324,-1.0283,-0.9664,-1.027,-1.0756,-1.0769,-1.0753,-1.0686,-1.0686,-1.0058,-0.9971,-1.0324,-1.0358,-1.0358,-1.0358,-1.0358,-1.0358,-1.0358,-1.0466,-1.0473,-1.0331,-1.0344,-1.0358,-1.0358,-1.0358,-1.0358,-1.0358,-1.046,-1.0534,-1.0534,-1.067,-1.0758,-1.0758,-1.0799,-1.0846,-1.0745,-1.0743,-1.0705,-1.0606,-0.8349,-0.6606,-0.8271,-0.8264,-0.7069,-0.0,-0.0,-0.0,-0.0,-0.0,-0.0,-0.0,-0.0,-0.0,-0.0,-0.0,-0.0,-0.0,-0.0,-0.0,-0.0,-0.0,-0.0,-0.0,-0.0,-0.0,-0.0,-0.0,-0.0,-0.0,-0.0,-0.0,-2.0107,-2.0107,-2.0067,-2.0054,-2.004,-1.9507,-1.9248,-1.9254,-1.9325,-1.9381,-1.9381,-1.9408,-1.9305,-1.9319,-1.9613,-1.9733,-1.976,-2.0,-1.9866,-1.949,-1.9905,-2.0334,-2.0875,-2.1026,-2.1037,-2.1115,-2.0989,-2.1015,-2.1042,-2.1042,-2.1069,-2.1109,-2.1136,-2.1122,-2.1122,-2.1142,-1.772,-1.0963,-1.0718,-1.0596,-1.046,-1.046,-1.0446,-1.0412,-1.0582,-1.067,-1.0498,-1.0663,-1.0663,-1.0733,-1.0713,-1.0699,-1.0699,-1.0548,-1.0595,-1.0649,-1.0656,-1.0656,-1.0656,-1.0656,-1.0656,-1.0656,-1.0677,-1.0622,-1.048,-1.0582,-1.0656,-1.0656,-1.0643,-1.0663,-1.0656,-1.0677,-1.069,-1.0704,-1.0826,-1.0914,-1.0928,-1.1029,-1.102,-1.1021,-1.0933,-1.0586,-0.9976,-0.9613,-0.7064,-0.314,-0.0,-0.0,-0.0,-0.0,-0.0,-0.0,-0.0,-0.0,-0.0,-0.0,-0.0,-0.0,-0.0,-0.0,-0.0,-0.0,-0.0,-0.0,-0.0,-0.0,-0.0,-0.0,-0.0,-0.0,-0.0,-0.0,-0.0,-0.0,-0.0,-2.0708,-2.0708,-2.0708,-2.0708,-2.0708,-2.0022,-1.9949,-2.0315,-2.104,-2.0766,-1.992,-1.9787,-1.984,-1.9853,-1.9973,-2.0027,-2.004,-2.0174,-2.0051,-1.9911,-2.006,-2.0491,-2.1034,-2.1061,-2.1115,-2.1096,-2.1109,-2.1109,-2.1109,-2.1109,-2.1109,-2.1109,-2.1109,-2.1149,-2.1115,-2.112,-1.8559,-1.3657,-1.1627,-1.0706,-1.0616,-1.0616,-1.0616,-1.0616,-1.069,-1.0717,-1.0717,-1.0717,-1.0717,-1.0717,-1.0717,-1.0717,-1.0717,-1.0717,-1.0717,-1.0717,-1.0717,-1.0717,-1.0717,-1.0717,-1.0717,-1.0717,-1.0717,-1.069,-1.0622,-1.0677,-1.0717,-1.0717,-1.0717,-1.0758,-1.0833,-1.0846,-1.0873,-1.0955,-1.1029,-1.1097,-1.1179,-1.1253,-1.1375,-1.0824,-0.7395,-0.4962,-0.4861,-0.4951,-0.4114,-0.0,-0.0,-0.0,-0.0,-0.0,-0.0,-0.0,-0.0,-0.0,-0.0,-0.0,-0.0,-0.0,-0.0,-0.0,-0.0,-0.0,-0.0,-0.0,-0.0,-0.0,-0.0,-0.0,-0.0,-0.0,-0.0,-0.0,-0.0,-0.0,-0.0,-2.1243,-2.1309,-2.1309,-2.1309,-2.1296,-2.0873,-2.0913,-2.1545,-2.2496,-2.2088,-2.0889,-2.0628,-2.0563,-2.0441,-2.0494,-2.0535,-2.0535,-2.0535,-2.042,-2.038,-2.0414,-2.0645,-2.1036,-2.1149,-2.1109,-2.1109,-2.1109,-2.1109,-2.1109,-2.1109,-2.1122,-2.1022,-2.1036,-2.1102,-2.112,-1.9524,-1.738,-1.4697,-1.2088,-1.0774,-1.0717,-1.0717,-1.0717,-1.0717,-1.0717,-1.0717,-1.0717,-1.0717,-1.0717,-1.0717,-1.0717,-1.0717,-1.0717,-1.0717,-1.0717,-1.0717,-1.0717,-1.0717,-1.0717,-1.0717,-1.0738,-1.0772,-1.0772,-1.0785,-1.0812,-1.0819,-1.0806,-1.0778,-1.0812,-1.0873,-1.0975,-1.0995,-1.1043,-1.1151,-1.1233,-1.1314,-1.1423,-1.166,-1.166,-1.0663,-0.537,-0.1354,-0.0,-0.0,-0.0,-0.0,-0.0,-0.0,-0.0,-0.0,-0.0,-0.0,-0.0,-0.0,-0.0,-0.0,-0.0,-0.0,-0.0,-0.0,-0.0,-0.0,-0.0,-0.0,-0.0,-0.0,-0.0,-0.0,-0.0,-0.0,-0.0,-0.0,-0.0,-0.0,-0.0,-2.167,-2.1884,-2.1884,-2.1911,-2.1897,-2.1897,-2.219,-2.2685,-2.2918,-2.28,-2.2563,-2.2112,-2.1475,-2.1069,-2.1296,-2.1403,-2.1403,-2.143,-2.1265,-2.1006,-2.1027,-2.1089,-2.1044,-2.1089,-2.1109,-2.1122,-2.1109,-2.1109,-2.1109,-2.0969,-2.1049,-2.1041,-2.1054,-2.085,-2.027,-1.4808,-1.159,-1.1272,-1.0864,-1.0774,-1.0711,-1.0717,-1.0717,-1.0717,-1.0717,-1.0717,-1.0717,-1.0717,-1.0717,-1.0717,-1.0717,-1.0717,-1.0717,-1.0717,-1.0717,-1.0717,-1.0724,-1.0717,-1.0724,-1.0717,-1.0785,-1.0914,-1.0928,-1.0982,-1.109,-1.1118,-1.1063,-1.0982,-1.105,-1.1104,-1.1145,-1.1151,-1.1172,-1.1233,-1.1443,-1.1586,-1.1653,-1.1843,-1.1985,-1.2011,-0.7774,-0.3922,-0.0,-0.0,-0.0,-0.0,-0.0,-0.0,-0.0,-0.0,-0.0,-0.0,-0.0,-0.0,-0.0,-0.0,-0.0,-0.0,-0.0,-0.0,-0.0,-0.0,-0.0,-0.0,-0.0,-0.0,-0.0,-0.0,-0.0,-0.0,-0.0,-0.0,-0.0,-0.0,-0.0,-2.1871,-2.2004,-2.2164,-2.2352,-2.2485,-2.2512,-2.2714,-2.2821,-2.2863,-2.2876,-2.293,-2.2592,-2.2241,-2.1643,-2.175,-2.1804,-2.1804,-2.1804,-2.1569,-2.1214,-2.1437,-2.141,-2.1176,-2.107,-2.108,-2.1067,-2.1062,-2.1109,-2.0969,-2.0068,-2.0017,-2.0785,-1.9157,-1.7023,-1.4903,-1.2165,-1.0726,-1.0663,-1.067,-1.069,-1.0717,-1.0717,-1.0717,-1.0717,-1.0717,-1.0717,-1.0717,-1.0717,-1.0717,-1.0717,-1.0717,-1.0717,-1.0717,-1.0717,-1.0717,-1.0724,-1.0806,-1.0894,-1.0975,-1.0982,-1.1009,-1.107,-1.1077,-1.1104,-1.102,-1.124,-1.1267,-1.1219,-1.1185,-1.1192,-1.1294,-1.1375,-1.1463,-1.1579,-1.183,-1.2047,-1.2142,-1.2325,-1.2414,-1.2007,-0.8641,-0.4486,-0.0,-0.0,-0.0,-0.0,-0.0,-0.0,-0.0,-0.0,-0.0,-0.0,-0.0,-0.0,-0.0,-0.0,-0.0,-0.0,-0.0,-0.0,-0.0,-0.0,-0.0,-0.0,-0.0,-0.0,-0.0,-0.0,-0.0,-0.0,-0.0,-0.0,-0.0,-0.0,-0.0,-2.2164,-2.2258,-2.2458,-2.2672,-2.2859,-2.2859,-2.2859,-2.2859,-2.2859,-2.2859,-2.2859,-2.2859,-2.2632,-2.2271,-2.2231,-2.2231,-2.2218,-2.2138,-2.1992,-2.1593,-2.1912,-2.1872,-2.1608,-2.1646,-2.1514,-2.1331,-2.1235,-2.1229,-2.1115,-2.0143,-1.9419,-1.9066,-1.7032,-1.4191,-1.1094,-1.0697,-1.0704,-1.0717,-1.0717,-1.0717,-1.0717,-1.0717,-1.0717,-1.0717,-1.0717,-1.0717,-1.0717,-1.0717,-1.0717,-1.0717,-1.0758,-1.0785,-1.0792,-1.0819,-1.0839,-1.0853,-1.0941,-1.105,-1.1158,-1.1165,-1.1179,-1.1219,-1.1226,-1.124,-1.1161,-1.1423,-1.1504,-1.1511,-1.1484,-1.1525,-1.1504,-1.1647,-1.1796,-1.1952,-1.223,-1.2454,-1.2542,-1.2698,-1.2702,-1.2236,-0.8954,-0.4727,-0.0,-0.0,-0.0,-0.0,-0.0,-0.0,-0.0,-0.0,-0.0,-0.0,-0.0,-0.0,-0.0,-0.0,-0.0,-0.0,-0.0,-0.0,-0.0,-0.0,-0.0,-0.0,-0.0,-0.0,-0.0,-0.0,-0.0,-0.0,-0.0,-0.0,-0.0,-0.0,-0.0,-2.2565,-2.2792,-2.2832,-2.2832,-2.2859,-2.2859,-2.2859,-2.2859,-2.2859,-2.2859,-2.2859,-2.2859,-2.2846,-2.2792,-2.2766,-2.2806,-2.2766,-2.2512,-2.2539,-2.2686,-2.2258,-2.2297,-2.2821,-2.2855,-2.2558,-2.1951,-2.167,-2.1537,-2.155,-2.166,-1.9459,-1.5366,-1.5519,-1.4127,-1.1198,-1.0779,-1.0725,-1.0765,-1.0751,-1.0738,-1.0731,-1.0731,-1.0738,-1.0744,-1.0717,-1.0724,-1.0724,-1.0724,-1.0724,-1.0724,-1.1008,-1.1219,-1.1226,-1.12,-1.1124,-1.1138,-1.1145,-1.1158,-1.1179,-1.1192,-1.1246,-1.1362,-1.1409,-1.145,-1.1469,-1.1748,-1.183,-1.1823,-1.204,-1.2081,-1.1898,-1.1986,-1.2115,-1.2264,-1.2535,-1.2698,-1.2725,-1.2888,-1.3037,-1.2376,-0.8743,-0.4298,-0.0,-0.0,-0.0,-0.0,-0.0,-0.0,-0.0,-0.0,-0.0,-0.0,-0.0,-0.0,-0.0,-0.0,-0.0,-0.0,-0.0,-0.0,-0.0,-0.0,-0.0,-0.0,-0.0,-0.0,-0.0,-0.0,-0.0,-0.0,-0.0,-0.0,-0.0,-0.0,-0.0,-2.2766,-2.2859,-2.2859,-2.2859,-2.2859,-2.2859,-2.2859,-2.2859,-2.2859,-2.2859,-2.2859,-2.2859,-2.2859,-2.2859,-2.2859,-2.2859,-2.2859,-2.2752,-2.2766,-2.2832,-2.2632,-2.2741,-2.2821,-2.2862,-2.2859,-2.2525,-2.2254,-2.1975,-2.1713,-2.0857,-2.0123,-1.8787,-1.4891,-1.2263,-1.1439,-1.092,-1.0776,-1.1009,-1.1002,-1.1002,-1.0995,-1.1002,-1.1002,-1.0995,-1.0812,-1.0765,-1.0725,-1.0732,-1.0766,-1.0717,-1.1056,-1.1228,-1.1372,-1.1276,-1.1206,-1.1294,-1.1307,-1.1348,-1.1436,-1.1457,-1.1518,-1.166,-1.1769,-1.1717,-1.1729,-1.2018,-1.2264,-1.2595,-1.2498,-1.2386,-1.2433,-1.2461,-1.2508,-1.2596,-1.2834,-1.301,-1.3044,-1.3166,-1.3315,-1.2216,-0.7183,-0.1674,-0.0,-0.0,-0.0,-0.0,-0.0,-0.0,-0.0,-0.0,-0.0,-0.0,-0.0,-0.0,-0.0,-0.0,-0.0,-0.0,-0.0,-0.0,-0.0,-0.0,-0.0,-0.0,-0.0,-0.0,-0.0,-0.0,-0.0,-0.0,-0.0,-0.0,-0.0,-0.0,-0.0,-2.2859,-2.2859,-2.2859,-2.2859,-2.2859,-2.2859,-2.2859,-2.2859,-2.2859,-2.2859,-2.2859,-2.2859,-2.2859,-2.2859,-2.2859,-2.2859,-2.2859,-2.2859,-2.2859,-2.2859,-2.2916,-2.2916,-2.2929,-2.2916,-2.2848,-2.2822,-2.2673,-2.2378,-2.2018,-2.099,-2.0956,-2.1044,-1.6823,-1.37,-1.1978,-1.1192,-1.108,-1.1324,-1.1497,-1.1379,-1.124,-1.1287,-1.1307,-1.1274,-1.1063,-1.0819,-1.0743,-1.0879,-1.092,-1.1013,-1.1206,-1.1406,-1.1587,-1.1454,-1.1355,-1.145,-1.1463,-1.1504,-1.1599,-1.1619,-1.1681,-1.1823,-1.1965,-1.1971,-1.1967,-1.2306,-1.2725,-1.2908,-1.2841,-1.2766,-1.2854,-1.2915,-1.2922,-1.2915,-1.3098,-1.3247,-1.3254,-1.3356,-1.2586,-1.0414,-0.4703,-0.0,-0.0,-0.0,-0.0,-0.0,-0.0,-0.0,-0.0,-0.0,-0.0,-0.0,-0.0,-0.0,-0.0,-0.0,-0.0,-0.0,-0.0,-0.0,-0.0,-0.0,-0.0,-0.0,-0.0,-0.0,-0.0,-0.0,-0.0,-0.0,-0.0,-0.0,-0.0,-0.0,-0.0,-2.2859,-2.2859,-2.2859,-2.2859,-2.2859,-2.2859,-2.2859,-2.2859,-2.2859,-2.2846,-2.2806,-2.2832,-2.2792,-2.2806,-2.2752,-2.2806,-2.2779,-2.2766,-2.2806,-2.2832,-2.289,-2.289,-2.2766,-2.2873,-2.29,-2.2902,-2.2819,-2.2672,-2.2445,-2.2374,-2.1945,-2.0918,-2.1685,-1.8369,-1.1831,-1.179,-1.1629,-1.1727,-1.1818,-1.1861,-1.1416,-1.1552,-1.1619,-1.1606,-1.147,-1.1341,-1.106,-1.1179,-1.1317,-1.149,-1.1608,-1.1605,-1.1565,-1.1579,-1.1599,-1.1599,-1.1613,-1.1626,-1.1626,-1.1647,-1.1735,-1.1877,-1.2006,-1.2203,-1.2546,-1.2623,-1.2944,-1.331,-1.3318,-1.3152,-1.3173,-1.3261,-1.3288,-1.3214,-1.3295,-1.337,-1.3383,-1.3397,-1.1558,-0.7212,-0.0,-0.0,-0.0,-0.0,-0.0,-0.0,-0.0,-0.0,-0.0,-0.0,-0.0,-0.0,-0.0,-0.0,-0.0,-0.0,-0.0,-0.0,-0.0,-0.0,-0.0,-0.0,-0.0,-0.0,-0.0,-0.0,-0.0,-0.0,-0.0,-0.0,-0.0,-0.0,-0.0,-0.0,-0.0,-2.2859,-2.2859,-2.2859,-2.2859,-2.2859,-2.2859,-2.2859,-2.2859,-2.2859,-2.2603,-2.2281,-2.2255,-2.2297,-2.2285,-2.2258,-2.2271,-2.2258,-2.2271,-2.2472,-2.2889,-2.2849,-2.2458,-2.2002,-2.2471,-2.2937,-2.2809,-2.27,-2.2619,-2.2712,-2.2806,-2.2585,-2.2225,-2.251,-2.0368,-1.547,-1.2956,-1.1708,-1.1935,-1.1983,-1.2004,-1.1857,-1.1898,-1.1925,-1.1918,-1.187,-1.183,-1.1769,-1.1342,-1.1382,-1.1612,-1.1667,-1.1572,-1.1613,-1.1619,-1.1619,-1.1633,-1.1714,-1.1769,-1.1775,-1.1864,-1.1986,-1.2155,-1.2372,-1.2583,-1.2917,-1.301,-1.3166,-1.3349,-1.3281,-1.3329,-1.3336,-1.337,-1.3376,-1.3336,-1.3376,-1.341,-1.3431,-1.3458,-0.9771,-0.3555,-0.085,-0.0,-0.0,-0.0,-0.0,-0.0,-0.0,-0.0,-0.0,-0.0,-0.0,-0.0,-0.0,-0.0,-0.0,-0.0,-0.0,-0.0,-0.0,-0.0,-0.0,-0.0,-0.0,-0.0,-0.0,-0.0,-0.0,-0.0,-0.0,-0.0,-0.0,-0.0,-0.0,-0.0,-0.0,-2.2859,-2.2859,-2.2859,-2.2859,-2.2859,-2.2859,-2.2859,-2.2846,-2.2902,-2.2592,-2.211,-2.171,-2.1846,-2.2004,-2.1991,-2.1991,-2.1991,-2.1991,-2.2178,-2.2593,-2.2832,-2.2205,-2.1309,-2.1792,-2.223,-2.2284,-2.2325,-2.2512,-2.2699,-2.2819,-2.2638,-2.2077,-2.2512,-2.0924,-1.73,-1.3814,-1.212,-1.221,-1.2265,-1.2149,-1.2162,-1.2203,-1.2223,-1.2216,-1.2176,-1.2149,-1.2121,-1.1816,-1.1536,-1.1603,-1.159,-1.1576,-1.1769,-1.1742,-1.1721,-1.1789,-1.1857,-1.1918,-1.1932,-1.2054,-1.221,-1.2386,-1.2644,-1.2874,-1.3044,-1.3275,-1.339,-1.3397,-1.3397,-1.3397,-1.3397,-1.3397,-1.3397,-1.3397,-1.3458,-1.3505,-1.3553,-1.3452,-1.0408,-0.4625,-0.1203,-0.0,-0.0,-0.0,-0.0,-0.0,-0.0,-0.0,-0.0,-0.0,-0.0,-0.0,-0.0,-0.0,-0.0,-0.0,-0.0,-0.0,-0.0,-0.0,-0.0,-0.0,-0.0,-0.0,-0.0,-0.0,-0.0,-0.0,-0.0,-0.0,-0.0,-0.0,-0.0,-0.0,-0.0,-2.2859,-2.2859,-2.2846,-2.2819,-2.2806,-2.2929,-2.2889,-2.2889,-2.2836,-2.2512,-2.1965,-2.1317,-2.1477,-2.1911,-2.1844,-2.1844,-2.1911,-2.1871,-2.1857,-2.2015,-2.2298,-2.2092,-2.1541,-2.1395,-2.1345,-2.1319,-2.1939,-2.2365,-2.2485,-2.2739,-2.2164,-2.1132,-2.1685,-2.0908,-1.7262,-1.4019,-1.2393,-1.2449,-1.2553,-1.2457,-1.2305,-1.2413,-1.2481,-1.2474,-1.2366,-1.2298,-1.2271,-1.2142,-1.1904,-1.1735,-1.1757,-1.1898,-1.1993,-1.1918,-1.1904,-1.202,-1.206,-1.2074,-1.2108,-1.2244,-1.2386,-1.2522,-1.2793,-1.3024,-1.3152,-1.3295,-1.3397,-1.3397,-1.3397,-1.3397,-1.3397,-1.3397,-1.341,-1.3451,-1.3546,-1.3654,-1.381,-1.3528,-1.1274,-0.745,-0.0,-0.0,-0.0,-0.0,-0.0,-0.0,-0.0,-0.0,-0.0,-0.0,-0.0,-0.0,-0.0,-0.0,-0.0,-0.0,-0.0,-0.0,-0.0,-0.0,-0.0,-0.0,-0.0,-0.0,-0.0,-0.0,-0.0,-0.0,-0.0,-0.0,-0.0,-0.0,-0.0,-0.0,-0.0,-2.2859,-2.2832,-2.2619,-2.2539,-2.2512,-2.278,-2.2832,-2.2818,-2.2896,-2.2281,-2.1503,-2.1124,-2.1136,-2.1363,-2.1363,-2.1336,-2.1146,-2.1261,-2.1336,-2.1336,-2.1424,-2.2016,-2.2153,-2.1483,-2.1096,-2.1149,-2.1516,-2.2004,-2.2418,-2.244,-2.2454,-2.246,-2.029,-1.8895,-1.7102,-1.4176,-1.2595,-1.2532,-1.2567,-1.244,-1.2447,-1.2474,-1.2501,-1.2494,-1.2461,-1.244,-1.2447,-1.2406,-1.2429,-1.223,-1.2331,-1.2168,-1.2067,-1.2026,-1.2033,-1.2088,-1.2182,-1.2237,-1.2284,-1.2474,-1.2623,-1.2684,-1.2949,-1.3132,-1.3166,-1.3315,-1.339,-1.3397,-1.3397,-1.3397,-1.3397,-1.3397,-1.3485,-1.3675,-1.3675,-1.3709,-1.3686,-1.3747,-1.3102,-1.1084,-0.4571,-0.0,-0.0,-0.0,-0.0,-0.0,-0.0,-0.0,-0.0,-0.0,-0.0,-0.0,-0.0,-0.0,-0.0,-0.0,-0.0,-0.0,-0.0,-0.0,-0.0,-0.0,-0.0,-0.0,-0.0,-0.0,-0.0,-0.0,-0.0,-0.0,-0.0,-0.0,-0.0,-0.0,-0.0,-2.2498,-2.2485,-2.2311,-2.2231,-2.2218,-2.2362,-2.2572,-2.2413,-2.2277,-2.1724,-2.1278,-2.1407,-2.0928,-2.0131,-2.0244,-1.9764,-1.9232,-1.909,-1.9838,-2.1137,-2.1163,-2.1461,-2.1883,-2.1496,-2.154,-2.1306,-2.0899,-2.0889,-2.1044,-2.0759,-2.0239,-1.99,-2.0195,-1.8653,-1.5211,-1.3733,-1.2567,-1.2481,-1.2501,-1.2501,-1.2501,-1.2501,-1.2501,-1.2501,-1.2501,-1.2501,-1.2501,-1.2501,-1.2567,-1.2429,-1.2512,-1.2491,-1.2237,-1.2189,-1.2189,-1.2237,-1.2386,-1.2481,-1.2528,-1.2745,-1.2901,-1.2956,-1.3146,-1.3247,-1.3281,-1.3356,-1.3397,-1.3397,-1.3397,-1.3397,-1.3397,-1.3397,-1.3546,-1.3756,-1.377,-1.3817,-1.3854,-1.1969,-1.1127,-0.9048,-0.0,-0.0,-0.0,-0.0,-0.0,-0.0,-0.0,-0.0,-0.0,-0.0,-0.0,-0.0,-0.0,-0.0,-0.0,-0.0,-0.0,-0.0,-0.0,-0.0,-0.0,-0.0,-0.0,-0.0,-0.0,-0.0,-0.0,-0.0,-0.0,-0.0,-0.0,-0.0,-0.0,-0.0,-0.0,-2.1991,-2.1991,-2.1951,-2.1937,-2.1937,-2.1911,-2.1884,-2.1766,-2.1437,-2.0916,-2.0526,-2.1085,-1.9899,-1.8553,-1.8703,-1.8039,-1.655,-1.6902,-1.825,-1.9417,-1.9709,-1.9276,-1.9245,-2.0472,-2.0705,-2.0775,-1.9792,-1.9321,-1.9164,-1.7972,-1.6891,-1.7378,-2.075,-1.9372,-1.5328,-1.3091,-1.2501,-1.2494,-1.2501,-1.2501,-1.2501,-1.2501,-1.2501,-1.2501,-1.2501,-1.2501,-1.2501,-1.2501,-1.2481,-1.2494,-1.2532,-1.2532,-1.2461,-1.2366,-1.2386,-1.2494,-1.261,-1.2698,-1.2779,-1.2983,-1.3152,-1.3166,-1.3288,-1.3397,-1.3383,-1.3397,-1.3397,-1.3397,-1.3397,-1.3397,-1.3397,-1.3397,-1.3526,-1.3736,-1.3804,-1.3973,-1.3481,-1.0357,-0.751,-0.6255,-0.2328,-0.0,-0.0,-0.0,-0.0,-0.0,-0.0,-0.0,-0.0,-0.0,-0.0,-0.0,-0.0,-0.0,-0.0,-0.0,-0.0,-0.0,-0.0,-0.0,-0.0,-0.0,-0.0,-0.0,-0.0,-0.0,-0.0,-0.0,-0.0,-0.0,-0.0,-0.0,-0.0,-0.0,-0.0,-2.1991,-2.1964,-2.1737,-2.1643,-2.1603,-2.1403,-2.1252,-2.128,-2.1071,-1.9328,-1.7817,-1.7572,-1.7304,-1.6913,-1.6985,-1.6705,-1.6205,-1.6069,-1.6881,-1.6891,-1.46,-1.3754,-1.4485,-1.6807,-1.816,-1.7992,-1.7453,-1.7161,-1.72,-1.7017,-1.7096,-1.7404,-1.797,-1.8901,-1.6954,-1.3677,-1.2501,-1.2501,-1.2501,-1.2501,-1.2501,-1.2501,-1.2501,-1.2501,-1.2501,-1.2501,-1.2501,-1.2501,-1.2501,-1.2494,-1.2474,-1.2461,-1.2481,-1.2467,-1.2515,-1.2637,-1.2705,-1.2786,-1.2915,-1.3071,-1.318,-1.3207,-1.3315,-1.3397,-1.3397,-1.3397,-1.3397,-1.3397,-1.3397,-1.3397,-1.3397,-1.3397,-1.3498,-1.3654,-1.3777,-1.3905,-1.3921,-1.3205,-0.9669,-0.3936,-0.0,-0.0,-0.0,-0.0,-0.0,-0.0,-0.0,-0.0,-0.0,-0.0,-0.0,-0.0,-0.0,-0.0,-0.0,-0.0,-0.0,-0.0,-0.0,-0.0,-0.0,-0.0,-0.0,-0.0,-0.0,-0.0,-0.0,-0.0,-0.0,-0.0,-0.0,-0.0,-0.0,-0.0,-0.0,-2.1577,-2.1563,-2.1403,-2.0902,-2.0462,-2.0812,-2.1137,-2.046,-1.7752,-1.5701,-1.4432,-1.4087,-1.4591,-1.5247,-1.533,-1.5108,-1.4275,-1.4136,-1.4145,-1.3874,-1.2352,-1.179,-1.1783,-1.3308,-1.4536,-1.4733,-1.521,-1.558,-1.5551,-1.5088,-1.4534,-1.4839,-1.5276,-1.5266,-1.5702,-1.3565,-1.2699,-1.2574,-1.2474,-1.2501,-1.2501,-1.2501,-1.2501,-1.2501,-1.2501,-1.2501,-1.2501,-1.2501,-1.2501,-1.2501,-1.2501,-1.2501,-1.2501,-1.2508,-1.2583,-1.2705,-1.2813,-1.2901,-1.3051,-1.3186,-1.3281,-1.3275,-1.3363,-1.3383,-1.3397,-1.3397,-1.3397,-1.3397,-1.3397,-1.3397,-1.3397,-1.3397,-1.3478,-1.36,-1.3695,-1.3831,-1.4048,-1.4088,-1.1671,-0.4829,-0.0,-0.0,-0.0,-0.0,-0.0,-0.0,-0.0,-0.0,-0.0,-0.0,-0.0,-0.0,-0.0,-0.0,-0.0,-0.0,-0.0,-0.0,-0.0,-0.0,-0.0,-0.0,-0.0,-0.0,-0.0,-0.0,-0.0,-0.0,-0.0,-0.0,-0.0,-0.0,-0.0,-0.0,-0.0,-2.0742,-2.0654,-2.04,-1.9512,-1.8684,-1.9735,-2.0123,-1.9434,-1.4222,-1.2278,-1.161,-1.1586,-1.2711,-1.3512,-1.3782,-1.3016,-1.2173,-1.1879,-1.213,-1.1987,-1.1844,-1.1565,-1.1708,-1.198,-1.223,-1.1847,-1.3193,-1.3839,-1.3571,-1.2617,-1.2381,-1.1928,-1.183,-1.2514,-1.2494,-1.2361,-1.2311,-1.2484,-1.244,-1.2501,-1.2501,-1.2501,-1.2501,-1.2501,-1.2501,-1.2501,-1.2501,-1.2501,-1.2501,-1.2501,-1.2501,-1.2501,-1.2508,-1.2535,-1.2603,-1.2759,-1.2908,-1.3057,-1.3186,-1.3308,-1.3383,-1.3397,-1.3397,-1.3397,-1.3397,-1.3397,-1.3397,-1.3397,-1.3397,-1.3397,-1.3397,-1.3397,-1.3458,-1.3559,-1.3607,-1.3763,-1.3994,-1.4055,-1.1793,-0.7335,-0.0,-0.0,-0.0,-0.0,-0.0,-0.0,-0.0,-0.0,-0.0,-0.0,-0.0,-0.0,-0.0,-0.0,-0.0,-0.0,-0.0,-0.0,-0.0,-0.0,-0.0,-0.0,-0.0,-0.0,-0.0,-0.0,-0.0,-0.0,-0.0,-0.0,-0.0,-0.0,-0.0,-0.0,-0.0,-1.9028,-1.8971,-1.7522,-1.6849,-1.6778,-1.7078,-1.7287,-1.656,-1.3221,-1.1615,-1.1619,-1.1667,-1.181,-1.2144,-1.2015,-1.19,-1.1619,-1.1619,-1.1619,-1.1619,-1.1619,-1.1619,-1.1619,-1.1619,-1.1592,-1.1592,-1.218,-1.2323,-1.218,-1.1763,-1.164,-1.1681,-1.1616,-1.1697,-1.1777,-1.1815,-1.2092,-1.2416,-1.2546,-1.2474,-1.2481,-1.2494,-1.2501,-1.2501,-1.2501,-1.2501,-1.2501,-1.2501,-1.2501,-1.2501,-1.2501,-1.2501,-1.2528,-1.261,-1.2745,-1.2888,-1.3017,-1.3152,-1.3315,-1.337,-1.3397,-1.3397,-1.3397,-1.3397,-1.3397,-1.3397,-1.3397,-1.3397,-1.3397,-1.3397,-1.3397,-1.3397,-1.3403,-1.3464,-1.3553,-1.3682,-1.3871,-1.3713,-1.2267,-0.7659,-0.0,-0.0,-0.0,-0.0,-0.0,-0.0,-0.0,-0.0,-0.0,-0.0,-0.0,-0.0,-0.0,-0.0,-0.0,-0.0,-0.0,-0.0,-0.0,-0.0,-0.0,-0.0,-0.0,-0.0,-0.0,-0.0,-0.0,-0.0,-0.0,-0.0,-0.0,-0.0,-0.0,-0.0,-0.0,-1.8199,-1.7486,-1.6552,-1.5875,-1.5375,-1.6128,-1.5441,-1.3782,-1.2328,-1.1653,-1.1592,-1.1619,-1.1619,-1.1619,-1.1619,-1.1619,-1.1619,-1.1619,-1.1619,-1.1619,-1.1619,-1.1619,-1.1619,-1.1619,-1.1619,-1.1619,-1.1619,-1.1619,-1.1619,-1.1619,-1.1619,-1.1633,-1.1549,-1.1569,-1.161,-1.1623,-1.1898,-1.2407,-1.2422,-1.2553,-1.2567,-1.2454,-1.2501,-1.2501,-1.2501,-1.2501,-1.2501,-1.2501,-1.2501,-1.2501,-1.2501,-1.2501,-1.2542,-1.2644,-1.28,-1.2942,-1.3037,-1.3173,-1.3349,-1.3397,-1.3397,-1.3397,-1.3397,-1.3397,-1.3397,-1.3397,-1.3397,-1.3397,-1.3397,-1.3397,-1.3397,-1.3397,-1.3397,-1.341,-1.3478,-1.358,-1.3736,-1.3939,-1.1434,-0.7806,-0.0,-0.0,-0.0,-0.0,-0.0,-0.0,-0.0,-0.0,-0.0,-0.0,-0.0,-0.0,-0.0,-0.0,-0.0,-0.0,-0.0,-0.0,-0.0,-0.0,-0.0,-0.0,-0.0,-0.0,-0.0,-0.0,-0.0,-0.0,-0.0,-0.0,-0.0,-0.0,-0.0,-0.0,-0.0,-1.6984,-1.5827,-1.5564,-1.4724,-1.3792,-1.485,-1.394,-1.1893,-1.1613,-1.1606,-1.1619,-1.1619,-1.1619,-1.1619,-1.1619,-1.1619,-1.1619,-1.1619,-1.1619,-1.1619,-1.1619,-1.1619,-1.1619,-1.1619,-1.1619,-1.1619,-1.1619,-1.1619,-1.1619,-1.1619,-1.1619,-1.1619,-1.1619,-1.1619,-1.1667,-1.165,-1.1962,-1.222,-1.2244,-1.2395,-1.2471,-1.242,-1.2501,-1.2501,-1.2501,-1.2501,-1.2501,-1.2501,-1.2501,-1.2501,-1.2501,-1.2501,-1.2528,-1.2651,-1.28,-1.2929,-1.2983,-1.3152,-1.3315,-1.3397,-1.3397,-1.3397,-1.3397,-1.3397,-1.3397,-1.3397,-1.3397,-1.3397,-1.3397,-1.3397,-1.3397,-1.3397,-1.3397,-1.3403,-1.341,-1.3471,-1.3654,-1.3502,-1.2619,-0.8477,-0.3383,-0.0,-0.0,-0.0,-0.0,-0.0,-0.0,-0.0,-0.0,-0.0,-0.0,-0.0,-0.0,-0.0,-0.0,-0.0,-0.0,-0.0,-0.0,-0.0,-0.0,-0.0,-0.0,-0.0,-0.0,-0.0,-0.0,-0.0,-0.0,-0.0,-0.0,-0.0,-0.0,-0.0,-0.0,-1.4362,-1.4128,-1.2602,-1.1875,-1.2001,-1.2302,-1.2029,-1.1613,-1.1619,-1.1619,-1.1619,-1.1619,-1.1619,-1.1619,-1.1619,-1.1619,-1.1619,-1.1619,-1.1619,-1.1619,-1.1619,-1.1619,-1.1619,-1.1619,-1.1619,-1.1619,-1.1619,-1.1619,-1.1619,-1.1619,-1.1619,-1.1619,-1.1619,-1.1619,-1.1633,-1.1583,-1.1677,-1.171,-1.1696,-1.1992,-1.2284,-1.242,-1.2474,-1.2501,-1.2501,-1.2501,-1.2501,-1.2501,-1.2501,-1.2501,-1.2501,-1.2501,-1.2528,-1.2644,-1.28,-1.2942,-1.3078,-1.322,-1.3363,-1.3397,-1.3397,-1.3397,-1.3397,-1.3397,-1.3397,-1.3397,-1.3397,-1.3397,-1.3397,-1.3397,-1.3397,-1.3397,-1.3397,-1.3397,-1.3403,-1.3492,-1.3465,-1.1675,-1.0956,-0.9145,-0.3902,-0.0,-0.0,-0.0,-0.0,-0.0,-0.0,-0.0,-0.0,-0.0,-0.0,-0.0,-0.0,-0.0,-0.0,-0.0,-0.0,-0.0,-0.0,-0.0,-0.0,-0.0,-0.0,-0.0,-0.0,-0.0,-0.0,-0.0,-0.0,-0.0,-0.0,-0.0,-0.0,-0.0,-0.0,-1.2403,-1.2641,-1.1803,-1.1558,-1.1613,-1.1619,-1.1619,-1.1619,-1.1619,-1.1619,-1.1619,-1.1619,-1.1619,-1.1619,-1.1619,-1.1619,-1.1619,-1.1619,-1.1619,-1.1619,-1.1619,-1.1619,-1.1619,-1.1619,-1.1619,-1.1619,-1.1619,-1.1619,-1.1619,-1.1619,-1.1619,-1.1619,-1.1619,-1.1619,-1.1619,-1.1536,-1.1556,-1.1603,-1.171,-1.1898,-1.2237,-1.2352,-1.242,-1.2494,-1.2494,-1.2501,-1.2501,-1.2501,-1.2501,-1.2501,-1.2501,-1.2501,-1.2535,-1.2644,-1.28,-1.2949,-1.3091,-1.3234,-1.337,-1.3397,-1.3397,-1.3397,-1.3397,-1.3397,-1.3397,-1.3397,-1.3397,-1.3397,-1.3397,-1.3397,-1.3397,-1.3397,-1.3397,-1.3397,-1.3397,-1.3437,-1.2862,-1.0243,-0.8452,-0.6634,-0.0,-0.0,-0.0,-0.0,-0.0,-0.0,-0.0,-0.0,-0.0,-0.0,-0.0,-0.0,-0.0,-0.0,-0.0,-0.0,-0.0,-0.0,-0.0,-0.0,-0.0,-0.0,-0.0,-0.0,-0.0,-0.0,-0.0,-0.0,-0.0,-0.0,-0.0,-0.0,-0.0,-0.0,-0.0,-1.1267,-1.1504,-1.1545,-1.1586,-1.1619,-1.1619,-1.1619,-1.1619,-1.1619,-1.1619,-1.1619,-1.1619,-1.1619,-1.1619,-1.1619,-1.1619,-1.1619,-1.1619,-1.1619,-1.1619,-1.1619,-1.1619,-1.1619,-1.1619,-1.1619,-1.1619,-1.1619,-1.1619,-1.1619,-1.1619,-1.1619,-1.1619,-1.1619,-1.1619,-1.1619,-1.1626,-1.164,-1.1653,-1.163,-1.1797,-1.2128,-1.225,-1.2345,-1.242,-1.2474,-1.2501,-1.2501,-1.2501,-1.2501,-1.2501,-1.2501,-1.2515,-1.2583,-1.2725,-1.2881,-1.3024,-1.3173,-1.3281,-1.337,-1.3397,-1.3397,-1.3397,-1.3397,-1.3397,-1.3397,-1.3397,-1.3397,-1.3397,-1.3397,-1.3397,-1.3397,-1.3397,-1.3397,-1.3397,-1.3397,-1.3403,-1.3105,-1.1205,-0.7529,-0.3971,-0.0,-0.0,-0.0,-0.0,-0.0,-0.0,-0.0,-0.0,-0.0,-0.0,-0.0,-0.0,-0.0,-0.0,-0.0,-0.0,-0.0,-0.0,-0.0,-0.0,-0.0,-0.0,-0.0,-0.0,-0.0,-0.0,-0.0,-0.0,-0.0,-0.0,-0.0,-0.0,-0.0,-0.0,-0.0,-1.105,-1.1206,-1.1348,-1.1484,-1.1606,-1.1619,-1.1613,-1.1619,-1.1619,-1.1619,-1.1619,-1.1619,-1.1619,-1.1619,-1.1619,-1.1619,-1.1619,-1.1619,-1.1626,-1.1626,-1.1619,-1.164,-1.1653,-1.1667,-1.1647,-1.1653,-1.166,-1.1647,-1.1619,-1.1626,-1.1619,-1.1619,-1.1619,-1.1619,-1.1619,-1.1619,-1.1619,-1.164,-1.159,-1.1663,-1.1965,-1.2115,-1.2284,-1.2338,-1.2427,-1.2501,-1.2501,-1.2501,-1.2501,-1.2501,-1.2501,-1.2542,-1.2637,-1.2786,-1.2929,-1.3078,-1.3227,-1.3322,-1.3383,-1.3397,-1.3397,-1.3397,-1.3397,-1.3397,-1.3397,-1.3397,-1.3397,-1.3397,-1.3397,-1.3397,-1.3397,-1.3397,-1.3397,-1.3397,-1.3403,-1.341,-1.3451,-1.3211,-0.9201,-0.2739,-0.0,-0.0,-0.0,-0.0,-0.0,-0.0,-0.0,-0.0,-0.0,-0.0,-0.0,-0.0,-0.0,-0.0,-0.0,-0.0,-0.0,-0.0,-0.0,-0.0,-0.0,-0.0,-0.0,-0.0,-0.0,-0.0,-0.0,-0.0,-0.0,-0.0,-0.0,-0.0,-0.0,-0.0,-0.0,-1.0894,-1.1043,-1.1185,-1.1335,-1.1477,-1.1626,-1.1531,-1.1613,-1.1619,-1.1619,-1.1619,-1.1619,-1.1619,-1.1619,-1.1619,-1.1619,-1.1619,-1.1619,-1.1667,-1.1543,-1.1536,-1.159,-1.163,-1.1809,-1.1949,-1.1843,-1.1803,-1.1748,-1.1748,-1.1694,-1.1626,-1.1619,-1.1633,-1.1619,-1.1619,-1.1619,-1.1619,-1.1626,-1.1529,-1.159,-1.187,-1.202,-1.2189,-1.2298,-1.2427,-1.2494,-1.2501,-1.2501,-1.2501,-1.2501,-1.2501,-1.2549,-1.2617,-1.2759,-1.2901,-1.3051,-1.32,-1.3308,-1.339,-1.3397,-1.3397,-1.3397,-1.3397,-1.3397,-1.3397,-1.3397,-1.3397,-1.3397,-1.3397,-1.3397,-1.3397,-1.3397,-1.3397,-1.3397,-1.3403,-1.341,-1.3451,-1.3358,-1.2577,-0.6986,-0.0,-0.0,-0.0,-0.0,-0.0,-0.0,-0.0,-0.0,-0.0,-0.0,-0.0,-0.0,-0.0,-0.0,-0.0,-0.0,-0.0,-0.0,-0.0,-0.0,-0.0,-0.0,-0.0,-0.0,-0.0,-0.0,-0.0,-0.0,-0.0,-0.0,-0.0,-0.0,-0.0,-0.0,-0.0,-1.0785,-1.0887,-1.0989,-1.1172,-1.1382,-1.1585,-1.1667,-1.1606,-1.1619,-1.1619,-1.1619,-1.1619,-1.1619,-1.1619,-1.1619,-1.166,-1.1681,-1.1708,-1.1636,-1.167,-1.1697,-1.1737,-1.1804,-1.1979,-1.2247,-1.2175,-1.1972,-1.1898,-1.1898,-1.1796,-1.1748,-1.1714,-1.1681,-1.1667,-1.1619,-1.1619,-1.1619,-1.1619,-1.1626,-1.166,-1.1782,-1.1911,-1.202,-1.2162,-1.2311,-1.2413,-1.244,-1.2461,-1.2501,-1.2501,-1.2508,-1.2528,-1.2589,-1.2684,-1.2827,-1.2983,-1.3119,-1.3241,-1.3356,-1.3397,-1.3397,-1.3397,-1.3397,-1.3397,-1.3397,-1.3397,-1.3397,-1.3397,-1.3397,-1.3397,-1.3397,-1.3397,-1.3397,-1.3397,-1.3397,-1.3403,-1.341,-1.3464,-1.3372,-0.0,-0.0,-0.0,-0.0,-0.0,-0.0,-0.0,-0.0,-0.0,-0.0,-0.0,-0.0,-0.0,-0.0,-0.0,-0.0,-0.0,-0.0,-0.0,-0.0,-0.0,-0.0,-0.0,-0.0,-0.0,-0.0,-0.0,-0.0,-0.0,-0.0,-0.0,-0.0,-0.0,-0.0,-0.0,-0.0,-1.0724,-1.0724,-1.0744,-1.0995,-1.1375,-1.1545,-1.1606,-1.1613,-1.1619,-1.1626,-1.164,-1.164,-1.1653,-1.1653,-1.1694,-1.1748,-1.1816,-1.1837,-1.1757,-1.1702,-1.1844,-1.1884,-1.1925,-1.2237,-1.24,-1.2373,-1.221,-1.206,-1.206,-1.1993,-1.1925,-1.1843,-1.165,-1.1583,-1.1626,-1.1619,-1.1619,-1.1619,-1.1619,-1.1633,-1.1681,-1.1796,-1.1884,-1.2006,-1.2196,-1.2332,-1.2553,-1.2461,-1.2494,-1.2501,-1.2501,-1.2549,-1.2487,-1.2671,-1.2834,-1.3091,-1.3132,-1.3234,-1.3376,-1.3397,-1.3397,-1.3397,-1.3397,-1.3397,-1.3397,-1.3397,-1.3397,-1.3397,-1.3397,-1.3397,-1.3397,-1.3397,-1.3397,-1.3397,-1.3397,-1.3403,-1.3403,-1.341,-1.3318,-1.2856,-0.9164,-0.0,-0.0,-0.0,-0.0,-0.0,-0.0,-0.0,-0.0,-0.0,-0.0,-0.0,-0.0,-0.0,-0.0,-0.0,-0.0,-0.0,-0.0,-0.0,-0.0,-0.0,-0.0,-0.0,-0.0,-0.0,-0.0,-0.0,-0.0,-0.0,-0.0,-0.0,-0.0,-0.0,-0.0,-1.0717,-1.0731,-1.0826,-1.1016,-1.1233,-1.1294,-1.1423,-1.1599,-1.1626,-1.1667,-1.1894,-1.1914,-1.1976,-1.1884,-1.1898,-1.1925,-1.1972,-1.1986,-1.1911,-1.2032,-1.2128,-1.2216,-1.2257,-1.2409,-1.2567,-1.2457,-1.2284,-1.221,-1.221,-1.2149,-1.2067,-1.1979,-1.1737,-1.1603,-1.1653,-1.1619,-1.1619,-1.1619,-1.1619,-1.1619,-1.164,-1.1755,-1.187,-1.1965,-1.2169,-1.2311,-1.24,-1.2467,-1.2494,-1.2501,-1.2501,-1.2535,-1.2583,-1.2596,-1.2732,-1.2963,-1.3044,-1.3152,-1.3315,-1.3397,-1.3397,-1.3397,-1.3397,-1.3397,-1.3397,-1.3397,-1.3397,-1.3397,-1.3397,-1.3397,-1.3397,-1.3397,-1.3397,-1.3397,-1.3397,-1.3397,-1.3403,-1.3403,-1.3271,-1.2111,-0.9445,-0.5069,-0.0,-0.0,-0.0,-0.0,-0.0,-0.0,-0.0,-0.0,-0.0,-0.0,-0.0,-0.0,-0.0,-0.0,-0.0,-0.0,-0.0,-0.0,-0.0,-0.0,-0.0,-0.0,-0.0,-0.0,-0.0,-0.0,-0.0,-0.0,-0.0,-0.0,-0.0,-0.0,-0.0,-1.0717,-1.0738,-1.0887,-1.1029,-1.1158,-1.1358,-1.1396,-1.1592,-1.1619,-1.1846,-1.2108,-1.2136,-1.2213,-1.2168,-1.206,-1.2115,-1.2135,-1.2142,-1.2216,-1.2179,-1.2271,-1.2345,-1.2413,-1.2574,-1.2567,-1.2461,-1.2427,-1.2366,-1.2359,-1.2271,-1.2203,-1.2121,-1.1837,-1.1596,-1.163,-1.1569,-1.1619,-1.1619,-1.1619,-1.1619,-1.164,-1.1714,-1.1823,-1.1959,-1.2121,-1.2264,-1.2393,-1.2467,-1.2501,-1.2501,-1.2501,-1.2501,-1.2501,-1.2535,-1.2637,-1.2807,-1.3017,-1.3146,-1.3336,-1.3397,-1.3397,-1.3397,-1.3397,-1.3397,-1.3397,-1.3397,-1.3397,-1.3397,-1.3397,-1.3397,-1.3397,-1.3397,-1.3397,-1.3397,-1.3397,-1.3397,-1.3397,-1.3403,-1.3244,-1.2081,-1.0753,-0.6047,-0.0,-0.0,-0.0,-0.0,-0.0,-0.0,-0.0,-0.0,-0.0,-0.0,-0.0,-0.0,-0.0,-0.0,-0.0,-0.0,-0.0,-0.0,-0.0,-0.0,-0.0,-0.0,-0.0,-0.0,-0.0,-0.0,-0.0,-0.0,-0.0,-0.0,-0.0,-0.0,-0.0,-1.0717,-1.0744,-1.0887,-1.1029,-1.1172,-1.1468,-1.1633,-1.1613,-1.1619,-1.1852,-1.2143,-1.2318,-1.2423,-1.223,-1.2094,-1.2176,-1.2277,-1.2291,-1.2366,-1.2447,-1.2427,-1.2488,-1.2488,-1.2488,-1.2481,-1.2488,-1.2481,-1.2454,-1.2488,-1.2433,-1.2372,-1.2429,-1.1971,-1.1884,-1.1784,-1.1789,-1.1681,-1.1667,-1.1626,-1.1626,-1.1633,-1.164,-1.1762,-1.1904,-1.2047,-1.2196,-1.2332,-1.244,-1.2488,-1.2501,-1.2501,-1.2501,-1.2501,-1.2501,-1.2603,-1.2773,-1.3024,-1.3214,-1.3363,-1.3397,-1.3397,-1.3397,-1.3397,-1.3397,-1.3397,-1.3397,-1.3397,-1.3397,-1.3397,-1.3397,-1.3397,-1.3397,-1.3397,-1.3397,-1.3397,-1.3397,-1.3397,-1.3403,-1.3417,-1.2765,-1.2111,-0.0,-0.0,-0.0,-0.0,-0.0,-0.0,-0.0,-0.0,-0.0,-0.0,-0.0,-0.0,-0.0,-0.0,-0.0,-0.0,-0.0,-0.0,-0.0,-0.0,-0.0,-0.0,-0.0,-0.0,-0.0,-0.0,-0.0,-0.0,-0.0,-0.0,-0.0,-0.0,-0.0,-0.0,-1.0717,-1.0738,-1.0887,-1.1029,-1.1192,-1.1443,-1.1579,-1.1619,-1.1619,-1.1755,-1.2148,-1.2452,-1.2435,-1.2359,-1.2372,-1.24,-1.242,-1.244,-1.2454,-1.2488,-1.2501,-1.2501,-1.2501,-1.2501,-1.2501,-1.2501,-1.2501,-1.2501,-1.2501,-1.2501,-1.2587,-1.2443,-1.225,-1.2176,-1.2203,-1.2178,-1.1962,-1.1742,-1.1536,-1.1626,-1.1619,-1.1619,-1.1762,-1.1932,-1.202,-1.2182,-1.2386,-1.2461,-1.2501,-1.2501,-1.2501,-1.2501,-1.2501,-1.2515,-1.2596,-1.2881,-1.3078,-1.3234,-1.3363,-1.3397,-1.339,-1.3383,-1.3397,-1.3397,-1.3397,-1.3397,-1.3397,-1.3397,-1.3397,-1.3397,-1.3397,-1.3397,-1.3397,-1.3397,-1.3397,-1.3397,-1.3397,-1.3403,-1.3417,-1.3105,-1.2284,-0.0,-0.0,-0.0,-0.0,-0.0,-0.0,-0.0,-0.0,-0.0,-0.0,-0.0,-0.0,-0.0,-0.0,-0.0,-0.0,-0.0,-0.0,-0.0,-0.0,-0.0,-0.0,-0.0,-0.0,-0.0,-0.0,-0.0,-0.0,-0.0,-0.0,-0.0,-0.0,-0.0,-0.0,-1.0758,-1.0826,-1.0975,-1.1151,-1.1355,-1.1538,-1.1619,-1.1626,-1.1529,-1.1843,-1.2054,-1.2428,-1.2443,-1.2461,-1.2481,-1.2488,-1.2488,-1.2488,-1.2494,-1.2494,-1.2501,-1.2501,-1.2501,-1.2501,-1.2501,-1.2501,-1.2501,-1.2501,-1.2501,-1.2494,-1.244,-1.2553,-1.2532,-1.2477,-1.2539,-1.2421,-1.2148,-1.1724,-1.1603,-1.1647,-1.1619,-1.1633,-1.1809,-1.1999,-1.206,-1.2237,-1.2454,-1.2494,-1.2501,-1.2501,-1.2501,-1.2501,-1.2501,-1.2508,-1.2583,-1.2827,-1.2915,-1.3044,-1.3166,-1.3275,-1.3295,-1.3329,-1.3363,-1.3397,-1.3397,-1.3397,-1.3397,-1.3397,-1.3397,-1.3397,-1.3397,-1.3397,-1.3397,-1.3397,-1.3397,-1.3397,-1.3397,-1.3397,-1.3251,-1.2938,-1.0409,-0.6546,-0.0,-0.0,-0.0,-0.0,-0.0,-0.0,-0.0,-0.0,-0.0,-0.0,-0.0,-0.0,-0.0,-0.0,-0.0,-0.0,-0.0,-0.0,-0.0,-0.0,-0.0,-0.0,-0.0,-0.0,-0.0,-0.0,-0.0,-0.0,-0.0,-0.0,-0.0,-0.0,-0.0,-1.0826,-1.0975,-1.1124,-1.1341,-1.1592,-1.1613,-1.1619,-1.164,-1.163,-1.1777,-1.2074,-1.2354,-1.2491,-1.2474,-1.2501,-1.2501,-1.2501,-1.2501,-1.2501,-1.2501,-1.2501,-1.2501,-1.2501,-1.2501,-1.2501,-1.2501,-1.2501,-1.2501,-1.2501,-1.2501,-1.2494,-1.2501,-1.2488,-1.2454,-1.2567,-1.2443,-1.2313,-1.1898,-1.1683,-1.166,-1.1633,-1.1667,-1.1762,-1.2006,-1.2115,-1.2216,-1.2427,-1.2501,-1.2501,-1.2501,-1.2501,-1.2501,-1.2501,-1.2508,-1.2603,-1.2691,-1.2779,-1.2888,-1.3024,-1.3146,-1.3166,-1.322,-1.3302,-1.3349,-1.3363,-1.339,-1.3397,-1.3397,-1.3397,-1.3397,-1.3397,-1.3397,-1.3397,-1.3397,-1.3397,-1.3397,-1.3397,-1.3403,-1.3244,-1.2759,-1.0576,-0.671,-0.0,-0.0,-0.0,-0.0,-0.0,-0.0,-0.0,-0.0,-0.0,-0.0,-0.0,-0.0,-0.0,-0.0,-0.0,-0.0,-0.0,-0.0,-0.0,-0.0,-0.0,-0.0,-0.0,-0.0,-0.0,-0.0,-0.0,-0.0,-0.0,-0.0,-0.0,-0.0,-0.0,-1.0982,-1.1124,-1.1274,-1.145,-1.1613,-1.1619,-1.1619,-1.1647,-1.1596,-1.1864,-1.2373,-1.2435,-1.2581,-1.2481,-1.2501,-1.2501,-1.2501,-1.2501,-1.2501,-1.2501,-1.2501,-1.2501,-1.2501,-1.2501,-1.2501,-1.2501,-1.2501,-1.2501,-1.2501,-1.2501,-1.2501,-1.2501,-1.2501,-1.2501,-1.2494,-1.2519,-1.2422,-1.2162,-1.1797,-1.1576,-1.1633,-1.1742,-1.1877,-1.2047,-1.2162,-1.2298,-1.2454,-1.2501,-1.2501,-1.2501,-1.2501,-1.2501,-1.2501,-1.2501,-1.2576,-1.2691,-1.2718,-1.2786,-1.2901,-1.3024,-1.3064,-1.3112,-1.3186,-1.3254,-1.3473,-1.3363,-1.3397,-1.3397,-1.3397,-1.3397,-1.3397,-1.3397,-1.3397,-1.3397,-1.3397,-1.3397,-1.3397,-1.3403,-1.341,-1.2075,-1.0404,-0.7718,-0.4865,-0.0,-0.0,-0.0,-0.0,-0.0,-0.0,-0.0,-0.0,-0.0,-0.0,-0.0,-0.0,-0.0,-0.0,-0.0,-0.0,-0.0,-0.0,-0.0,-0.0,-0.0,-0.0,-0.0,-0.0,-0.0,-0.0,-0.0,-0.0,-0.0,-0.0,-0.0,-0.0,-1.107,-1.1274,-1.143,-1.1538,-1.1606,-1.1619,-1.1619,-1.166,-1.1563,-1.1999,-1.2393,-1.2512,-1.2512,-1.2494,-1.2501,-1.2501,-1.2501,-1.2501,-1.2501,-1.2501,-1.2501,-1.2501,-1.2501,-1.2501,-1.2501,-1.2501,-1.2501,-1.2501,-1.2501,-1.2501,-1.2501,-1.2501,-1.2501,-1.2501,-1.2488,-1.2567,-1.2464,-1.2333,-1.1999,-1.169,-1.1681,-1.1769,-1.1904,-1.206,-1.221,-1.2359,-1.2447,-1.2501,-1.2501,-1.2501,-1.2501,-1.2501,-1.2501,-1.2501,-1.2542,-1.2596,-1.263,-1.2671,-1.2779,-1.2881,-1.2949,-1.2969,-1.3057,-1.3112,-1.3384,-1.3439,-1.3342,-1.3349,-1.339,-1.3397,-1.3397,-1.3397,-1.3397,-1.3397,-1.3397,-1.3397,-1.3397,-1.3403,-1.3417,-1.2932,-1.0915,-0.806,-0.5036,-0.0,-0.0,-0.0,-0.0,-0.0,-0.0,-0.0,-0.0,-0.0,-0.0,-0.0,-0.0,-0.0,-0.0,-0.0,-0.0,-0.0,-0.0,-0.0,-0.0,-0.0,-0.0,-0.0,-0.0,-0.0,-0.0,-0.0,-0.0,-0.0,-0.0,-0.0,-0.0,-1.1179,-1.143,-1.1558,-1.1619,-1.1619,-1.1619,-1.1619,-1.1647,-1.1623,-1.1925,-1.2393,-1.2491,-1.2467,-1.2501,-1.2501,-1.2501,-1.2501,-1.2501,-1.2501,-1.2501,-1.2501,-1.2501,-1.2501,-1.2501,-1.2501,-1.2501,-1.2501,-1.2501,-1.2501,-1.2501,-1.2501,-1.2501,-1.2501,-1.2501,-1.2501,-1.2474,-1.2386,-1.2203,-1.2033,-1.1911,-1.183,-1.1789,-1.1932,-1.2081,-1.223,-1.2372,-1.2461,-1.2501,-1.2501,-1.2501,-1.2501,-1.2501,-1.2501,-1.2501,-1.2501,-1.2535,-1.2542,-1.2542,-1.2576,-1.2698,-1.2718,-1.2759,-1.2874,-1.299,-1.326,-1.3329,-1.3227,-1.3281,-1.3329,-1.339,-1.339,-1.3397,-1.3397,-1.3397,-1.3397,-1.3397,-1.3397,-1.3403,-1.3424,-1.3444,-1.126,-0.8566,-0.6218,-0.2355,-0.0,-0.0,-0.0,-0.0,-0.0,-0.0,-0.0,-0.0,-0.0,-0.0,-0.0,-0.0,-0.0,-0.0,-0.0,-0.0,-0.0,-0.0,-0.0,-0.0,-0.0,-0.0,-0.0,-0.0,-0.0,-0.0,-0.0,-0.0,-0.0,-0.0,-0.0,-1.1409,-1.1579,-1.1613,-1.1619,-1.1619,-1.1619,-1.1619,-1.164,-1.1616,-1.1918,-1.2387,-1.2546,-1.2539,-1.2501,-1.2501,-1.2501,-1.2501,-1.2501,-1.2501,-1.2501,-1.2501,-1.2501,-1.2501,-1.2501,-1.2501,-1.2501,-1.2501,-1.2501,-1.2501,-1.2501,-1.2501,-1.2501,-1.2501,-1.2501,-1.2501,-1.2467,-1.2406,-1.2223,-1.1958,-1.1858,-1.1999,-1.1979,-1.2013,-1.2155,-1.2325,-1.2427,-1.2494,-1.2501,-1.2501,-1.2501,-1.2501,-1.2501,-1.2501,-1.2501,-1.2501,-1.2501,-1.2501,-1.2501,-1.2549,-1.263,-1.2657,-1.261,-1.2732,-1.2861,-1.2935,-1.2969,-1.303,-1.2936,-1.318,-1.3329,-1.3363,-1.337,-1.3376,-1.339,-1.3397,-1.3397,-1.3397,-1.3403,-1.3417,-1.3105,-1.2284,-1.1288,-1.0975,-0.0,-0.0,-0.0,-0.0,-0.0,-0.0,-0.0,-0.0,-0.0,-0.0,-0.0,-0.0,-0.0,-0.0,-0.0,-0.0,-0.0,-0.0,-0.0,-0.0,-0.0,-0.0,-0.0,-0.0,-0.0,-0.0,-0.0,-0.0,-0.0,-0.0,-0.0,-0.0]},{"header":{"parameterUnit":"m.s-1","parameterCategory":1,"la1":31.0,"la2":29.5877,"lo1":-88.7671,"lo2":-86.6584,"dx":0.0162,"dy":0.0185,"nx":115,"ny":88,"refTime":"2022-11-25T06:00:00:Z","depth":0,"parameterNumber":3,"parameterNumberName":"V-component_of_WINDS"},"data":[0.0,0.0,0.0,0.0,0.0,0.0,0.0,0.0,0.0,0.0,0.0,0.0,0.0,0.0,0.0,0.0,0.0,0.0,0.0,0.0,0.0,0.0,0.0,0.0,0.0,0.0,0.0,0.0,0.0,0.0,0.0,0.0,0.0,0.0,0.0,0.0,0.0,0.0,0.0,0.0,0.0,0.0,0.0,0.0,0.0,0.0,0.0,0.0,0.0,0.0,0.0,0.0,0.0,0.0,0.0,0.0,0.0,0.0,0.0,0.0,0.0,0.0,0.0,0.0,0.0,0.0,0.0,0.0,0.0,0.0,0.0,0.0,0.0,0.0,0.0,0.0,0.0,0.0,0.0,0.0,0.0,0.0,0.0,0.0,0.0,0.0,0.0,0.0,0.0,0.0,0.0,0.0,0.0,0.0,0.0,0.0,0.0,0.0,0.0,0.0,0.0,0.0,0.0,0.0,0.0,0.0,0.0,0.0,0.0,0.0,0.0,0.0,0.0,0.0,0.0,0.0,0.0,0.0,0.0,0.0,0.0,0.0,0.0,0.0,0.0,0.0,0.0,0.0,0.0,0.0,0.0,0.0,0.0,0.0,0.0,0.0,0.0,0.0,0.0,0.0,0.0,0.0,0.0,0.0,0.0,0.0,0.0,0.0,0.0,0.0,0.0,0.0,0.0,0.0,0.0,0.0,0.0,0.0,0.0,0.0,0.0,0.0,0.0,0.0,0.0,0.0,0.0,0.0,0.0,0.0,0.0,0.0,0.0,0.0,0.0,0.0,0.0,0.0,0.0,0.0,0.0,0.0,0.0,0.0,0.0,0.0,0.0,0.0,0.0,0.0,0.0,0.0,0.0,0.0,0.0,0.0,0.0,0.0,0.0,0.0,0.0,0.0,0.0,0.0,0.0,0.0,0.0,0.0,0.0,0.0,0.0,0.0,0.0,0.0,0.0,0.0,0.0,0.0,0.0,0.0,0.0,0.0,0.0,0.0,0.0,0.0,0.0,0.0,0.0,0.0,0.0,0.0,0.0,0.0,0.0,0.0,0.0,0.0,0.0,0.0,0.0,0.0,0.0,0.0,0.0,0.0,0.0,0.0,0.0,0.0,0.0,0.0,0.0,0.0,0.0,0.0,0.0,0.0,0.0,0.0,0.0,0.0,0.0,0.0,0.0,0.0,0.0,0.0,0.0,0.0,0.0,0.0,0.0,0.0,0.0,0.0,0.0,0.0,0.0,0.0,0.0,0.0,0.0,0.0,0.0,0.0,0.0,0.0,0.0,0.0,0.0,0.0,0.0,0.0,0.0,0.0,0.0,0.0,0.0,0.0,0.0,0.0,0.0,0.0,0.0,0.0,0.0,0.0,0.0,0.0,0.0,0.0,0.0,0.0,0.0,0.0,0.0,0.0,0.0,0.0,0.0,0.0,0.0,0.0,0.0,0.0,0.0,0.0,0.0,0.0,0.0,0.0,0.0,0.0,0.0,0.0,0.0,0.0,0.0,0.0,0.0,0.0,0.0,0.0,0.0,0.0,0.0,0.0,0.0,0.0,0.0,0.0,0.0,0.0,0.0,0.0,0.0,0.0,0.0,0.0,0.0,0.0,0.0,0.0,0.0,0.0,0.0,0.0,0.0,0.0,0.0,0.0,0.0,0.0,0.0,0.0,0.0,0.0,0.0,0.0,0.0,0.0,0.0,0.0,0.0,0.0,0.0,0.0,0.0,0.0,0.0,0.0,0.0,0.0,0.0,0.0,0.0,0.0,0.0,0.0,0.0,0.0,0.0,0.0,0.0,0.0,0.0,0.0,0.0,0.0,0.0,0.0,0.0,0.0,0.0,0.0,0.0,0.0,0.0,0.0,0.0,0.0,0.0,0.0,0.0,0.0,0.0,0.0,0.0,0.0,0.0,0.0,0.0,0.0,0.0,0.0,0.0,0.0,0.0,0.0,0.0,0.0,0.0,0.0,0.0,0.0,0.0,0.0,0.0,0.0,0.0,0.0,0.0,0.0,0.0,0.0,0.0,0.0,0.0,0.0,0.0,0.0,0.0,0.0,0.0,0.0,0.0,0.0,0.0,0.0,0.0,0.0,0.0,0.0,0.0,0.0,0.0,0.0,0.0,0.0,0.0,0.0,0.0,0.0,0.0,0.0,0.0,0.0,0.0,0.0,0.0,0.0,0.0,0.0,0.0,0.0,0.0,0.0,0.0,0.0,0.0,0.0,0.0,0.0,0.0,0.0,0.0,0.0,0.0,0.0,0.0,0.0,0.0,0.0,0.0,0.0,0.0,0.0,0.0,0.0,0.0,0.0,0.0,0.0,0.0,0.0,0.0,0.0,0.0,0.0,0.0,0.0,0.0,0.0,0.0,0.0,0.0,0.0,0.0,0.0,0.0,0.0,0.0,0.0,0.0,0.0,0.0,0.0,0.0,0.0,0.0,0.0,0.0,0.0,0.0,0.0,0.0,0.0,0.0,0.0,0.0,0.0,0.0,0.0,0.0,0.0,0.0,0.0,0.0,0.0,0.0,0.0,0.0,0.0,0.0,0.0,0.0,0.0,0.0,0.0,0.0,0.0,0.0,0.0,0.0,0.0,0.0,0.0,0.0,0.0,0.0,0.0,0.0,0.0,0.0,0.0,0.0,0.0,0.0,0.0,0.0,0.0,0.0,0.0,0.0,0.0,0.0,0.0,0.0,0.0,0.0,0.0,0.0,0.0,0.0,0.0,0.0,0.0,0.0,0.0,0.0,0.0,0.0,0.0,0.0,0.0,0.0,0.0,0.0,0.0,0.0,0.0,0.0,0.0,0.0,0.0,0.0,0.0,0.0,0.0,0.0,0.0,0.0,0.0,0.0,0.0,0.0,0.0,0.0,0.0,0.0,0.0,0.0,0.0,0.0,0.0,0.0,0.0,0.0,0.0,0.0,0.0,0.0,0.0,0.0,0.0,0.0,0.0,0.0,0.0,0.0,0.0,0.0,0.0,0.0,0.0,0.0,0.0,0.0,0.0,0.0,0.0,0.0,0.0,0.0,0.0,0.0,0.0,0.0,0.0,0.0,0.0,0.0,0.0,0.0,0.0,0.0,0.0,0.0,0.0,0.0,0.0,0.0,0.0,0.0,0.0,0.0,0.0,0.0,0.0,0.0,0.0,0.0,0.0,0.0,0.0,0.0,0.0,0.0,0.0,0.0,0.0,0.0,0.0,0.0,0.0,0.0,0.0,0.0,0.0,0.0,0.0,0.0,0.0,0.0,0.0,0.0,0.0,0.0,0.0,0.0,0.0,0.0,0.0,0.0,0.0,0.0,0.0,0.0,0.0,0.0,0.0,0.0,0.0,0.0,0.0,0.0,0.0,0.0,0.0,0.0,0.0,0.0,0.0,0.0,0.0,0.0,0.0,0.0,0.0,0.0,0.0,0.0,0.0,0.0,0.0,0.0,0.0,0.0,0.0,0.0,0.0,0.0,0.0,0.0,0.0,0.0,0.0,0.0,0.0,0.0,0.0,0.0,0.0,0.0,0.0,0.0,0.0,0.0,0.0,0.0,0.0,0.0,0.0,0.0,0.0,0.0,0.0,0.0,0.0,0.0,0.0,0.0,0.0,0.0,0.0,0.0,0.0,0.0,0.0,0.0,0.0,0.0,0.0,0.0,0.0,0.0,0.0,0.0,0.0,0.0,0.0,0.0,0.0,0.0,0.0,0.0,0.0,0.0,0.0,0.0,0.0,0.0,0.0,0.0,0.0,0.0,0.0,0.0,0.0,0.0,0.0,0.0,0.0,0.0,0.0,0.0,0.0,0.0,0.0,0.0,0.0,0.0,0.0,0.0,0.0,0.0,0.0,0.0,0.0,0.0,0.0,0.0,0.0,0.0,0.0,0.0,0.0,0.0,0.0,0.0,0.0,0.0,0.0,0.0,0.0,0.0,0.0,0.0,0.0,0.0,0.0,0.0,0.0,0.0,0.0,0.0,0.0,0.0,0.0,0.0,0.0,0.0,0.0,0.0,0.0,0.0,0.0,0.0,0.0,0.0,0.0,0.0,0.0,0.0,0.0,0.0,0.0,0.0,0.0,0.0,0.0,0.0,0.0,0.0,0.0,0.0,0.0,0.0,0.0,0.0,0.0,0.0,0.0,0.0,0.0,0.0,0.0,0.0,0.0,0.0,0.0,0.0,0.0,0.0,0.0,0.0,0.0,0.0,0.0,0.0,0.0,0.0,0.0,0.0,0.0,0.0,0.0,0.0,0.0,0.0,0.0,-1.8397,0.0,0.0,0.0,-1.4964,0.0,0.0,0.0,0.0,0.0,0.0,0.0,0.0,0.0,0.0,0.0,0.0,0.0,0.0,0.0,0.0,0.0,0.0,0.0,0.0,0.0,0.0,0.0,0.0,0.0,0.0,0.0,0.0,0.0,0.0,0.0,0.0,0.0,0.0,0.0,0.0,0.0,0.0,0.0,0.0,0.0,0.0,0.0,0.0,0.0,0.0,0.0,0.0,0.0,0.0,0.0,0.0,0.0,0.0,0.0,0.0,0.0,0.0,0.0,0.0,0.0,0.0,0.0,0.0,0.0,0.0,0.0,0.0,0.0,0.0,0.0,0.0,0.0,0.0,0.0,0.0,0.0,0.0,0.0,0.0,0.0,0.0,0.0,0.0,0.0,0.0,0.0,0.0,0.0,0.0,0.0,0.0,0.0,0.0,0.0,0.0,0.0,0.0,0.0,0.0,0.0,0.0,0.0,0.0,0.0,0.0,0.0,0.0,0.0,0.0,-1.7436,-1.6298,-1.7876,-1.7436,-1.4646,0.0,0.0,0.0,0.0,0.0,0.0,0.0,0.0,0.0,0.0,0.0,0.0,0.0,0.0,0.0,0.0,0.0,0.0,0.0,0.0,0.0,0.0,0.0,0.0,0.0,0.0,0.0,0.0,0.0,0.0,0.0,0.0,0.0,0.0,0.0,0.0,0.0,0.0,0.0,0.0,0.0,0.0,0.0,0.0,0.0,0.0,0.0,0.0,0.0,0.0,0.0,0.0,0.0,0.0,0.0,0.0,0.0,0.0,0.0,0.0,0.0,0.0,0.0,0.0,0.0,0.0,0.0,0.0,0.0,0.0,0.0,0.0,0.0,0.0,0.0,0.0,0.0,0.0,0.0,0.0,0.0,0.0,0.0,0.0,0.0,0.0,0.0,0.0,0.0,0.0,0.0,0.0,0.0,0.0,0.0,0.0,0.0,0.0,0.0,0.0,0.0,0.0,0.0,0.0,0.0,0.0,0.0,0.0,0.0,0.0,0.0,0.0,-1.8331,-1.8066,-1.5464,0.0,0.0,0.0,0.0,0.0,0.0,0.0,0.0,0.0,0.0,0.0,0.0,0.0,0.0,0.0,0.0,0.0,0.0,0.0,0.0,0.0,0.0,0.0,0.0,0.0,0.0,0.0,0.0,0.0,0.0,0.0,0.0,0.0,0.0,0.0,0.0,0.0,0.0,0.0,0.0,0.0,0.0,0.0,0.0,0.0,0.0,0.0,0.0,0.0,0.0,0.0,0.0,0.0,0.0,0.0,0.0,0.0,0.0,0.0,0.0,0.0,0.0,0.0,0.0,0.0,0.0,0.0,0.0,0.0,0.0,0.0,0.0,0.0,0.0,0.0,0.0,0.0,0.0,0.0,0.0,0.0,0.0,0.0,0.0,0.0,0.0,0.0,0.0,0.0,0.0,0.0,0.0,0.0,0.0,0.0,0.0,0.0,0.0,0.0,0.0,0.0,0.0,0.0,0.0,0.0,0.0,0.0,0.0,0.0,0.0,-1.6812,-1.8904,-1.9176,0.0,-1.7868,0.0,0.0,0.0,0.0,0.0,0.0,0.0,0.0,0.0,0.0,0.0,0.0,0.0,0.0,0.0,0.0,0.0,0.0,0.0,0.0,0.0,0.0,0.0,0.0,0.0,0.0,0.0,0.0,0.0,0.0,0.0,0.0,0.0,0.0,0.0,0.0,0.0,0.0,0.0,0.0,0.0,0.0,0.0,0.0,0.0,0.0,0.0,0.0,0.0,0.0,0.0,0.0,0.0,0.0,0.0,0.0,0.0,0.0,0.0,0.0,0.0,0.0,0.0,0.0,0.0,0.0,0.0,0.0,0.0,0.0,0.0,0.0,0.0,0.0,0.0,0.0,0.0,0.0,0.0,0.0,0.0,0.0,0.0,0.0,0.0,0.0,0.0,0.0,0.0,0.0,0.0,0.0,0.0,0.0,0.0,0.0,0.0,0.0,0.0,0.0,0.0,0.0,0.0,0.0,0.0,0.0,0.0,0.0,0.0,0.0,-1.7582,-1.8574,-1.8133,-1.7709,0.0,0.0,0.0,0.0,0.0,0.0,0.0,0.0,0.0,0.0,0.0,0.0,0.0,0.0,0.0,0.0,0.0,0.0,0.0,0.0,0.0,0.0,0.0,0.0,0.0,0.0,0.0,0.0,0.0,0.0,0.0,0.0,0.0,0.0,0.0,0.0,0.0,0.0,0.0,0.0,0.0,0.0,0.0,0.0,0.0,0.0,0.0,0.0,0.0,0.0,0.0,0.0,0.0,0.0,0.0,0.0,0.0,0.0,0.0,0.0,0.0,0.0,0.0,0.0,0.0,0.0,0.0,0.0,0.0,0.0,0.0,0.0,0.0,0.0,0.0,0.0,0.0,0.0,0.0,0.0,0.0,0.0,0.0,0.0,0.0,0.0,0.0,0.0,0.0,0.0,0.0,0.0,0.0,0.0,0.0,0.0,0.0,0.0,0.0,0.0,0.0,0.0,0.0,0.0,0.0,0.0,0.0,0.0,0.0,0.0,-1.7582,-1.8427,-1.9014,-1.8302,-1.7569,-1.6917,0.0,0.0,0.0,0.0,0.0,0.0,0.0,0.0,0.0,0.0,0.0,0.0,0.0,0.0,0.0,0.0,0.0,0.0,0.0,0.0,0.0,0.0,0.0,0.0,0.0,0.0,0.0,0.0,0.0,0.0,0.0,0.0,0.0,0.0,0.0,0.0,0.0,0.0,0.0,0.0,0.0,0.0,0.0,0.0,0.0,0.0,0.0,0.0,0.0,0.0,0.0,0.0,0.0,0.0,0.0,0.0,0.0,0.0,0.0,0.0,0.0,0.0,0.0,0.0,0.0,0.0,0.0,0.0,0.0,0.0,0.0,0.0,0.0,0.0,0.0,0.0,0.0,0.0,0.0,0.0,0.0,0.0,0.0,0.0,0.0,0.0,0.0,0.0,0.0,0.0,0.0,0.0,0.0,0.0,0.0,0.0,0.0,0.0,0.0,0.0,0.0,0.0,0.0,0.0,0.0,0.0,0.0,0.0,-2.1033,-1.9198,-1.9234,-2.149,-2.0776,-1.9235,0.0,0.0,0.0,0.0,0.0,0.0,0.0,0.0,0.0,0.0,0.0,0.0,0.0,0.0,0.0,0.0,0.0,0.0,0.0,0.0,0.0,0.0,0.0,0.0,0.0,0.0,0.0,0.0,0.0,0.0,0.0,0.0,0.0,0.0,0.0,0.0,0.0,0.0,0.0,0.0,0.0,0.0,0.0,0.0,0.0,0.0,0.0,0.0,0.0,0.0,0.0,0.0,0.0,0.0,0.0,0.0,0.0,0.0,0.0,0.0,0.0,0.0,0.0,0.0,0.0,0.0,0.0,0.0,0.0,0.0,0.0,0.0,0.0,0.0,0.0,0.0,0.0,0.0,0.0,0.0,0.0,0.0,0.0,0.0,0.0,0.0,0.0,0.0,0.0,0.0,0.0,0.0,0.0,0.0,0.0,0.0,0.0,0.0,0.0,0.0,0.0,0.0,0.0,0.0,0.0,0.0,0.0,0.0,0.0,-1.549,-1.6188,-1.872,-2.2942,-1.9014,-1.7219,0.0,0.0,0.0,0.0,0.0,0.0,0.0,0.0,0.0,0.0,0.0,0.0,0.0,0.0,0.0,0.0,0.0,0.0,0.0,0.0,0.0,0.0,0.0,0.0,0.0,0.0,0.0,0.0,0.0,0.0,0.0,0.0,0.0,0.0,0.0,0.0,0.0,0.0,0.0,0.0,0.0,0.0,0.0,0.0,0.0,0.0,0.0,0.0,0.0,0.0,0.0,0.0,0.0,0.0,0.0,0.0,0.0,0.0,0.0,0.0,0.0,0.0,0.0,0.0,0.0,0.0,0.0,0.0,0.0,0.0,0.0,0.0,0.0,0.0,0.0,0.0,0.0,0.0,0.0,0.0,0.0,0.0,0.0,0.0,0.0,0.0,0.0,0.0,0.0,0.0,0.0,0.0,0.0,0.0,0.0,0.0,0.0,0.0,0.0,0.0,0.0,0.0,0.0,0.0,0.0,0.0,0.0,0.0,0.0,-1.4793,-1.7472,-2.0189,-2.2648,-1.8537,-1.624,0.0,0.0,0.0,0.0,0.0,0.0,0.0,0.0,0.0,0.0,0.0,0.0,0.0,0.0,0.0,0.0,0.0,0.0,0.0,0.0,0.0,0.0,0.0,0.0,0.0,0.0,0.0,0.0,0.0,0.0,0.0,0.0,0.0,0.0,0.0,0.0,0.0,0.0,0.0,0.0,0.0,0.0,0.0,0.0,0.0,0.0,0.0,0.0,0.0,0.0,0.0,0.0,0.0,0.0,0.0,0.0,0.0,0.0,0.0,0.0,0.0,0.0,0.0,0.0,0.0,0.0,0.0,0.0,0.0,0.0,0.0,0.0,0.0,0.0,0.0,0.0,0.0,0.0,0.0,0.0,0.0,0.0,0.0,0.0,0.0,0.0,0.0,0.0,0.0,0.0,0.0,0.0,0.0,0.0,0.0,0.0,0.0,0.0,0.0,0.0,0.0,0.0,0.0,0.0,0.0,0.0,0.0,0.0,-1.485,-2.0115,-2.3382,-2.3566,-2.0686,-1.9638,-1.6661,0.0,0.0,0.0,0.0,0.0,0.0,0.0,0.0,0.0,0.0,0.0,0.0,0.0,0.0,0.0,0.0,0.0,0.0,0.0,0.0,0.0,0.0,0.0,0.0,0.0,0.0,0.0,0.0,0.0,0.0,0.0,0.0,0.0,0.0,0.0,0.0,0.0,0.0,0.0,0.0,0.0,0.0,0.0,0.0,0.0,0.0,0.0,0.0,0.0,0.0,0.0,0.0,0.0,0.0,0.0,0.0,0.0,0.0,0.0,0.0,0.0,0.0,0.0,0.0,0.0,0.0,0.0,0.0,0.0,0.0,0.0,0.0,0.0,0.0,0.0,0.0,0.0,0.0,0.0,0.0,0.0,0.0,0.0,0.0,0.0,0.0,0.0,0.0,0.0,0.0,0.0,0.0,0.0,0.0,0.0,0.0,0.0,0.0,0.0,0.0,0.0,0.0,0.0,0.0,0.0,0.0,0.0,0.0,0.0,-1.6468,-2.0629,-2.296,-2.2942,-1.9528,-1.7882,0.0,0.0,0.0,0.0,0.0,0.0,0.0,0.0,0.0,0.0,0.0,0.0,0.0,0.0,0.0,0.0,0.0,0.0,0.0,0.0,0.0,0.0,0.0,0.0,0.0,0.0,0.0,0.0,0.0,0.0,0.0,0.0,0.0,0.0,0.0,0.0,0.0,0.0,0.0,0.0,0.0,0.0,0.0,0.0,0.0,0.0,0.0,0.0,0.0,0.0,0.0,0.0,0.0,0.0,0.0,0.0,0.0,0.0,0.0,0.0,0.0,0.0,0.0,0.0,0.0,0.0,0.0,0.0,0.0,0.0,0.0,0.0,0.0,0.0,0.0,0.0,0.0,0.0,0.0,0.0,0.0,0.0,0.0,0.0,0.0,0.0,0.0,0.0,0.0,0.0,0.0,0.0,0.0,0.0,0.0,0.0,0.0,0.0,0.0,0.0,0.0,0.0,0.0,0.0,0.0,0.0,0.0,0.0,0.0,-1.8852,-2.2721,-2.4814,-2.465,-2.0813,-1.9095,-1.9849,0.0,0.0,0.0,0.0,0.0,0.0,0.0,0.0,0.0,0.0,0.0,0.0,0.0,0.0,0.0,0.0,0.0,0.0,0.0,0.0,0.0,0.0,0.0,0.0,0.0,0.0,0.0,0.0,0.0,0.0,0.0,0.0,0.0,0.0,0.0,0.0,0.0,0.0,0.0,0.0,0.0,0.0,0.0,0.0,0.0,0.0,0.0,0.0,0.0,0.0,0.0,0.0,0.0,0.0,0.0,0.0,0.0,0.0,0.0,0.0,0.0,0.0,0.0,0.0,0.0,0.0,0.0,0.0,0.0,0.0,0.0,0.0,0.0,0.0,0.0,0.0,0.0,0.0,0.0,0.0,0.0,0.0,0.0,0.0,0.0,0.0,0.0,0.0,0.0,0.0,0.0,0.0,0.0,0.0,0.0,0.0,0.0,0.0,0.0,0.0,0.0,0.0,0.0,0.0,0.0,0.0,0.0,0.0,-2.5585,-2.8594,-2.8668,-2.5715,-2.3254,-2.0507,0.0,0.0,0.0,0.0,0.0,0.0,0.0,0.0,0.0,0.0,0.0,0.0,0.0,0.0,0.0,0.0,0.0,0.0,0.0,0.0,0.0,0.0,0.0,0.0,0.0,0.0,0.0,0.0,0.0,0.0,0.0,0.0,0.0,0.0,0.0,0.0,0.0,0.0,0.0,0.0,0.0,0.0,0.0,0.0,0.0,0.0,0.0,0.0,0.0,0.0,0.0,0.0,0.0,0.0,0.0,0.0,0.0,0.0,0.0,0.0,0.0,0.0,0.0,0.0,0.0,0.0,0.0,0.0,0.0,0.0,0.0,0.0,0.0,0.0,0.0,0.0,0.0,0.0,0.0,0.0,0.0,0.0,0.0,0.0,0.0,0.0,0.0,0.0,0.0,0.0,0.0,0.0,0.0,0.0,0.0,0.0,0.0,0.0,0.0,0.0,0.0,0.0,0.0,0.0,0.0,0.0,0.0,0.0,0.0,-2.7985,-2.9475,-2.9512,-2.8081,-2.5731,-2.3767,0.0,0.0,0.0,0.0,0.0,0.0,0.0,0.0,0.0,0.0,0.0,0.0,0.0,0.0,0.0,0.0,0.0,0.0,0.0,0.0,0.0,0.0,0.0,0.0,0.0,0.0,0.0,0.0,0.0,0.0,0.0,0.0,0.0,0.0,0.0,0.0,0.0,0.0,0.0,0.0,0.0,0.0,0.0,0.0,0.0,0.0,0.0,0.0,0.0,0.0,0.0,0.0,0.0,0.0,0.0,0.0,0.0,0.0,0.0,0.0,0.0,0.0,0.0,0.0,0.0,0.0,0.0,0.0,0.0,0.0,0.0,0.0,0.0,0.0,0.0,0.0,0.0,0.0,0.0,0.0,0.0,0.0,0.0,0.0,0.0,0.0,0.0,0.0,0.0,0.0,0.0,0.0,0.0,0.0,0.0,0.0,0.0,0.0,0.0,0.0,0.0,0.0,0.0,0.0,0.0,0.0,0.0,0.0,-2.6765,-2.9929,-2.9806,-2.9475,-2.8975,-2.731,-2.5716,0.0,0.0,0.0,0.0,0.0,0.0,0.0,0.0,0.0,0.0,0.0,0.0,0.0,0.0,0.0,0.0,0.0,0.0,0.0,0.0,0.0,0.0,0.0,0.0,0.0,0.0,0.0,0.0,0.0,0.0,0.0,0.0,0.0,0.0,0.0,0.0,0.0,0.0,0.0,0.0,0.0,0.0,0.0,0.0,0.0,0.0,0.0,0.0,0.0,0.0,0.0,0.0,0.0,0.0,0.0,0.0,0.0,0.0,0.0,0.0,0.0,0.0,0.0,0.0,0.0,0.0,0.0,0.0,0.0,0.0,0.0,0.0,0.0,0.0,0.0,0.0,0.0,0.0,0.0,0.0,0.0,0.0,0.0,0.0,0.0,0.0,0.0,0.0,0.0,0.0,0.0,0.0,0.0,0.0,0.0,0.0,0.0,0.0,0.0,0.0,0.0,0.0,0.0,0.0,0.0,0.0,0.0,0.0,-2.825,-3.1311,-2.9916,-2.9182,-2.9219,-2.8374,-2.6877,0.0,0.0,0.0,0.0,0.0,0.0,0.0,0.0,0.0,0.0,0.0,0.0,0.0,0.0,0.0,0.0,0.0,0.0,0.0,0.0,0.0,0.0,0.0,0.0,0.0,0.0,0.0,0.0,0.0,0.0,0.0,0.0,0.0,0.0,0.0,0.0,0.0,0.0,0.0,0.0,0.0,0.0,0.0,0.0,0.0,0.0,0.0,0.0,0.0,0.0,0.0,0.0,0.0,0.0,0.0,0.0,0.0,0.0,0.0,0.0,0.0,0.0,0.0,0.0,0.0,0.0,0.0,0.0,0.0,0.0,0.0,0.0,0.0,0.0,0.0,0.0,0.0,0.0,0.0,0.0,0.0,0.0,0.0,0.0,0.0,0.0,0.0,0.0,0.0,0.0,0.0,0.0,0.0,0.0,0.0,0.0,0.0,0.0,0.0,0.0,0.0,0.0,0.0,0.0,0.0,0.0,0.0,0.0,-2.8796,-3.1274,-3.043,-3.0246,-3.087,-2.9512,-2.7633,0.0,0.0,0.0,0.0,0.0,0.0,0.0,0.0,0.0,0.0,0.0,0.0,0.0,0.0,0.0,0.0,0.0,0.0,0.0,0.0,0.0,0.0,0.0,0.0,0.0,0.0,0.0,0.0,0.0,0.0,0.0,0.0,0.0,0.0,0.0,0.0,0.0,0.0,0.0,0.0,0.0,0.0,0.0,0.0,0.0,0.0,0.0,0.0,-2.316,0.0,0.0,0.0,0.0,0.0,0.0,0.0,0.0,0.0,0.0,0.0,0.0,0.0,0.0,0.0,0.0,0.0,0.0,0.0,0.0,0.0,0.0,0.0,0.0,0.0,0.0,0.0,0.0,0.0,0.0,0.0,0.0,0.0,0.0,0.0,0.0,0.0,0.0,0.0,0.0,0.0,0.0,0.0,0.0,0.0,0.0,0.0,0.0,0.0,0.0,0.0,0.0,0.0,0.0,0.0,0.0,0.0,0.0,0.0,-3.0038,-3.1861,-3.1201,-3.0944,-3.1347,-3.0944,-2.9284,0.0,0.0,0.0,0.0,0.0,0.0,0.0,0.0,0.0,0.0,0.0,0.0,0.0,0.0,0.0,0.0,0.0,0.0,0.0,0.0,0.0,0.0,0.0,0.0,0.0,0.0,0.0,0.0,0.0,0.0,0.0,0.0,0.0,0.0,0.0,0.0,0.0,0.0,0.0,0.0,0.0,0.0,0.0,0.0,0.0,0.0,0.0,0.0,0.0,0.0,0.0,0.0,0.0,0.0,0.0,0.0,0.0,0.0,0.0,0.0,0.0,0.0,0.0,0.0,0.0,0.0,0.0,0.0,0.0,0.0,0.0,0.0,0.0,0.0,0.0,0.0,0.0,0.0,0.0,0.0,0.0,0.0,0.0,0.0,0.0,0.0,0.0,0.0,0.0,0.0,0.0,0.0,0.0,0.0,0.0,0.0,0.0,0.0,0.0,0.0,0.0,0.0,0.0,0.0,0.0,0.0,0.0,-2.8927,-3.11,-3.2496,-3.1935,-3.1604,-3.1751,-3.2522,-3.1243,-2.7655,0.0,0.0,0.0,0.0,0.0,0.0,0.0,0.0,0.0,0.0,0.0,0.0,0.0,0.0,0.0,0.0,0.0,0.0,0.0,0.0,0.0,0.0,0.0,0.0,0.0,0.0,0.0,0.0,0.0,0.0,0.0,0.0,0.0,0.0,0.0,0.0,0.0,0.0,-1.8927,-2.3735,0.0,0.0,0.0,0.0,0.0,0.0,0.0,0.0,-2.682,0.0,0.0,0.0,0.0,0.0,0.0,0.0,0.0,0.0,0.0,0.0,0.0,0.0,0.0,0.0,0.0,0.0,0.0,0.0,0.0,0.0,0.0,0.0,0.0,0.0,0.0,0.0,0.0,0.0,0.0,0.0,0.0,0.0,0.0,0.0,0.0,0.0,0.0,0.0,0.0,0.0,0.0,0.0,0.0,0.0,0.0,0.0,0.0,0.0,0.0,0.0,0.0,0.0,0.0,0.0,0.0,-2.8535,-2.9028,-3.0331,-3.2533,-3.2485,-3.2706,-3.3403,-3.4183,-3.2912,-2.9367,0.0,0.0,0.0,0.0,0.0,0.0,0.0,0.0,0.0,0.0,0.0,0.0,0.0,0.0,0.0,0.0,0.0,0.0,0.0,0.0,0.0,0.0,0.0,0.0,0.0,0.0,0.0,0.0,0.0,0.0,0.0,0.0,0.0,0.0,0.0,0.0,0.0,0.0,0.0,-2.7813,-2.9467,0.0,0.0,0.0,0.0,0.0,0.0,0.0,0.0,-2.6505,0.0,0.0,0.0,0.0,0.0,0.0,0.0,0.0,0.0,0.0,0.0,0.0,0.0,0.0,0.0,0.0,0.0,0.0,0.0,0.0,0.0,0.0,0.0,0.0,0.0,0.0,0.0,0.0,0.0,0.0,0.0,0.0,0.0,0.0,0.0,0.0,0.0,0.0,0.0,0.0,0.0,0.0,0.0,0.0,0.0,0.0,0.0,0.0,0.0,0.0,0.0,0.0,0.0,0.0,0.0,-2.7837,-3.0405,-3.2192,-3.3183,-3.322,-3.3403,-3.3807,-3.4729,-3.344,0.0,0.0,0.0,0.0,0.0,0.0,0.0,0.0,0.0,0.0,0.0,0.0,0.0,0.0,0.0,0.0,0.0,0.0,0.0,0.0,0.0,0.0,0.0,0.0,0.0,0.0,0.0,0.0,0.0,0.0,0.0,0.0,0.0,0.0,0.0,0.0,0.0,0.0,0.0,0.0,-2.9083,-3.0544,-3.1006,0.0,0.0,0.0,0.0,0.0,0.0,-2.9121,-2.7505,0.0,0.0,0.0,0.0,0.0,0.0,0.0,0.0,0.0,0.0,0.0,0.0,0.0,0.0,0.0,0.0,0.0,0.0,0.0,0.0,0.0,0.0,0.0,0.0,0.0,0.0,0.0,0.0,0.0,0.0,0.0,0.0,0.0,0.0,0.0,0.0,0.0,0.0,0.0,0.0,0.0,0.0,0.0,0.0,0.0,0.0,0.0,0.0,0.0,0.0,0.0,0.0,0.0,0.0,0.0,-2.7382,-3.1503,-3.3863,-3.4284,-3.4284,-3.4321,-3.4321,-3.5565,-3.4166,0.0,0.0,0.0,0.0,0.0,0.0,0.0,0.0,0.0,0.0,0.0,0.0,0.0,0.0,0.0,0.0,0.0,0.0,0.0,0.0,0.0,0.0,0.0,0.0,0.0,0.0,0.0,0.0,0.0,0.0,0.0,0.0,0.0,0.0,0.0,0.0,0.0,0.0,0.0,0.0,0.0,-3.1545,-3.2506,-3.1506,0.0,0.0,0.0,0.0,-3.3622,-3.166,0.0,0.0,0.0,0.0,0.0,0.0,0.0,0.0,0.0,0.0,0.0,0.0,0.0,0.0,0.0,0.0,0.0,0.0,0.0,0.0,0.0,0.0,0.0,0.0,0.0,0.0,0.0,0.0,0.0,0.0,0.0,0.0,0.0,0.0,0.0,0.0,0.0,0.0,0.0,0.0,0.0,0.0,0.0,0.0,0.0,0.0,0.0,0.0,0.0,0.0,0.0,0.0,0.0,0.0,0.0,0.0,-2.9016,-3.0844,-3.3117,-3.5862,-3.6009,-3.6009,-3.6009,-3.7792,-3.6208,0.0,0.0,0.0,0.0,0.0,0.0,0.0,0.0,0.0,0.0,0.0,0.0,0.0,0.0,0.0,0.0,0.0,0.0,0.0,0.0,0.0,0.0,0.0,0.0,0.0,0.0,0.0,0.0,0.0,0.0,0.0,0.0,0.0,0.0,0.0,0.0,0.0,0.0,0.0,0.0,0.0,-3.3276,-3.2006,-3.166,-3.2006,0.0,0.0,-3.2968,-3.7815,-3.693,0.0,0.0,0.0,0.0,0.0,0.0,0.0,0.0,0.0,0.0,0.0,0.0,0.0,0.0,0.0,0.0,0.0,0.0,0.0,0.0,0.0,0.0,0.0,0.0,0.0,0.0,0.0,0.0,0.0,0.0,0.0,0.0,0.0,0.0,0.0,0.0,0.0,0.0,0.0,0.0,0.0,0.0,0.0,0.0,0.0,0.0,0.0,0.0,0.0,0.0,0.0,0.0,0.0,0.0,0.0,-2.5502,-2.9362,-3.2559,-3.4877,-3.6229,-3.6303,-3.6303,-3.6303,-3.8376,-3.6512,0.0,0.0,0.0,0.0,0.0,0.0,0.0,0.0,0.0,0.0,0.0,0.0,0.0,0.0,0.0,0.0,0.0,0.0,0.0,0.0,0.0,0.0,0.0,0.0,0.0,0.0,0.0,0.0,0.0,0.0,0.0,0.0,0.0,0.0,0.0,0.0,0.0,0.0,0.0,0.0,0.0,0.0,-3.5738,-3.4776,0.0,0.0,0.0,-3.6199,-3.8854,0.0,0.0,0.0,0.0,0.0,0.0,0.0,0.0,0.0,0.0,0.0,0.0,0.0,0.0,0.0,0.0,0.0,0.0,0.0,0.0,0.0,0.0,0.0,0.0,0.0,0.0,0.0,0.0,0.0,0.0,0.0,0.0,0.0,0.0,0.0,0.0,0.0,0.0,0.0,0.0,0.0,0.0,0.0,0.0,0.0,0.0,0.0,0.0,0.0,0.0,0.0,0.0,0.0,0.0,0.0,0.0,0.0,-3.0005,-3.4371,-3.6711,-3.689,-3.694,-3.6998,-3.7063,-3.9,0.0,0.0,0.0,0.0,0.0,0.0,0.0,0.0,0.0,0.0,0.0,0.0,0.0,0.0,0.0,0.0,0.0,0.0,0.0,0.0,0.0,0.0,0.0,0.0,0.0,0.0,0.0,-1.2349,0.0,0.0,0.0,0.0,0.0,0.0,0.0,0.0,0.0,0.0,0.0,0.0,0.0,0.0,-3.416,-3.8392,-3.7353,-3.6815,0.0,0.0,-3.9084,-4.0354,-4.0546,-3.9815,0.0,0.0,0.0,0.0,0.0,0.0,0.0,0.0,0.0,0.0,0.0,0.0,0.0,0.0,0.0,0.0,0.0,0.0,0.0,0.0,0.0,0.0,0.0,0.0,0.0,0.0,0.0,0.0,0.0,0.0,0.0,0.0,0.0,0.0,0.0,0.0,0.0,0.0,0.0,0.0,0.0,0.0,0.0,0.0,0.0,0.0,0.0,0.0,0.0,0.0,0.0,0.0,0.0,0.0,-2.7721,-3.1775,-3.5514,-3.776,-3.8505,-3.8785,-3.8904,-3.8931,-4.0375,-3.8404,0.0,0.0,0.0,0.0,0.0,0.0,0.0,0.0,0.0,0.0,0.0,0.0,0.0,0.0,0.0,0.0,0.0,0.0,0.0,0.0,0.0,0.0,0.0,0.0,0.0,0.0,0.0,0.0,0.0,0.0,0.0,0.0,0.0,0.0,0.0,0.0,0.0,0.0,0.0,0.0,0.0,-3.3353,-3.7507,-3.793,-3.87,0.0,-4.0854,-4.1162,-4.3585,-4.3932,-4.2107,-3.6665,0.0,0.0,0.0,0.0,0.0,0.0,0.0,0.0,0.0,0.0,0.0,0.0,0.0,0.0,0.0,0.0,0.0,0.0,0.0,0.0,0.0,0.0,0.0,0.0,0.0,0.0,0.0,0.0,-0.9999,0.0,0.0,0.0,0.0,0.0,0.0,0.0,0.0,0.0,0.0,0.0,0.0,0.0,0.0,0.0,0.0,0.0,0.0,0.0,0.0,0.0,0.0,0.0,0.0,-2.8282,-3.1959,-3.6084,-3.8401,-3.8689,-3.8803,-3.8855,-3.8892,-4.0087,-3.878,0.0,0.0,0.0,0.0,0.0,0.0,0.0,0.0,0.0,0.0,0.0,0.0,0.0,0.0,0.0,0.0,0.0,0.0,0.0,0.0,0.0,0.0,0.0,0.0,0.0,0.0,0.0,0.0,-2.412,-2.5043,-2.3312,0.0,0.0,0.0,0.0,0.0,0.0,0.0,0.0,0.0,0.0,-3.7123,-3.9238,-4.0008,0.0,0.0,-4.3508,-4.4316,-4.6317,-4.5396,-4.3478,-4.0718,-3.8992,0.0,0.0,0.0,0.0,0.0,0.0,0.0,0.0,0.0,0.0,0.0,0.0,0.0,0.0,0.0,0.0,0.0,0.0,0.0,0.0,0.0,0.0,0.0,0.0,0.0,0.0,0.0,-1.0424,0.0,0.0,0.0,0.0,0.0,0.0,0.0,0.0,0.0,0.0,0.0,0.0,0.0,0.0,0.0,0.0,0.0,0.0,0.0,0.0,0.0,0.0,0.0,0.0,-2.8563,-3.1995,-3.6437,-3.875,-3.8833,-3.9172,-3.9286,-3.9175,-4.0113,-3.9232,0.0,0.0,0.0,0.0,0.0,0.0,0.0,0.0,0.0,0.0,0.0,0.0,0.0,0.0,0.0,0.0,0.0,0.0,0.0,0.0,0.0,0.0,0.0,0.0,0.0,0.0,0.0,0.0,-2.7044,-2.7121,-2.4052,0.0,0.0,0.0,0.0,0.0,0.0,0.0,0.0,0.0,0.0,-3.9662,-4.1716,-4.2547,-4.3355,-4.4564,-4.5488,-4.6278,-4.6971,-4.6088,-4.4784,-4.3174,0.0,0.0,0.0,0.0,0.0,0.0,0.0,0.0,0.0,0.0,0.0,0.0,0.0,0.0,0.0,0.0,0.0,0.0,0.0,0.0,0.0,0.0,0.0,0.0,0.0,0.0,0.0,-1.1339,0.0,0.0,-1.1282,0.0,0.0,0.0,0.0,0.0,0.0,0.0,0.0,0.0,0.0,0.0,0.0,0.0,0.0,0.0,0.0,0.0,0.0,0.0,0.0,0.0,0.0,-2.86,-3.1995,-3.651,-3.887,-3.9127,-4.0265,-4.0602,-4.0117,-4.0862,-3.9832,-3.6772,0.0,0.0,0.0,0.0,0.0,0.0,0.0,0.0,0.0,0.0,0.0,0.0,0.0,0.0,0.0,0.0,0.0,0.0,0.0,0.0,0.0,0.0,0.0,0.0,0.0,0.0,-2.1966,-2.4659,-2.5659,0.0,0.0,0.0,0.0,0.0,0.0,0.0,0.0,0.0,-3.8123,-3.8507,-3.9892,-4.4701,-4.5526,-4.5565,-4.5791,-4.6506,-4.6547,-4.5278,-4.6183,-4.605,0.0,0.0,0.0,0.0,0.0,0.0,0.0,0.0,0.0,0.0,0.0,0.0,0.0,0.0,0.0,0.0,0.0,0.0,0.0,0.0,0.0,0.0,0.0,0.0,0.0,0.0,0.0,-1.8479,-1.6943,0.0,0.0,0.0,0.0,0.0,0.0,0.0,0.0,0.0,0.0,0.0,-3.2948,-3.4623,0.0,0.0,0.0,0.0,0.0,0.0,0.0,0.0,0.0,0.0,0.0,0.0,-3.0237,-3.3692,-3.8041,-4.0331,-4.0419,-4.1017,-4.129,-4.113,-4.1576,-4.0404,-3.7316,0.0,0.0,0.0,0.0,0.0,0.0,0.0,0.0,0.0,0.0,0.0,0.0,0.0,0.0,0.0,0.0,0.0,0.0,0.0,0.0,0.0,0.0,0.0,0.0,0.0,-2.4659,0.0,0.0,0.0,0.0,0.0,0.0,0.0,0.0,0.0,0.0,-3.2814,-3.6853,-4.0469,-4.2662,-4.4316,-4.5432,-4.6621,-4.7601,0.0,0.0,0.0,0.0,0.0,0.0,0.0,0.0,0.0,0.0,0.0,0.0,0.0,-4.625,-4.625,-3.9414,-3.6758,-3.5859,-3.6719,0.0,0.0,0.0,0.0,0.0,0.0,0.0,0.0,0.0,0.0,0.0,0.0,0.0,0.0,-2.4279,-2.2855,-2.2653,0.0,0.0,0.0,0.0,0.0,0.0,0.0,0.0,-3.4233,-3.6528,-3.7787,-3.9148,-3.835,-3.5762,-3.5002,-3.2562,0.0,0.0,0.0,0.0,0.0,0.0,0.0,0.0,-3.1956,-3.6125,-3.9462,-4.1217,-4.1471,-4.1903,-4.2168,-4.2133,-4.2306,-4.1472,-3.9345,-3.8766,-3.7548,0.0,0.0,0.0,0.0,0.0,0.0,0.0,0.0,0.0,0.0,0.0,0.0,0.0,0.0,0.0,0.0,0.0,0.0,0.0,0.0,0.0,0.0,0.0,-2.6967,0.0,0.0,0.0,0.0,0.0,0.0,0.0,0.0,0.0,-3.3109,-3.7199,-4.12,-4.4085,-4.6124,-4.7432,-4.7797,0.0,0.0,0.0,0.0,0.0,0.0,0.0,-4.9304,-5.0765,-4.88,-4.6953,-4.6836,-4.9453,-5.1289,-5.0391,0.0,0.0,-4.5351,-4.2734,-4.2109,-4.3281,-4.3711,-4.4023,-4.4609,-4.6133,-4.7187,0.0,0.0,0.0,0.0,-2.6394,0.0,0.0,0.0,-3.0559,-3.0066,0.0,-2.8485,0.0,0.0,0.0,0.0,-2.5418,-2.9785,0.0,0.0,-4.051,-4.2915,-4.386,-4.3192,-4.282,-4.2775,-4.2173,-4.025,-3.6746,-2.9772,-2.5286,0.0,0.0,0.0,0.0,0.0,-3.3809,-3.9325,-4.0698,-4.1572,-4.224,-4.3024,-4.3422,-4.3282,-4.3299,-4.314,-4.273,-4.0826,-3.9172,-3.8091,-3.1892,0.0,0.0,0.0,0.0,0.0,0.0,0.0,0.0,0.0,0.0,0.0,0.0,0.0,0.0,0.0,0.0,0.0,0.0,0.0,0.0,-2.8198,0.0,0.0,0.0,0.0,0.0,0.0,0.0,0.0,0.0,-4.0098,-3.8661,-4.0585,-4.3893,-4.8779,0.0,0.0,0.0,0.0,-5.2647,-5.3764,-5.3244,-5.2845,-5.2961,-5.3516,-5.4297,-5.5234,0.0,0.0,-5.3437,-5.4961,-5.5781,-5.3398,-5.5664,-5.7148,-5.4453,-5.0664,-4.8633,-5.0078,-4.9844,-4.9844,-5.1406,-5.3867,-5.6172,-3.4427,0.0,0.0,0.0,0.0,-3.1637,-3.3637,-3.7072,-3.6735,-3.5677,-3.4163,-3.4044,0.0,0.0,0.0,0.0,0.0,0.0,-3.6573,-4.0158,-4.1787,-4.3497,-4.5324,-4.5109,-4.441,-4.3291,-4.3167,-4.2014,-3.9919,-3.7735,-3.2868,-2.5608,0.0,0.0,0.0,0.0,-3.8229,-4.0763,-4.2996,-4.4288,-4.472,-4.5773,-4.6478,-4.6645,-4.6663,-4.6627,-4.6551,-4.5914,-4.4068,-4.082,-3.8284,0.0,0.0,0.0,0.0,0.0,0.0,0.0,0.0,0.0,0.0,0.0,0.0,0.0,0.0,0.0,0.0,0.0,0.0,0.0,-2.5466,-2.9929,-3.2057,0.0,0.0,0.0,0.0,0.0,0.0,0.0,0.0,0.0,-4.603,-4.674,-4.824,0.0,0.0,-5.2184,-5.3031,-5.4323,-5.5499,-5.6445,-5.6986,0.0,-5.7304,-5.5976,-5.5625,-5.7734,-5.8515,-5.8476,-5.75,-5.7969,-5.8203,-5.7422,-5.8125,-5.8555,-5.789,-5.6797,-5.6055,-5.6484,-5.6406,-5.6367,-5.6953,-5.8281,-5.9297,-4.0318,-3.7533,-3.5002,-3.5011,-3.6621,-3.6175,-3.8276,-4.195,-4.147,-4.0921,-4.0345,-4.0226,-3.7988,-3.4338,-3.3792,0.0,0.0,0.0,-4.0102,-4.3194,-4.3667,-4.4637,-4.5809,-4.5553,-4.5077,-4.4454,-4.4123,-4.3791,-4.3497,-4.3664,-3.9991,-3.2943,0.0,-3.6163,-3.4853,-3.8377,-4.1439,-4.3744,-4.4969,-4.5679,-4.6052,-4.7049,-4.7646,-4.7834,-4.803,-4.8105,-4.8102,-4.8102,-4.6932,-4.442,-4.2831,-4.0701,0.0,0.0,0.0,0.0,0.0,0.0,0.0,0.0,0.0,0.0,0.0,-2.2726,-1.9081,0.0,0.0,0.0,-2.8698,-3.0314,-3.2199,-3.5276,0.0,0.0,0.0,0.0,0.0,0.0,0.0,-4.341,-4.7396,-5.041,-5.1741,-5.2202,-5.2664,-5.3433,-5.43,-5.5094,-5.5548,0.0,-5.7717,-5.8622,-5.929,-5.9922,-6.0586,-5.9375,-5.9023,-6.0898,-6.1211,-6.1211,-6.1211,-6.1211,-6.1211,-6.1211,-6.1211,-6.1211,-6.1211,-6.1211,-6.0937,-6.0351,-6.0195,-6.039,-6.1015,-6.1601,-6.1953,-4.4819,-4.4377,-3.9713,-3.8861,-4.0614,-4.0666,-4.2202,-4.4736,-4.4775,-4.5368,-4.6324,-4.603,-4.4535,-4.2077,-3.9788,0.0,-4.1977,-4.2725,-4.4199,-4.6287,-4.6285,-4.628,-4.6243,-4.5547,-4.5539,-4.6186,-4.5443,-4.581,-4.7131,-4.7527,-4.6211,-4.3225,-4.0992,-4.1036,-4.3073,-4.2466,-4.3918,-4.7673,-4.6725,-4.6365,-4.6665,-4.7353,-4.77,-4.7724,-4.8084,-4.8317,-4.8317,-4.8317,-4.8298,-4.8241,-4.6052,-4.4499,-4.3722,0.0,0.0,0.0,0.0,0.0,0.0,0.0,0.0,0.0,0.0,0.0,0.0,0.0,0.0,-3.4314,-3.9392,0.0,-4.297,-4.247,0.0,0.0,0.0,-3.8854,-4.0354,-4.4443,-4.7349,-4.7663,0.0,0.0,-5.5818,-5.6665,-5.6896,-5.6088,-5.6725,-5.7698,-5.8693,-5.8925,-5.9498,-6.0574,-6.0742,-6.1289,-6.2695,-6.2812,-6.3047,-6.3984,-6.4414,-6.4297,-6.4375,-6.4414,-6.4492,-6.4375,-6.4492,-6.4453,-6.4492,-6.4375,-6.4023,-6.2578,-6.207,-6.2383,-6.3672,-6.418,-6.4219,-4.5626,-4.548,-4.4331,-4.4073,-4.4518,-4.4564,-4.4971,-4.5616,-4.5627,-4.5772,-4.599,-4.5916,-4.5553,-4.4878,-4.4291,-4.4996,-4.6691,-4.6829,-4.7937,-4.9601,-4.9599,-4.9636,-4.9636,-4.9441,-4.9102,-4.8729,-4.8522,-4.8306,-4.8012,-4.8126,-4.8235,-4.836,-4.7798,-4.6223,-4.3862,-4.6315,-4.7932,-4.8531,-4.8642,-4.8766,-4.8767,-4.9226,-4.9463,-4.9501,-4.9869,-5.0087,-5.0087,-5.0048,-5.0067,-5.0046,-4.9488,-4.9355,-4.9683,-4.2124,0.0,0.0,0.0,0.0,0.0,0.0,0.0,0.0,0.0,-3.1686,-2.5513,0.0,-3.3083,0.0,-4.4239,-4.6124,-4.247,-4.3662,0.0,0.0,-4.3316,-4.3547,-5.0087,-5.024,-5.1029,-5.4241,-5.6258,-5.7489,-5.7665,-5.8396,-5.8819,-5.8627,-5.8357,-5.8583,-5.968,-6.0444,-6.1495,-6.2969,-6.3359,-6.3515,-6.3945,-6.3984,-6.4375,-6.5117,-6.5312,-6.5508,-6.6172,-6.6289,-6.6289,-6.6289,-6.6289,-6.6289,-6.6289,-6.6289,-6.6445,-6.6445,-6.5078,-6.3789,-6.4258,-6.4844,-6.5312,-4.6434,-4.6471,-4.6838,-4.6985,-4.6911,-4.6212,-4.61,-4.6467,-4.6396,-4.6649,-4.7016,-4.7382,-4.7569,-4.7572,-4.7939,-4.8563,-4.9407,-4.9412,-4.9892,-5.0777,-5.0809,-5.0805,-5.0842,-5.0794,-5.079,-5.0639,-5.0652,-5.0802,-5.0986,-5.0655,-5.1035,-5.2045,-5.1929,-5.083,-4.8943,-5.004,-5.0266,-4.9415,-5.0277,-5.0642,-5.0598,-5.1026,-5.086,-5.0149,-5.1595,-5.201,-5.126,-5.1973,-5.1876,-5.0778,-5.0682,-5.0913,-5.1239,-4.6491,-4.397,0.0,0.0,0.0,0.0,0.0,0.0,0.0,0.0,0.0,0.0,0.0,-3.8623,-4.0408,-4.6932,-4.9317,-4.5009,-4.7586,-5.0087,-5.1356,-4.974,-5.0587,-5.5665,-5.4955,-5.4993,-5.728,-5.8319,-5.8858,-5.8858,-5.955,-6.0089,-6.0165,-6.0165,-6.0441,-6.1172,-6.211,-6.3398,-6.5117,-6.5469,-6.5781,-6.6445,-6.6601,-6.6758,-6.7187,-6.7305,-6.7461,-6.7969,-6.8047,-6.8047,-6.8008,-6.8047,-6.8047,-6.8047,-6.8047,-6.8242,-6.8398,-6.7656,-6.6719,-6.6601,-6.6953,-6.7344,-4.7534,-4.7645,-4.8343,-4.86,-4.8526,-4.7132,-4.6875,-4.7427,-4.7534,-4.7936,-4.8673,-4.9407,-4.9777,-4.9774,-5.0472,-5.0839,-5.0949,-5.0982,-5.1018,-5.1132,-5.1114,-5.1177,-5.125,-5.1286,-5.1694,-5.2438,-5.2449,-5.3188,-5.4509,-5.3849,-5.3891,-5.4564,-5.4348,-5.4458,-5.4924,-5.3429,-5.2088,-5.0998,-5.1775,-5.2143,-5.2167,-5.2574,-5.2081,-5.0784,-5.3207,-5.3954,-5.2512,-5.386,-5.3706,-5.1684,-5.1491,-5.1549,-5.1642,-5.1144,-4.9433,0.0,-4.497,0.0,0.0,0.0,0.0,0.0,0.0,0.0,0.0,-4.6009,-4.547,-4.2085,-4.9048,-5.251,-4.9663,-5.2779,-5.528,-5.5934,-5.6703,-5.7511,-5.8319,-5.8473,-5.8511,-5.8627,-5.9242,-5.9665,-5.9742,-6.0358,-6.0896,-6.1381,-6.2175,-6.2876,-6.3312,-6.4064,-6.5195,-6.6953,-6.7226,-6.7656,-6.8828,-6.9297,-6.9375,-6.9609,-6.9687,-6.9844,-7.0195,-7.0234,-7.0156,-7.0156,-7.0234,-7.0234,-7.0156,-7.0195,-7.0195,-7.0312,-7.0234,-6.9922,-6.9336,-6.918,-6.9492,-5.0105,-5.0105,-5.0251,-5.0325,-5.0288,-5.0004,-4.96,-4.9194,-4.9821,-5.0186,-5.0325,-5.0475,-5.0585,-5.0582,-5.0729,-5.1132,-5.1756,-5.1756,-5.2123,-5.2747,-5.2742,-5.3072,-5.3708,-5.3726,-5.4122,-5.4913,-5.4913,-5.506,-5.5354,-5.5207,-5.5386,-5.5835,-5.5825,-5.5505,-5.5071,0.0,0.0,0.0,-5.3798,-5.3035,-5.3059,-5.3449,-5.3493,-5.3226,-5.4687,0.0,-5.5011,-5.5301,-5.5609,-5.5822,-5.5827,0.0,-5.6791,0.0,0.0,0.0,0.0,0.0,0.0,0.0,0.0,0.0,-4.824,-4.7586,-4.6663,-5.0933,-5.2395,-4.9279,-5.3356,-5.6319,-5.6395,-5.7049,-5.7665,-5.778,-5.7973,-5.8357,-5.9165,-5.9281,-5.955,-6.0242,-6.0473,-6.0589,-6.0704,-6.0858,-6.1574,-6.3045,-6.4147,-6.535,-6.663,-6.6438,-6.6892,-6.8594,-6.8906,-6.9023,-6.9336,-6.957,-7.0195,-7.1055,-7.1523,-7.2031,-7.3164,-7.3476,-7.3555,-7.3476,-7.3633,-7.3515,-7.3555,-7.3633,-7.3398,-7.3594,-7.3555,-7.2812,-7.0117,-6.9492,-6.9453,-5.2013,-5.1977,-5.1573,-5.1389,0.0,-5.1403,-5.1185,-5.0775,-5.0805,-5.0835,-5.0826,-5.1206,-5.1393,-5.1426,-5.183,-5.2197,-5.2601,-5.2564,-5.3046,-5.3781,-5.3781,-5.4191,-5.4975,-5.4972,-5.5212,-5.5587,-5.5603,-5.5794,-5.6198,-5.6198,-5.6478,-5.7106,-5.7295,-5.7126,-5.6541,-5.7603,-5.7752,-5.6998,-5.6176,-5.5792,-5.5797,-5.5963,-5.5653,-5.4886,-5.6598,0.0,0.0,0.0,0.0,0.0,0.0,0.0,0.0,-5.4395,-5.3356,-5.3741,-5.2164,-5.0856,-5.0048,-5.0356,-5.1741,-5.4203,-5.4818,-5.4318,-5.2664,-5.528,-5.628,-5.4664,-5.6434,-5.7819,-5.8242,-5.8665,-5.8896,-5.8934,-5.9281,-5.9742,-6.005,-6.0204,-6.0396,-6.0858,-6.1381,-6.1689,-6.1766,-6.2588,-6.34,-6.4486,-6.5774,-6.7134,-6.8319,-6.8265,-6.8531,-6.9883,-7.0469,-7.0859,-7.1211,-7.1328,-7.1758,-7.293,-7.3281,-7.3633,-7.4453,-7.457,-7.457,-7.457,-7.457,-7.457,-7.457,-7.457,-7.457,-7.457,-7.457,-7.418,-7.2305,-7.1992,-7.1992,-5.3628,-5.3555,-5.2894,-5.2637,-5.2601,-5.2651,-5.2729,-5.2766,-5.1705,0.0,0.0,-5.1935,-5.2238,-5.227,-5.3078,-5.3408,-5.3445,-5.3592,-5.3965,-5.4601,-5.4601,-5.5043,-5.5785,-5.577,-5.5898,-5.6008,-5.6043,-5.6345,-5.7005,-5.7042,-5.7336,-5.796,-5.8373,-5.8373,-5.807,-5.8823,-5.8801,-5.8002,-5.8327,-5.8504,-5.8511,-5.8511,-5.7819,-5.6395,-5.855,-5.9072,-5.7752,-5.8995,-5.875,-5.6721,-5.5969,-5.5623,-5.5623,-5.5621,-5.6549,-5.855,-5.8742,-5.8742,-5.8742,-5.8742,-5.8742,-5.8742,-5.9358,-5.9396,-5.8588,-5.8665,-5.8742,-5.8742,-5.8742,-5.8742,-5.8742,-5.9319,-5.9742,-5.9742,-6.0512,-6.1012,-6.1012,-6.1243,-6.1512,-6.1728,-6.2521,-6.3122,-6.3376,-6.4501,-6.5606,-6.6165,-6.7307,-6.87,-6.9726,-7.0,-7.0156,-7.1094,-7.1758,-7.2461,-7.3242,-7.3437,-7.3867,-7.457,-7.4765,-7.4883,-7.5,-7.5078,-7.5078,-7.5195,-7.5078,-7.5117,-7.5078,-7.5195,-7.5078,-7.5078,-7.5039,-7.5039,-7.5078,-7.5195,-7.5039,-5.5244,-5.5244,-5.5133,-5.5097,-5.506,-5.5085,-5.5507,-5.5918,-5.3823,-5.2889,-5.2889,-5.2962,-5.3041,-5.3078,-5.3885,-5.4216,-5.4289,-5.495,-5.5331,-5.5423,-5.5441,-5.5868,-5.6585,-5.6612,-5.7024,-5.762,-5.7666,-5.774,-5.7813,-5.7813,-5.7886,-5.7997,-5.807,-5.8033,-5.8033,-5.8483,-5.8876,-5.9149,-5.9273,-5.9335,-5.9319,-5.9319,-5.9242,-5.905,-6.0012,-6.0512,-6.0304,-6.0473,-6.0473,-6.0104,-5.9988,-5.9911,-5.9911,-5.9819,-6.0089,-6.0396,-6.0435,-6.0435,-6.0435,-6.0435,-6.0435,-6.0435,-6.055,-6.0242,-5.9435,-6.0012,-6.0435,-6.0435,-6.0358,-6.0473,-6.0435,-6.055,-6.0627,-6.0704,-6.1396,-6.1897,-6.1973,-6.2551,-6.3306,-6.4138,-6.447,-6.5003,-6.5771,-6.6299,-6.7208,-6.8483,-6.9297,-7.0117,-7.1914,-7.2109,-7.2031,-7.2695,-7.3008,-7.3476,-7.418,-7.4414,-7.4765,-7.5586,-7.5742,-7.5937,-7.6523,-7.6601,-7.664,-7.6797,-7.6719,-7.6758,-7.6758,-7.6836,-7.6836,-7.6836,-7.6797,-7.6836,-7.6836,-7.7344,-7.7187,-5.6895,-5.6895,-5.6895,-5.6895,-5.6895,-5.6934,-5.7125,-5.7368,-5.6273,-5.5542,-5.5104,-5.4736,-5.4509,-5.4546,-5.4876,-5.5023,-5.506,-5.5427,-5.5845,-5.6227,-5.6257,-5.6683,-5.74,-5.7474,-5.762,-5.796,-5.7997,-5.7997,-5.7997,-5.7997,-5.7997,-5.7997,-5.7997,-5.8107,-5.841,-5.8823,-5.9313,-5.9748,-5.9818,-5.995,-6.0204,-6.0204,-6.0204,-6.0204,-6.0627,-6.0781,-6.0781,-6.0781,-6.0781,-6.0781,-6.0781,-6.0781,-6.0781,-6.0781,-6.0781,-6.0781,-6.0781,-6.0781,-6.0781,-6.0781,-6.0781,-6.0781,-6.0781,-6.0627,-6.0242,-6.055,-6.0781,-6.0781,-6.0781,-6.1012,-6.1435,-6.1512,-6.1666,-6.2127,-6.2551,-6.2935,-6.3397,-6.382,-6.4512,-6.5558,-6.619,-6.6769,-6.7403,-6.865,-6.9761,-7.082,-7.1523,-7.2695,-7.3828,-7.3711,-7.3555,-7.3906,-7.4023,-7.4375,-7.5117,-7.5312,-7.5664,-7.6484,-7.6601,-7.6758,-7.7148,-7.7226,-7.7226,-7.7265,-7.7539,-7.789,-7.793,-7.8281,-7.8476,-7.8555,-7.8555,-7.8555,-7.8633,-7.8906,-7.8633,-5.8364,-5.8547,-5.8547,-5.8547,-5.851,-5.8538,-5.8649,-5.8794,-5.8604,-5.83,-5.7785,-5.6675,-5.6116,-5.6161,-5.6308,-5.6418,-5.6418,-5.6418,-5.6875,-5.7553,-5.725,-5.75,-5.8189,-5.8107,-5.7997,-5.7997,-5.7997,-5.7997,-5.7997,-5.7997,-5.8033,-5.8153,-5.8189,-5.8373,-5.8823,-5.9208,-5.9628,-6.0064,-6.0085,-6.0334,-6.0781,-6.0781,-6.0781,-6.0781,-6.0781,-6.0781,-6.0781,-6.0781,-6.0781,-6.0781,-6.0781,-6.0781,-6.0781,-6.0781,-6.0781,-6.0781,-6.0781,-6.0781,-6.0781,-6.0781,-6.0896,-6.1089,-6.1089,-6.1166,-6.132,-6.1358,-6.1281,-6.1127,-6.132,-6.1666,-6.2243,-6.2358,-6.2627,-6.3243,-6.3705,-6.4166,-6.4782,-6.5295,-6.6128,-6.7325,-6.8226,-6.8932,-6.9805,-7.1328,-7.2461,-7.2734,-7.3945,-7.4844,-7.4883,-7.5039,-7.5195,-7.5156,-7.5039,-7.5234,-7.6015,-7.6211,-7.6562,-7.7344,-7.75,-7.7656,-7.7773,-7.7812,-7.7773,-7.793,-7.832,-7.8711,-7.8828,-7.918,-7.9531,-7.9531,-7.9492,-7.9648,-7.9883,-7.9961,-7.9844,-5.9538,-6.0126,-6.0126,-6.0199,-6.0162,-6.0162,-6.0554,-6.108,-6.0491,-6.0578,-6.075,-5.875,-5.7821,-5.7886,-5.851,-5.8804,-5.8804,-5.8877,-5.9228,-5.9734,-5.8566,-5.8336,-5.9016,-5.8336,-5.7997,-5.8033,-5.7997,-5.7997,-5.7997,-5.8006,-5.8226,-5.8603,-5.864,-5.8878,-5.9287,-5.9393,-5.9626,-6.0085,-6.008,-6.0334,-6.0742,-6.0781,-6.0781,-6.0781,-6.0781,-6.0781,-6.0781,-6.0781,-6.0781,-6.0781,-6.0781,-6.0781,-6.0781,-6.0781,-6.0781,-6.0781,-6.0819,-6.0781,-6.0819,-6.0781,-6.1166,-6.1897,-6.1973,-6.2281,-6.2897,-6.3051,-6.2743,-6.2281,-6.2666,-6.2974,-6.3205,-6.3243,-6.3358,-6.3705,-6.4897,-6.5705,-6.609,-6.7167,-6.8847,-7.0825,-7.0982,-7.1846,-7.3203,-7.3945,-7.4258,-7.4375,-7.5117,-7.5781,-7.582,-7.6406,-7.6836,-7.6758,-7.6367,-7.625,-7.6875,-7.7109,-7.7539,-7.8203,-7.8359,-7.8594,-7.8984,-7.9258,-7.9414,-7.9023,-7.9453,-7.957,-7.9609,-7.9687,-7.9805,-8.0078,-8.0078,-8.0039,-8.0625,-8.0937,-8.0742,-6.0089,-6.0456,-6.0896,-6.141,-6.1777,-6.1851,-6.1985,-6.2278,-6.1972,-6.2008,-6.2155,-6.1239,-6.0286,-5.9465,-5.9758,-5.9905,-5.9905,-5.9905,-6.0073,-6.0324,-5.9706,-5.9632,-5.9799,-5.909,-5.8713,-5.8676,-5.8263,-5.7997,-5.8006,-5.8282,-5.8548,-5.8694,-5.8958,-5.9365,-5.9772,-5.9791,-6.0065,-6.0473,-6.0512,-6.0627,-6.0781,-6.0781,-6.0781,-6.0781,-6.0781,-6.0781,-6.0781,-6.0781,-6.0781,-6.0781,-6.0781,-6.0781,-6.0781,-6.0781,-6.0781,-6.0819,-6.1281,-6.1781,-6.2243,-6.2281,-6.2435,-6.2781,-6.282,-6.2974,-6.3306,-6.3743,-6.3897,-6.3628,-6.3435,-6.3474,-6.4051,-6.4512,-6.5013,-6.5667,-6.709,-6.8321,-6.8859,-6.9898,-7.131,-7.2726,-7.3006,-7.3339,-7.4375,-7.5039,-7.5547,-7.5976,-7.6484,-7.6601,-7.6719,-7.7422,-7.789,-7.7969,-7.8008,-7.8047,-7.8086,-7.8437,-7.8789,-7.9062,-7.9219,-7.9414,-7.9648,-7.9726,-7.9687,-7.9765,-8.0195,-8.0469,-8.0469,-8.0976,-8.125,-8.1172,-8.1211,-8.1367,-8.1719,-8.2187,-8.2265,-6.0896,-6.1153,-6.1704,-6.2291,-6.2805,-6.2805,-6.2805,-6.2805,-6.2805,-6.2805,-6.2805,-6.2805,-6.2181,-6.119,-6.108,-6.108,-6.1043,-6.0823,-6.0834,-6.0977,-6.0614,-6.0504,-6.0599,-5.9879,-5.9512,-5.9412,-5.874,-5.8327,-5.841,-5.8917,-5.9324,-5.9562,-5.9891,-6.0266,-6.0594,-6.0666,-6.0704,-6.0781,-6.0781,-6.0781,-6.0781,-6.0781,-6.0781,-6.0781,-6.0781,-6.0781,-6.0781,-6.0781,-6.0781,-6.0781,-6.1012,-6.1166,-6.1204,-6.1358,-6.1473,-6.155,-6.205,-6.2666,-6.3281,-6.332,-6.3397,-6.3628,-6.3666,-6.3743,-6.4114,-6.4782,-6.5243,-6.5282,-6.5128,-6.5359,-6.5243,-6.6051,-6.6898,-6.7782,-6.936,-7.0629,-7.1129,-7.2014,-7.2965,-7.4114,-7.4267,-7.4616,-7.5234,-7.5898,-7.6484,-7.6992,-7.7148,-7.7344,-7.7539,-7.8086,-7.8555,-7.8789,-7.9492,-7.9609,-7.9062,-7.918,-7.9687,-8.0039,-8.0078,-8.0156,-8.0312,-8.0429,-8.0429,-8.0976,-8.1211,-8.1289,-8.1367,-8.1914,-8.2461,-8.2617,-8.2656,-8.2617,-8.2656,-8.3359,-8.3711,-6.1998,-6.2622,-6.2732,-6.2732,-6.2805,-6.2805,-6.2805,-6.2805,-6.2805,-6.2805,-6.2805,-6.2805,-6.2768,-6.2622,-6.2548,-6.2658,-6.2548,-6.1851,-6.1924,-6.2328,-6.1153,-6.0848,-6.1446,-6.0724,-6.0335,-6.0309,-5.9538,-5.9171,-5.9208,-5.9916,-6.0789,-6.1629,-6.1671,-6.1804,-6.1925,-6.192,-6.1612,-6.105,-6.0973,-6.0896,-6.0858,-6.0858,-6.0896,-6.0935,-6.0781,-6.0819,-6.0819,-6.0819,-6.0819,-6.0819,-6.1642,-6.2041,-6.2079,-6.2719,-6.3089,-6.3166,-6.3205,-6.3281,-6.3397,-6.3474,-6.3782,-6.4436,-6.4705,-6.4936,-6.5884,-6.6628,-6.709,-6.7051,-6.8282,-6.8513,-6.7475,-6.7975,-6.8706,-6.9552,-7.1091,-7.2014,-7.2168,-7.3091,-7.3937,-7.4962,-7.5275,-7.5698,-7.6797,-7.7109,-7.7109,-7.7226,-7.7265,-7.7539,-7.8281,-7.8555,-7.8945,-7.9609,-8.0273,-8.0664,-7.9883,-8.0039,-8.0351,-8.0664,-8.1015,-8.1133,-8.1758,-8.2187,-8.2109,-8.207,-8.2187,-8.2226,-8.2226,-8.25,-8.2929,-8.3203,-8.3476,-8.3554,-8.3828,-8.4375,-8.4844,-6.2548,-6.2805,-6.2805,-6.2805,-6.2805,-6.2805,-6.2805,-6.2805,-6.2805,-6.2805,-6.2805,-6.2805,-6.2805,-6.2805,-6.2805,-6.2805,-6.2805,-6.2511,-6.2548,-6.2732,-6.2181,-6.2058,-6.2278,-6.1556,-6.114,-6.1056,-6.0323,-5.9968,-6.0063,-6.0572,-6.1025,-6.145,-6.2026,-6.236,-6.2477,-6.2728,-6.2714,-6.2435,-6.2397,-6.2397,-6.2358,-6.2397,-6.2397,-6.2358,-6.132,-6.105,-6.1612,-6.1651,-6.1843,-6.2367,-6.2704,-6.2872,-6.2886,-6.3142,-6.3551,-6.4051,-6.4128,-6.4359,-6.4859,-6.4974,-6.532,-6.6128,-6.6744,-6.7308,-6.8257,-6.904,-6.9552,-6.9651,-6.9986,-7.0244,-7.0514,-7.0667,-7.0937,-7.1437,-7.2783,-7.3783,-7.3976,-7.4668,-7.5515,-7.6056,-7.6342,-7.6739,-7.6992,-7.7226,-7.7422,-7.793,-7.8047,-7.8398,-7.9101,-7.9687,-8.0156,-8.0547,-8.125,-8.1719,-8.1484,-8.1367,-8.1523,-8.1679,-8.1875,-8.1875,-8.2265,-8.2383,-8.2304,-8.2617,-8.2812,-8.3203,-8.3281,-8.3867,-8.414,-8.4414,-8.4648,-8.5,-8.5156,-8.5937,-8.6523,-6.2805,-6.2805,-6.2805,-6.2805,-6.2805,-6.2805,-6.2805,-6.2805,-6.2805,-6.2805,-6.2805,-6.2805,-6.2805,-6.2805,-6.2805,-6.2805,-6.2805,-6.2805,-6.2805,-6.2805,-6.2535,-6.2535,-6.2572,-6.1702,-6.1519,-6.1862,-6.1459,-6.1068,-6.0908,-6.1394,-6.1735,-6.1994,-6.2785,-6.31,-6.3092,-6.3474,-6.3652,-6.3411,-6.3578,-6.3718,-6.3743,-6.4012,-6.4128,-6.3935,-6.2743,-6.2151,-6.2521,-6.2497,-6.2728,-6.3267,-6.3551,-6.3872,-6.4078,-6.4141,-6.4397,-6.4936,-6.5013,-6.5243,-6.5782,-6.5897,-6.6244,-6.7051,-6.7859,-6.877,-6.9643,-7.0695,-7.1255,-7.1381,-7.1909,-7.2399,-7.2899,-7.3245,-7.3283,-7.3245,-7.4284,-7.513,-7.5168,-7.5745,-7.6233,-7.6521,-7.6887,-7.7109,-7.7265,-7.75,-7.789,-7.8437,-7.8711,-7.9219,-8.0,-8.0586,-8.1172,-8.1406,-8.1875,-8.2187,-8.207,-8.1953,-8.1953,-8.2109,-8.2148,-8.2304,-8.2578,-8.2617,-8.2851,-8.3125,-8.3554,-8.4023,-8.457,-8.5234,-8.5625,-8.5937,-8.6367,-8.6758,-8.7148,-8.7695,-8.8047,-6.2805,-6.2805,-6.2805,-6.2805,-6.2805,-6.2805,-6.2805,-6.2805,-6.2805,-6.2768,-6.2658,-6.2732,-6.2622,-6.2658,-6.2511,-6.2658,-6.2585,-6.2548,-6.2658,-6.2732,-6.2045,-6.2045,-6.2548,-6.1176,-6.1249,-6.2498,-6.2695,-6.2291,-6.1667,-6.2316,-6.2841,-6.3437,-6.3881,-6.4059,-6.3835,-6.4398,-6.4308,-6.4052,-6.4552,-6.4782,-6.4743,-6.5513,-6.5897,-6.582,-6.5051,-6.432,-6.3537,-6.3397,-6.3372,-6.354,-6.4193,-6.4987,-6.559,-6.5667,-6.5782,-6.5782,-6.5859,-6.5936,-6.5936,-6.6051,-6.6551,-6.7359,-6.809,-6.9206,-7.0256,-7.1591,-7.2486,-7.2698,-7.3649,-7.4591,-7.4707,-7.5207,-7.5361,-7.4938,-7.5399,-7.5822,-7.5899,-7.5976,-7.6199,-7.6653,-7.7109,-7.7226,-7.7422,-7.8008,-7.8594,-7.8906,-7.9336,-8.0039,-8.082,-8.1133,-8.1445,-8.1953,-8.2226,-8.2304,-8.2304,-8.2304,-8.2304,-8.2304,-8.2304,-8.2422,-8.3008,-8.3281,-8.3789,-8.4179,-8.5234,-8.5742,-8.6562,-8.7187,-8.7617,-8.7929,-8.8281,-8.8476,-8.8906,-8.9258,-8.9375,-6.2805,-6.2805,-6.2805,-6.2805,-6.2805,-6.2805,-6.2805,-6.2805,-6.2805,-6.2524,-6.2059,-6.1985,-6.1679,-6.1227,-6.1153,-6.119,-6.1153,-6.119,-6.1741,-6.2462,-6.1935,-6.1704,-6.1702,-6.0909,-6.0943,-6.1825,-6.1948,-6.2144,-6.2401,-6.2658,-6.2904,-6.3198,-6.4009,-6.4599,-6.5061,-6.5886,-6.6397,-6.6833,-6.7102,-6.7218,-6.7244,-6.7475,-6.7628,-6.759,-6.7321,-6.709,-6.6744,-6.5153,-6.4551,-6.5026,-6.5333,-6.5628,-6.5859,-6.5897,-6.5897,-6.5974,-6.6436,-6.6744,-6.6782,-6.7282,-6.7975,-6.8936,-7.0167,-7.136,-7.2332,-7.3783,-7.4668,-7.4755,-7.5322,-7.5592,-7.563,-7.5822,-7.5861,-7.563,-7.5861,-7.6053,-7.6169,-7.6322,-7.6803,-7.7536,-7.7925,-7.832,-7.875,-7.9258,-7.9531,-8.0039,-8.039,-8.0937,-8.1601,-8.1797,-8.1914,-8.2265,-8.2304,-8.2304,-8.2304,-8.2344,-8.2383,-8.2539,-8.2617,-8.289,-8.3476,-8.4101,-8.4648,-8.5586,-8.6601,-8.7539,-8.8359,-8.9023,-8.9414,-8.9492,-8.957,-8.9883,-9.039,-9.0586,-9.0625,-6.2805,-6.2805,-6.2805,-6.2805,-6.2805,-6.2805,-6.2805,-6.2768,-6.2498,-6.2071,-6.1581,-6.1308,-6.0845,-6.0456,-6.0419,-6.0419,-6.0419,-6.0419,-6.0933,-6.1655,-6.1066,-6.1006,-6.1449,-6.1114,-6.0664,-6.0811,-6.1337,-6.1851,-6.2365,-6.2695,-6.3051,-6.3664,-6.4463,-6.5365,-6.6296,-6.7148,-6.7871,-6.8371,-6.8679,-6.8898,-6.8975,-6.9206,-6.9321,-6.9283,-6.9052,-6.8898,-6.8744,-6.7013,-6.6269,-6.6654,-6.6577,-6.65,-6.6744,-6.659,-6.6474,-6.6859,-6.7244,-6.759,-6.7667,-6.8359,-6.9244,-7.0244,-7.1706,-7.3014,-7.3976,-7.5284,-7.5938,-7.5976,-7.5976,-7.5976,-7.5976,-7.5976,-7.5976,-7.5976,-7.6322,-7.6592,-7.6861,-7.7275,-7.7744,-7.8418,-7.878,-7.918,-7.9531,-8.0078,-8.0351,-8.0898,-8.1289,-8.1601,-8.2148,-8.2265,-8.2304,-8.2304,-8.2304,-8.2304,-8.2304,-8.2383,-8.2461,-8.2695,-8.2929,-8.3476,-8.4062,-8.4765,-8.539,-8.6914,-8.8125,-8.8984,-8.9844,-9.0586,-9.1094,-9.0976,-9.082,-9.125,-9.1601,-9.164,-9.1719,-6.2805,-6.2805,-6.2768,-6.2695,-6.2658,-6.2572,-6.2462,-6.2462,-6.1898,-6.1435,-6.1176,-6.0619,-6.0231,-6.0199,-6.0015,-6.0015,-6.0199,-6.0089,-6.0052,-6.0078,-5.964,-5.9883,-6.083,-6.084,-6.0277,-5.9789,-6.0687,-6.1447,-6.1777,-6.2475,-6.3468,-6.4559,-6.5282,-6.6313,-6.7354,-6.8143,-6.8537,-6.8844,-6.9421,-6.9756,-6.9783,-7.0398,-7.0783,-7.0744,-7.0129,-6.9744,-6.959,-6.8859,-6.8385,-6.8296,-6.7539,-6.7475,-6.8013,-6.759,-6.7513,-6.8167,-6.8398,-6.8475,-6.8667,-6.9436,-7.0244,-7.1014,-7.2552,-7.386,-7.4591,-7.5399,-7.5976,-7.5976,-7.5976,-7.5976,-7.5976,-7.5976,-7.6053,-7.6284,-7.6823,-7.7438,-7.8323,-7.8729,-7.8965,-7.9181,-7.9531,-7.9844,-8.0039,-8.0703,-8.1015,-8.125,-8.1758,-8.2109,-8.2226,-8.2304,-8.2304,-8.2304,-8.2304,-8.2304,-8.2304,-8.2304,-8.25,-8.3125,-8.3476,-8.4179,-8.5039,-8.582,-8.6719,-8.8203,-8.9414,-9.0351,-9.1094,-9.1719,-9.207,-9.1992,-9.2109,-9.25,-9.25,-9.2344,-9.2304,-6.2805,-6.2732,-6.2144,-6.1924,-6.1851,-6.1336,-6.1066,-6.103,-6.0834,-6.0396,-5.989,-5.9651,-5.9274,-5.8694,-5.8694,-5.8621,-5.8897,-5.8814,-5.8621,-5.8621,-5.8464,-5.8494,-5.886,-5.9024,-5.9164,-5.9311,-5.9926,-6.0456,-6.1594,-6.25,-6.3407,-6.4316,-6.5851,-6.6996,-6.7959,-6.8908,-6.9651,-7.0179,-7.0371,-7.0552,-7.0591,-7.0744,-7.0898,-7.086,-7.0667,-7.0552,-7.0591,-7.036,-6.9602,-6.8487,-6.8191,-6.8141,-6.8436,-6.8205,-6.8244,-6.8552,-6.909,-6.9398,-6.9667,-7.0744,-7.1591,-7.1937,-7.3437,-7.4476,-7.4668,-7.5515,-7.5938,-7.5976,-7.5976,-7.5976,-7.5976,-7.5976,-7.6476,-7.7553,-7.7553,-7.7746,-7.8622,-7.8968,-7.9355,-8.0135,-8.0495,-8.0898,-8.1367,-8.1679,-8.1875,-8.1953,-8.2109,-8.2304,-8.2304,-8.2304,-8.2304,-8.2304,-8.2304,-8.2304,-8.2304,-8.2304,-8.2656,-8.3437,-8.414,-8.4961,-8.6133,-8.7461,-8.8437,-8.9687,-9.0508,-9.1406,-9.1875,-9.2383,-9.2578,-9.2578,-9.2578,-9.2578,-9.2578,-9.25,-9.25,-6.1814,-6.1777,-6.13,-6.108,-6.1043,-6.0616,-6.0371,-6.0347,-5.9981,-5.9685,-5.9265,-5.9218,-5.9099,-5.888,-5.9213,-5.9499,-5.9632,-5.9636,-5.9721,-5.9688,-5.9762,-5.9365,-5.8919,-5.9061,-5.9585,-5.9752,-6.0268,-6.1098,-6.1994,-6.2955,-6.4189,-6.5603,-6.6574,-6.7834,-6.9327,-6.9834,-7.0371,-7.0783,-7.0898,-7.0898,-7.0898,-7.0898,-7.0898,-7.0898,-7.0898,-7.0898,-7.0898,-7.0898,-7.0371,-6.9602,-6.919,-6.9075,-6.9398,-6.9129,-6.9129,-6.9398,-7.0244,-7.0783,-7.1052,-7.2283,-7.3168,-7.3476,-7.4553,-7.513,-7.5322,-7.5745,-7.5976,-7.5976,-7.5976,-7.5976,-7.5976,-7.5976,-7.6823,-7.8015,-7.8092,-7.8361,-7.9584,-8.0087,-8.0445,-8.098,-8.1367,-8.1679,-8.2265,-8.2304,-8.2304,-8.2304,-8.2226,-8.2304,-8.2304,-8.2304,-8.2304,-8.2304,-8.2304,-8.2304,-8.2304,-8.2304,-8.2812,-8.3594,-8.4726,-8.5586,-8.6836,-8.832,-8.914,-9.0039,-9.1289,-9.2187,-9.2422,-9.2578,-9.2578,-9.2578,-9.2578,-9.2578,-9.2578,-9.2578,-9.2578,-6.0419,-6.0419,-6.0309,-6.0272,-6.0272,-6.0199,-6.0126,-6.021,-5.9706,-5.9476,-5.9612,-5.9541,-5.9906,-6.0214,-6.0699,-6.1389,-6.1766,-6.1468,-6.1612,-6.1582,-6.1571,-6.1135,-6.012,-6.0744,-6.0995,-6.0765,-6.1831,-6.2225,-6.2683,-6.3725,-6.5312,-6.6598,-6.7344,-6.8688,-6.9861,-7.0633,-7.0898,-7.086,-7.0898,-7.0898,-7.0898,-7.0898,-7.0898,-7.0898,-7.0898,-7.0898,-7.0898,-7.0898,-7.0783,-7.086,-7.0179,-7.0179,-7.0667,-7.0129,-7.0244,-7.086,-7.1514,-7.2014,-7.2476,-7.363,-7.4591,-7.4668,-7.5361,-7.5976,-7.5899,-7.5976,-7.5976,-7.5976,-7.5976,-7.5976,-7.5976,-7.5976,-7.6707,-7.79,-7.8284,-7.9246,-8.0559,-8.1414,-8.1726,-8.1753,-8.2076,-8.2265,-8.2304,-8.2304,-8.2304,-8.2304,-8.2304,-8.2304,-8.2304,-8.2304,-8.2304,-8.2304,-8.2304,-8.2304,-8.2304,-8.2304,-8.3008,-8.3789,-8.5156,-8.6211,-8.7109,-8.832,-8.9101,-9.0078,-9.1328,-9.2148,-9.25,-9.2578,-9.2578,-9.2578,-9.2578,-9.2578,-9.2578,-9.2578,-9.2578,-6.0419,-6.0346,-5.9722,-5.9465,-5.9355,-5.8804,-5.9191,-6.0093,-5.9918,-6.038,-6.1128,-6.128,-6.1356,-6.1506,-6.177,-6.1805,-6.21,-6.2135,-6.192,-6.1957,-6.2617,-6.2688,-6.2123,-6.2183,-6.1801,-6.1728,-6.1883,-6.241,-6.3088,-6.4067,-6.4935,-6.6107,-6.7654,-6.8738,-6.9284,-7.0363,-7.0898,-7.0898,-7.0898,-7.0898,-7.0898,-7.0898,-7.0898,-7.0898,-7.0898,-7.0898,-7.0898,-7.0898,-7.0898,-7.086,-7.0744,-7.0667,-7.0783,-7.0706,-7.0975,-7.1668,-7.2052,-7.2514,-7.3245,-7.413,-7.4745,-7.4899,-7.5515,-7.5976,-7.5976,-7.5976,-7.5976,-7.5976,-7.5976,-7.5976,-7.5976,-7.5976,-7.6553,-7.7438,-7.813,-7.8861,-7.9969,-8.108,-8.1695,-8.1937,-8.2109,-8.2304,-8.2304,-8.2304,-8.2304,-8.2304,-8.2304,-8.2304,-8.2304,-8.2304,-8.2304,-8.2304,-8.2304,-8.2304,-8.2304,-8.2461,-8.3086,-8.3867,-8.5156,-8.6445,-8.7383,-8.8398,-8.9258,-9.0273,-9.1445,-9.2031,-9.2461,-9.2578,-9.2578,-9.2578,-9.2578,-9.2578,-9.2578,-9.2578,-9.2578,-5.9281,-5.9245,-5.8804,-5.9025,-5.9427,-5.9181,-5.9688,-6.0707,-6.0903,-6.1262,-6.1894,-6.2254,-6.2579,-6.2905,-6.3247,-6.3541,-6.3733,-6.3764,-6.3802,-6.3902,-6.4293,-6.4398,-6.436,-6.3982,-6.3594,-6.3188,-6.3356,-6.3668,-6.4158,-6.4709,-6.5557,-6.6249,-6.7512,-6.8155,-6.8697,-6.9787,-7.0228,-7.0409,-7.0744,-7.0898,-7.0898,-7.0898,-7.0898,-7.0898,-7.0898,-7.0898,-7.0898,-7.0898,-7.0898,-7.0898,-7.0898,-7.0898,-7.0898,-7.0937,-7.136,-7.2052,-7.2668,-7.3168,-7.4014,-7.4784,-7.5322,-7.5284,-7.5784,-7.5899,-7.5976,-7.5976,-7.5976,-7.5976,-7.5976,-7.5976,-7.5976,-7.5976,-7.6438,-7.713,-7.7669,-7.8438,-7.9669,-8.0931,-8.1749,-8.1889,-8.2109,-8.2265,-8.2304,-8.2304,-8.2304,-8.2304,-8.2304,-8.2304,-8.2304,-8.2304,-8.2304,-8.2304,-8.2304,-8.2304,-8.2304,-8.2578,-8.3164,-8.3984,-8.5,-8.6211,-8.7265,-8.8359,-8.9414,-9.0312,-9.1094,-9.1953,-9.2344,-9.2461,-9.2578,-9.2578,-9.2578,-9.2578,-9.2578,-9.2578,-9.2578,-5.817,-5.8326,-5.8415,-5.9171,-6.0174,-6.029,-6.1025,-6.2109,-6.2223,-6.2437,-6.2644,-6.3284,-6.3904,-6.4259,-6.484,-6.5437,-6.5678,-6.5692,-6.5448,-6.5474,-6.55,-6.559,-6.5564,-6.5436,-6.5191,-6.4706,-6.4843,-6.5108,-6.5244,-6.5674,-6.5997,-6.6795,-6.709,-6.7522,-6.8241,-6.9217,-6.9821,-6.991,-7.0552,-7.0898,-7.0898,-7.0898,-7.0898,-7.0898,-7.0898,-7.0898,-7.0898,-7.0898,-7.0898,-7.0898,-7.0898,-7.0898,-7.0937,-7.1091,-7.1475,-7.236,-7.3206,-7.4053,-7.4784,-7.5476,-7.5899,-7.5976,-7.5976,-7.5976,-7.5976,-7.5976,-7.5976,-7.5976,-7.5976,-7.5976,-7.5976,-7.5976,-7.6322,-7.6899,-7.7169,-7.8054,-7.9361,-8.0739,-8.1337,-8.1781,-8.2031,-8.2265,-8.2304,-8.2304,-8.2304,-8.2304,-8.2304,-8.2304,-8.2304,-8.2304,-8.2304,-8.2304,-8.2304,-8.2304,-8.2304,-8.2422,-8.3047,-8.4062,-8.4961,-8.5937,-8.7031,-8.789,-8.8828,-8.9687,-9.0547,-9.1406,-9.2148,-9.2383,-9.25,-9.2539,-9.2578,-9.2578,-9.2578,-9.2578,-9.2578,-5.9,-5.9715,-6.0115,-6.0754,-6.1543,-6.1582,-6.2335,-6.3461,-6.3561,-6.4232,-6.5064,-6.5333,-6.5308,-6.5525,-6.5628,-6.5808,-6.5897,-6.5897,-6.5897,-6.5897,-6.5897,-6.5897,-6.5897,-6.5897,-6.5743,-6.5743,-6.5717,-6.569,-6.5717,-6.5872,-6.6013,-6.6244,-6.6731,-6.7192,-6.7654,-6.8758,-6.9463,-6.9525,-7.0256,-7.0744,-7.0783,-7.086,-7.0898,-7.0898,-7.0898,-7.0898,-7.0898,-7.0898,-7.0898,-7.0898,-7.0898,-7.0898,-7.1052,-7.1514,-7.2283,-7.3091,-7.3822,-7.4591,-7.5515,-7.5822,-7.5976,-7.5976,-7.5976,-7.5976,-7.5976,-7.5976,-7.5976,-7.5976,-7.5976,-7.5976,-7.5976,-7.5976,-7.6015,-7.6361,-7.6861,-7.7592,-7.8669,-7.9807,-8.0872,-8.1398,-8.1875,-8.2304,-8.2304,-8.2304,-8.2304,-8.2304,-8.2304,-8.2304,-8.2304,-8.2304,-8.2304,-8.2304,-8.2304,-8.2304,-8.2304,-8.2422,-8.2812,-8.4023,-8.4961,-8.5742,-8.6679,-8.7304,-8.8125,-8.8945,-8.9961,-9.0976,-9.1601,-9.2109,-9.2422,-9.2539,-9.2578,-9.2578,-9.2578,-9.2578,-9.2578,-5.9996,-6.098,-6.124,-6.1943,-6.2834,-6.2927,-6.3702,-6.484,-6.4934,-6.5257,-6.5743,-6.5897,-6.5897,-6.5897,-6.5897,-6.5897,-6.5897,-6.5897,-6.5897,-6.5897,-6.5897,-6.5897,-6.5897,-6.5897,-6.5897,-6.5897,-6.5897,-6.5897,-6.5897,-6.5897,-6.5897,-6.5974,-6.6346,-6.6461,-6.6692,-6.7641,-6.8347,-6.8614,-6.9563,-7.0294,-7.0371,-7.0629,-7.0898,-7.0898,-7.0898,-7.0898,-7.0898,-7.0898,-7.0898,-7.0898,-7.0898,-7.0898,-7.1129,-7.1706,-7.2591,-7.3399,-7.3937,-7.4707,-7.5707,-7.5976,-7.5976,-7.5976,-7.5976,-7.5976,-7.5976,-7.5976,-7.5976,-7.5976,-7.5976,-7.5976,-7.5976,-7.5976,-7.5976,-7.6053,-7.6438,-7.7015,-7.79,-7.9054,-8.0086,-8.107,-8.1797,-8.2187,-8.2304,-8.2304,-8.2304,-8.2304,-8.2304,-8.2304,-8.2304,-8.2304,-8.2304,-8.2304,-8.2304,-8.2304,-8.2304,-8.2383,-8.2695,-8.3828,-8.4883,-8.5625,-8.6406,-8.7109,-8.75,-8.8047,-8.914,-9.0234,-9.1133,-9.164,-9.207,-9.2461,-9.25,-9.25,-9.2578,-9.2578,-9.2578,-6.1243,-6.2318,-6.2425,-6.315,-6.4199,-6.4324,-6.4886,-6.5769,-6.5859,-6.582,-6.5897,-6.5897,-6.5897,-6.5897,-6.5897,-6.5897,-6.5897,-6.5897,-6.5897,-6.5897,-6.5897,-6.5897,-6.5897,-6.5897,-6.5897,-6.5897,-6.5897,-6.5897,-6.5897,-6.5897,-6.5897,-6.5897,-6.5897,-6.5897,-6.6167,-6.6923,-6.6987,-6.7576,-6.8564,-6.941,-6.9833,-7.0437,-7.0898,-7.0898,-7.0898,-7.0898,-7.0898,-7.0898,-7.0898,-7.0898,-7.0898,-7.0898,-7.1052,-7.1745,-7.2591,-7.3322,-7.363,-7.4591,-7.5515,-7.5976,-7.5976,-7.5976,-7.5976,-7.5976,-7.5976,-7.5976,-7.5976,-7.5976,-7.5976,-7.5976,-7.5976,-7.5976,-7.5976,-7.6015,-7.6053,-7.6399,-7.7438,-7.8575,-7.9671,-8.0649,-8.157,-8.2109,-8.2265,-8.2304,-8.2304,-8.2304,-8.2304,-8.2304,-8.2304,-8.2304,-8.2304,-8.2304,-8.2304,-8.2304,-8.2304,-8.2304,-8.2773,-8.3594,-8.457,-8.539,-8.6172,-8.6953,-8.7304,-8.7695,-8.8008,-8.9023,-9.0117,-9.1054,-9.1406,-9.1719,-9.2148,-9.2422,-9.25,-9.2578,-9.2578,-6.2833,-6.3726,-6.4085,-6.4859,-6.5551,-6.5575,-6.5705,-6.5859,-6.5897,-6.5897,-6.5897,-6.5897,-6.5897,-6.5897,-6.5897,-6.5897,-6.5897,-6.5897,-6.5897,-6.5897,-6.5897,-6.5897,-6.5897,-6.5897,-6.5897,-6.5897,-6.5897,-6.5897,-6.5897,-6.5897,-6.5897,-6.5897,-6.5897,-6.5897,-6.5974,-6.6538,-6.7077,-6.7269,-6.8065,-6.8886,-6.9667,-7.0437,-7.0744,-7.0898,-7.0898,-7.0898,-7.0898,-7.0898,-7.0898,-7.0898,-7.0898,-7.0898,-7.1052,-7.1706,-7.2591,-7.3399,-7.4168,-7.4976,-7.5784,-7.5976,-7.5976,-7.5976,-7.5976,-7.5976,-7.5976,-7.5976,-7.5976,-7.5976,-7.5976,-7.5976,-7.5976,-7.5976,-7.5976,-7.5976,-7.6015,-7.6515,-7.7352,-7.8117,-7.9207,-8.0262,-8.1234,-8.1875,-8.2265,-8.2304,-8.2304,-8.2304,-8.2304,-8.2304,-8.2304,-8.2304,-8.2304,-8.2304,-8.2304,-8.2304,-8.2304,-8.2304,-8.2578,-8.3359,-8.4297,-8.5117,-8.5859,-8.6601,-8.7265,-8.7617,-8.7773,-8.7969,-8.8906,-8.9804,-9.0469,-9.1054,-9.1523,-9.2031,-9.25,-9.2539,-9.2578,-6.3806,-6.5033,-6.5269,-6.5551,-6.5859,-6.5897,-6.5897,-6.5897,-6.5897,-6.5897,-6.5897,-6.5897,-6.5897,-6.5897,-6.5897,-6.5897,-6.5897,-6.5897,-6.5897,-6.5897,-6.5897,-6.5897,-6.5897,-6.5897,-6.5897,-6.5897,-6.5897,-6.5897,-6.5897,-6.5897,-6.5897,-6.5897,-6.5897,-6.5897,-6.5897,-6.6269,-6.6384,-6.6654,-6.7269,-6.8347,-6.9398,-7.0052,-7.0437,-7.086,-7.086,-7.0898,-7.0898,-7.0898,-7.0898,-7.0898,-7.0898,-7.0898,-7.1091,-7.1706,-7.2591,-7.3437,-7.4245,-7.5053,-7.5822,-7.5976,-7.5976,-7.5976,-7.5976,-7.5976,-7.5976,-7.5976,-7.5976,-7.5976,-7.5976,-7.5976,-7.5976,-7.5976,-7.5976,-7.5976,-7.5976,-7.6207,-7.6861,-7.7805,-7.8766,-7.9842,-8.082,-8.1484,-8.207,-8.2265,-8.2304,-8.2304,-8.2304,-8.2304,-8.2304,-8.2304,-8.2304,-8.2304,-8.2304,-8.2304,-8.2304,-8.2304,-8.2304,-8.3008,-8.4179,-8.4961,-8.5508,-8.6172,-8.6914,-8.7422,-8.7578,-8.7812,-8.8125,-8.8711,-8.9531,-9.0273,-9.0937,-9.1367,-9.1797,-9.2461,-9.25,-6.3897,-6.5243,-6.5474,-6.5705,-6.5897,-6.5897,-6.5897,-6.5897,-6.5897,-6.5897,-6.5897,-6.5897,-6.5897,-6.5897,-6.5897,-6.5897,-6.5897,-6.5897,-6.5897,-6.5897,-6.5897,-6.5897,-6.5897,-6.5897,-6.5897,-6.5897,-6.5897,-6.5897,-6.5897,-6.5897,-6.5897,-6.5897,-6.5897,-6.5897,-6.5897,-6.5936,-6.6013,-6.609,-6.6808,-6.777,-6.8783,-6.9475,-7.0014,-7.0437,-7.0744,-7.0898,-7.0898,-7.0898,-7.0898,-7.0898,-7.0898,-7.0975,-7.136,-7.2168,-7.3053,-7.386,-7.4707,-7.5322,-7.5822,-7.5976,-7.5976,-7.5976,-7.5976,-7.5976,-7.5976,-7.5976,-7.5976,-7.5976,-7.5976,-7.5976,-7.5976,-7.5976,-7.5976,-7.5976,-7.5976,-7.6015,-7.6265,-7.7278,-7.8193,-7.908,-8.0117,-8.1133,-8.1679,-8.2109,-8.2265,-8.2304,-8.2304,-8.2304,-8.2304,-8.2304,-8.2304,-8.2304,-8.2304,-8.2304,-8.2304,-8.2304,-8.2304,-8.2656,-8.3828,-8.4492,-8.4844,-8.5781,-8.6719,-8.707,-8.7265,-8.7578,-8.7812,-8.8203,-8.8633,-8.9336,-9.0,-9.0469,-9.1015,-9.1758,-9.2344,-6.2666,-6.3551,-6.4359,-6.5128,-6.582,-6.5897,-6.5859,-6.5897,-6.5897,-6.5897,-6.5897,-6.5897,-6.5897,-6.5897,-6.5897,-6.5897,-6.5897,-6.5897,-6.5936,-6.5936,-6.5897,-6.6013,-6.609,-6.6167,-6.6051,-6.609,-6.6128,-6.6051,-6.5897,-6.5936,-6.5897,-6.5897,-6.5897,-6.5897,-6.5897,-6.5897,-6.5897,-6.6013,-6.6577,-6.7,-6.7859,-6.8706,-6.9667,-6.9975,-7.0475,-7.0898,-7.0898,-7.0898,-7.0898,-7.0898,-7.0898,-7.1129,-7.1668,-7.2514,-7.3322,-7.4168,-7.5014,-7.5553,-7.5899,-7.5976,-7.5976,-7.5976,-7.5976,-7.5976,-7.5976,-7.5976,-7.5976,-7.5976,-7.5976,-7.5976,-7.5976,-7.5976,-7.5976,-7.5976,-7.6015,-7.6053,-7.6284,-7.6881,-7.7738,-7.8429,-7.9297,-8.0234,-8.0937,-8.1289,-8.207,-8.2148,-8.2304,-8.2304,-8.2304,-8.2304,-8.2304,-8.2304,-8.2304,-8.2304,-8.2304,-8.2304,-8.2304,-8.2578,-8.3398,-8.3711,-8.3906,-8.5,-8.625,-8.6484,-8.664,-8.707,-8.75,-8.7812,-8.8125,-8.8554,-8.9062,-8.9726,-9.0312,-9.0976,-9.164,-6.1781,-6.2627,-6.3435,-6.4282,-6.5089,-6.5103,-6.5397,-6.5859,-6.5897,-6.5897,-6.5897,-6.5897,-6.5897,-6.5897,-6.5897,-6.5897,-6.5897,-6.5897,-6.6167,-6.6307,-6.6269,-6.6577,-6.6808,-6.6974,-6.691,-6.7167,-6.6936,-6.6628,-6.6628,-6.632,-6.5936,-6.5897,-6.5974,-6.5897,-6.5897,-6.5897,-6.5897,-6.5936,-6.623,-6.6577,-6.7321,-6.8167,-6.9129,-6.9744,-7.0475,-7.086,-7.0898,-7.0898,-7.0898,-7.0898,-7.0898,-7.1168,-7.1552,-7.236,-7.3168,-7.4014,-7.4861,-7.5476,-7.5938,-7.5976,-7.5976,-7.5976,-7.5976,-7.5976,-7.5976,-7.5976,-7.5976,-7.5976,-7.5976,-7.5976,-7.5976,-7.5976,-7.5976,-7.5976,-7.6015,-7.6053,-7.6284,-7.6736,-7.7225,-7.789,-7.8476,-7.9219,-7.9844,-8.0429,-8.1289,-8.2031,-8.2187,-8.2304,-8.2304,-8.2304,-8.2304,-8.2304,-8.2304,-8.2304,-8.2304,-8.2304,-8.2304,-8.2617,-8.2969,-8.3164,-8.3437,-8.4414,-8.5429,-8.5703,-8.6094,-8.6562,-8.6953,-8.7265,-8.7617,-8.8047,-8.8554,-8.914,-8.9687,-9.0234,-9.0742,-6.1166,-6.1743,-6.232,-6.3358,-6.4551,-6.4872,-6.5333,-6.582,-6.5897,-6.5897,-6.5897,-6.5897,-6.5897,-6.5897,-6.5897,-6.6128,-6.6244,-6.6397,-6.6846,-6.7039,-6.7192,-6.7423,-6.7808,-6.7936,-6.773,-6.8179,-6.7898,-6.7475,-6.7475,-6.6898,-6.6628,-6.6436,-6.6244,-6.6167,-6.5897,-6.5897,-6.5897,-6.5897,-6.5936,-6.6128,-6.6821,-6.7552,-6.8167,-6.8975,-6.9821,-7.0398,-7.0552,-7.0667,-7.0898,-7.0898,-7.0937,-7.1052,-7.1398,-7.1937,-7.2745,-7.363,-7.4399,-7.5091,-7.5745,-7.5976,-7.5976,-7.5976,-7.5976,-7.5976,-7.5976,-7.5976,-7.5976,-7.5976,-7.5976,-7.5976,-7.5976,-7.5976,-7.5976,-7.5976,-7.5976,-7.6015,-7.6053,-7.6361,-7.6813,-7.7305,-7.793,-7.8555,-7.914,-7.9765,-8.0586,-8.1484,-8.2109,-8.2226,-8.2304,-8.2304,-8.2304,-8.2304,-8.2304,-8.2304,-8.2304,-8.2304,-8.2304,-8.2383,-8.2695,-8.2851,-8.3281,-8.4101,-8.4531,-8.4726,-8.5195,-8.5937,-8.6523,-8.6992,-8.7265,-8.7539,-8.8047,-8.8554,-8.9062,-8.9531,-8.9844,-6.0819,-6.0819,-6.0935,-6.2358,-6.4512,-6.5474,-6.582,-6.5859,-6.5897,-6.5936,-6.6013,-6.6013,-6.609,-6.609,-6.632,-6.6628,-6.7013,-6.7128,-6.7539,-6.8103,-6.8039,-6.827,-6.8501,-6.8525,-6.8575,-6.8421,-6.8371,-6.8398,-6.8398,-6.8013,-6.7628,-6.7167,-6.6923,-6.6538,-6.5936,-6.5897,-6.5897,-6.5897,-6.5897,-6.5974,-6.6244,-6.6898,-6.7398,-6.809,-6.9167,-6.9937,-7.0294,-7.0667,-7.086,-7.0898,-7.0898,-7.1168,-7.1734,-7.186,-7.2783,-7.4245,-7.4476,-7.5053,-7.5861,-7.5976,-7.5976,-7.5976,-7.5976,-7.5976,-7.5976,-7.5976,-7.5976,-7.5976,-7.5976,-7.5976,-7.5976,-7.5976,-7.5976,-7.5976,-7.5976,-7.6015,-7.6015,-7.6053,-7.6506,-7.6822,-7.7428,-7.8086,-7.8594,-7.918,-7.9961,-8.082,-8.1758,-8.2148,-8.2226,-8.2304,-8.2304,-8.2304,-8.2304,-8.2304,-8.2304,-8.2304,-8.2304,-8.2344,-8.2422,-8.2578,-8.2773,-8.3242,-8.3594,-8.375,-8.4414,-8.5195,-8.6054,-8.6836,-8.6953,-8.7109,-8.7422,-8.789,-8.8437,-8.8789,-8.9023,-6.0781,-6.0858,-6.1396,-6.2474,-6.3705,-6.4051,-6.4782,-6.5782,-6.5936,-6.6167,-6.6602,-6.6718,-6.7064,-6.7398,-6.7475,-6.7628,-6.7898,-6.7975,-6.8424,-6.9117,-6.8783,-6.9283,-6.9513,-6.9487,-6.9498,-6.9756,-6.9667,-6.9244,-6.9244,-6.8898,-6.8436,-6.7936,-6.7423,-6.6654,-6.609,-6.5897,-6.5897,-6.5897,-6.5897,-6.5897,-6.6013,-6.6667,-6.7321,-6.7859,-6.9013,-6.9821,-7.0321,-7.0706,-7.086,-7.0898,-7.0898,-7.1091,-7.136,-7.1437,-7.2206,-7.3514,-7.3976,-7.4591,-7.5515,-7.5976,-7.5976,-7.5976,-7.5976,-7.5976,-7.5976,-7.5976,-7.5976,-7.5976,-7.5976,-7.5976,-7.5976,-7.5976,-7.5976,-7.5976,-7.5976,-7.5976,-7.6015,-7.6015,-7.6236,-7.6469,-7.6922,-7.7334,-7.7812,-7.8398,-7.914,-7.9765,-8.0625,-8.1679,-8.2031,-8.2187,-8.2304,-8.2304,-8.2304,-8.2304,-8.2304,-8.2304,-8.2304,-8.2304,-8.2304,-8.2383,-8.2539,-8.2734,-8.2773,-8.3008,-8.375,-8.4531,-8.539,-8.6133,-8.6445,-8.6679,-8.7109,-8.7461,-8.789,-8.8008,-8.7969,-6.0781,-6.0896,-6.1743,-6.2551,-6.3281,-6.3603,-6.4628,-6.5743,-6.5897,-6.6333,-6.6961,-6.7114,-6.7537,-6.8141,-6.8398,-6.8706,-6.8821,-6.8859,-6.9283,-6.9963,-6.959,-7.0014,-7.0398,-7.0409,-7.0371,-7.0667,-7.0475,-7.0129,-7.009,-6.959,-6.9206,-6.8744,-6.8001,-6.7487,-6.6808,-6.6461,-6.5897,-6.5897,-6.5897,-6.5897,-6.6013,-6.6436,-6.7051,-6.7821,-6.8744,-6.9552,-7.0283,-7.0706,-7.0898,-7.0898,-7.0898,-7.0898,-7.0898,-7.1091,-7.1668,-7.2629,-7.3822,-7.4553,-7.563,-7.5976,-7.5976,-7.5976,-7.5976,-7.5976,-7.5976,-7.5976,-7.5976,-7.5976,-7.5976,-7.5976,-7.5976,-7.5976,-7.5976,-7.5976,-7.5976,-7.5976,-7.5976,-7.6015,-7.6082,-7.6276,-7.6514,-7.6833,-7.7148,-7.7617,-7.8242,-7.8867,-7.9453,-8.0547,-8.1601,-8.1758,-8.1992,-8.2148,-8.2226,-8.2265,-8.2265,-8.2304,-8.2304,-8.2304,-8.2304,-8.2304,-8.2344,-8.25,-8.2383,-8.25,-8.3594,-8.4492,-8.4922,-8.5429,-8.5898,-8.6484,-8.7031,-8.7304,-8.7461,-8.75,-8.75,-6.0781,-6.0935,-6.1743,-6.2551,-6.3358,-6.4218,-6.5141,-6.5859,-6.5897,-6.6372,-6.7153,-6.728,-6.7856,-6.8487,-6.859,-6.9052,-6.9629,-6.9706,-7.0129,-7.0591,-7.0475,-7.0821,-7.0821,-7.0821,-7.0783,-7.0821,-7.0783,-7.0629,-7.0821,-7.0514,-7.0167,-6.9602,-6.877,-6.827,-6.7693,-6.6859,-6.6244,-6.6167,-6.5936,-6.5936,-6.5974,-6.6013,-6.6705,-6.7513,-6.8321,-6.9167,-6.9937,-7.0552,-7.0821,-7.0898,-7.0898,-7.0898,-7.0898,-7.0898,-7.1475,-7.2437,-7.386,-7.4938,-7.5784,-7.5976,-7.5976,-7.5976,-7.5976,-7.5976,-7.5976,-7.5976,-7.5976,-7.5976,-7.5976,-7.5976,-7.5976,-7.5976,-7.5976,-7.5976,-7.5976,-7.5976,-7.5976,-7.6015,-7.6092,-7.6283,-7.6469,-7.6758,-7.7031,-7.7422,-7.7734,-7.8008,-7.8633,-7.9297,-8.0234,-8.0859,-8.1211,-8.1914,-8.2031,-8.2187,-8.2226,-8.2265,-8.2304,-8.2304,-8.2304,-8.2304,-8.2304,-8.2304,-8.2304,-8.2695,-8.3789,-8.4414,-8.4258,-8.4765,-8.5625,-8.6133,-8.6406,-8.7187,-8.7344,-8.7461,-8.75,-6.0781,-6.0896,-6.1743,-6.2551,-6.3474,-6.4897,-6.5667,-6.5897,-6.5897,-6.6667,-6.8025,-6.801,-6.8767,-7.009,-7.0167,-7.0321,-7.0437,-7.0552,-7.0629,-7.0821,-7.0898,-7.0898,-7.0898,-7.0898,-7.0898,-7.0898,-7.0898,-7.0898,-7.0898,-7.0898,-7.0486,-6.9679,-6.9475,-6.9052,-6.8333,-6.7345,-6.6987,-6.659,-6.6269,-6.5936,-6.5897,-6.5897,-6.6705,-6.7667,-6.8167,-6.909,-7.0244,-7.0667,-7.0898,-7.0898,-7.0898,-7.0898,-7.0898,-7.0975,-7.1437,-7.3053,-7.4168,-7.5053,-7.5784,-7.5976,-7.5938,-7.5899,-7.5976,-7.5976,-7.5976,-7.5976,-7.5976,-7.5976,-7.5976,-7.5976,-7.5976,-7.5976,-7.5976,-7.5976,-7.5976,-7.5976,-7.5976,-7.6015,-7.6092,-7.6265,-7.648,-7.6719,-7.6992,-7.7187,-7.7461,-7.7539,-7.7812,-7.8398,-7.8984,-7.9687,-8.0429,-8.1133,-8.1445,-8.1523,-8.2031,-8.2187,-8.2265,-8.2304,-8.2304,-8.2304,-8.2304,-8.2304,-8.2304,-8.2656,-8.3359,-8.3359,-8.3086,-8.3867,-8.4883,-8.5078,-8.539,-8.6406,-8.7265,-8.7383,-8.75,-6.1012,-6.1396,-6.2243,-6.3243,-6.4397,-6.5436,-6.5897,-6.5936,-6.623,-6.7167,-6.8359,-6.8729,-6.9679,-7.0667,-7.0783,-7.0821,-7.0821,-7.0821,-7.086,-7.086,-7.0898,-7.0898,-7.0898,-7.0898,-7.0898,-7.0898,-7.0898,-7.0898,-7.0898,-7.086,-7.0552,-7.0294,-7.0179,-6.9871,-6.9344,-6.869,-6.8025,-6.7346,-6.6654,-6.6051,-6.5897,-6.5974,-6.6974,-6.8052,-6.8398,-6.9398,-7.0629,-7.086,-7.0898,-7.0898,-7.0898,-7.0898,-7.0898,-7.0937,-7.136,-7.2745,-7.3245,-7.3976,-7.4668,-7.5284,-7.5399,-7.5592,-7.5784,-7.5976,-7.5976,-7.5976,-7.5976,-7.5976,-7.5976,-7.5976,-7.5976,-7.5976,-7.5976,-7.5976,-7.5976,-7.5976,-7.5976,-7.5976,-7.6121,-7.6293,-7.6482,-7.6752,-7.6953,-7.7109,-7.7226,-7.7305,-7.7383,-7.7617,-7.8164,-7.8789,-7.9531,-8.0312,-8.0547,-8.0703,-8.1328,-8.1875,-8.1953,-8.2031,-8.2304,-8.2304,-8.2304,-8.2383,-8.2461,-8.25,-8.2617,-8.2695,-8.2851,-8.3242,-8.4023,-8.4258,-8.4883,-8.6172,-8.707,-8.7422,-8.75,-6.1396,-6.2243,-6.3089,-6.432,-6.5743,-6.5859,-6.5897,-6.6013,-6.6808,-6.7654,-6.8475,-6.9179,-6.9948,-7.0744,-7.0898,-7.0898,-7.0898,-7.0898,-7.0898,-7.0898,-7.0898,-7.0898,-7.0898,-7.0898,-7.0898,-7.0898,-7.0898,-7.0898,-7.0898,-7.0898,-7.086,-7.0898,-7.0821,-7.0629,-7.0371,-6.9679,-6.8948,-6.8347,-6.7116,-6.6128,-6.5974,-6.6167,-6.6705,-6.809,-6.8706,-6.9283,-7.0475,-7.0898,-7.0898,-7.0898,-7.0898,-7.0898,-7.0898,-7.0937,-7.1475,-7.1975,-7.2476,-7.3091,-7.386,-7.4553,-7.4668,-7.4976,-7.5438,-7.5707,-7.5784,-7.5938,-7.5976,-7.5976,-7.5976,-7.5976,-7.5976,-7.5976,-7.5976,-7.5976,-7.5976,-7.5976,-7.5976,-7.6015,-7.6082,-7.6244,-7.6459,-7.6699,-7.6875,-7.7031,-7.7226,-7.7226,-7.7226,-7.7265,-7.75,-7.8047,-7.8711,-7.9492,-7.9648,-7.9922,-8.0508,-8.1015,-8.1406,-8.1679,-8.1953,-8.2304,-8.2265,-8.2422,-8.2617,-8.2539,-8.25,-8.2773,-8.3008,-8.3203,-8.3437,-8.3945,-8.4765,-8.6054,-8.6797,-8.7187,-8.75,-6.2281,-6.3089,-6.3935,-6.4936,-6.5859,-6.5897,-6.5897,-6.6051,-6.7487,-6.8155,-6.8421,-6.8767,-6.9575,-7.0783,-7.0898,-7.0898,-7.0898,-7.0898,-7.0898,-7.0898,-7.0898,-7.0898,-7.0898,-7.0898,-7.0898,-7.0898,-7.0898,-7.0898,-7.0898,-7.0898,-7.0898,-7.0898,-7.0898,-7.0898,-7.086,-7.0102,-6.9563,-6.8975,-6.777,-6.65,-6.5974,-6.659,-6.7359,-6.8321,-6.8975,-6.9744,-7.0629,-7.0898,-7.0898,-7.0898,-7.0898,-7.0898,-7.0898,-7.0898,-7.1321,-7.1975,-7.2129,-7.2514,-7.3168,-7.386,-7.4091,-7.4361,-7.4784,-7.5168,-7.5447,-7.5784,-7.5976,-7.5976,-7.5976,-7.5976,-7.5976,-7.5976,-7.5976,-7.5976,-7.5976,-7.5976,-7.5976,-7.6015,-7.6053,-7.6237,-7.6444,-7.6643,-7.6799,-7.6992,-7.7148,-7.7226,-7.7226,-7.7226,-7.7226,-7.7578,-7.7969,-7.8594,-7.8711,-7.9062,-7.9687,-8.0156,-8.0508,-8.0898,-8.1211,-8.164,-8.2109,-8.1992,-8.1875,-8.2265,-8.2422,-8.2539,-8.2578,-8.2578,-8.289,-8.3554,-8.4453,-8.5625,-8.6289,-8.6719,-8.7148,-6.2781,-6.3935,-6.482,-6.5436,-6.582,-6.5897,-6.5897,-6.6128,-6.7295,-6.8052,-6.8537,-6.919,-7.0063,-7.086,-7.0898,-7.0898,-7.0898,-7.0898,-7.0898,-7.0898,-7.0898,-7.0898,-7.0898,-7.0898,-7.0898,-7.0898,-7.0898,-7.0898,-7.0898,-7.0898,-7.0898,-7.0898,-7.0898,-7.0898,-7.0821,-7.0371,-6.9794,-6.9064,-6.8052,-6.7154,-6.6244,-6.6744,-6.7513,-6.8398,-6.9244,-7.009,-7.0591,-7.0898,-7.0898,-7.0898,-7.0898,-7.0898,-7.0898,-7.0898,-7.1129,-7.1437,-7.1629,-7.186,-7.2476,-7.3053,-7.3437,-7.3553,-7.4053,-7.4361,-7.4947,-7.5255,-7.5668,-7.5707,-7.5938,-7.5976,-7.5976,-7.5976,-7.5976,-7.5976,-7.5976,-7.5976,-7.5976,-7.6015,-7.6092,-7.6255,-7.6451,-7.6687,-7.6827,-7.7031,-7.7187,-7.7226,-7.7226,-7.7226,-7.7226,-7.7226,-7.7539,-7.7812,-7.8008,-7.8359,-7.8984,-7.9336,-7.957,-7.9961,-8.0429,-8.0625,-8.0898,-8.0976,-8.1133,-8.1484,-8.1797,-8.2031,-8.2031,-8.2187,-8.2695,-8.3398,-8.4219,-8.5156,-8.5664,-8.6172,-8.6679,-6.3397,-6.482,-6.5551,-6.5897,-6.5897,-6.5897,-6.5897,-6.6051,-6.6769,-6.7628,-6.8537,-6.9948,-7.0706,-7.0898,-7.0898,-7.0898,-7.0898,-7.0898,-7.0898,-7.0898,-7.0898,-7.0898,-7.0898,-7.0898,-7.0898,-7.0898,-7.0898,-7.0898,-7.0898,-7.0898,-7.0898,-7.0898,-7.0898,-7.0898,-7.0898,-7.0744,-7.0244,-6.9206,-6.8244,-6.7552,-6.709,-6.6859,-6.7667,-6.8513,-6.936,-7.0167,-7.0667,-7.0898,-7.0898,-7.0898,-7.0898,-7.0898,-7.0898,-7.0898,-7.0898,-7.1091,-7.1129,-7.1129,-7.1321,-7.2014,-7.2129,-7.236,-7.3014,-7.3668,-7.4255,-7.4639,-7.5014,-7.5322,-7.5592,-7.5938,-7.5938,-7.5976,-7.5976,-7.5976,-7.5976,-7.5976,-7.5976,-7.6015,-7.613,-7.6245,-7.648,-7.6671,-7.6858,-7.7073,-7.7187,-7.7187,-7.7226,-7.7226,-7.7226,-7.7226,-7.7383,-7.7461,-7.7539,-7.793,-7.832,-7.8515,-7.8711,-7.918,-7.957,-7.9609,-7.9765,-8.0156,-8.0508,-8.0703,-8.1015,-8.1367,-8.1797,-8.207,-8.2656,-8.3047,-8.3828,-8.4531,-8.5,-8.5547,-8.6094,-6.4705,-6.5667,-6.5859,-6.5897,-6.5897,-6.5897,-6.5897,-6.6013,-6.6731,-6.759,-6.8498,-6.9382,-7.0217,-7.0898,-7.0898,-7.0898,-7.0898,-7.0898,-7.0898,-7.0898,-7.0898,-7.0898,-7.0898,-7.0898,-7.0898,-7.0898,-7.0898,-7.0898,-7.0898,-7.0898,-7.0898,-7.0898,-7.0898,-7.0898,-7.0898,-7.0706,-7.036,-6.9321,-6.8693,-6.8116,-6.8052,-6.7936,-6.8129,-6.8936,-6.9898,-7.0475,-7.086,-7.0898,-7.0898,-7.0898,-7.0898,-7.0898,-7.0898,-7.0898,-7.0898,-7.0898,-7.0898,-7.0898,-7.1168,-7.1629,-7.1783,-7.1514,-7.2206,-7.2937,-7.336,-7.3553,-7.3899,-7.4312,-7.4745,-7.5592,-7.5784,-7.5822,-7.5861,-7.5938,-7.5976,-7.5976,-7.5976,-7.6015,-7.6092,-7.6265,-7.648,-7.6673,-7.6877,-7.707,-7.7187,-7.7226,-7.7226,-7.7226,-7.7226,-7.7226,-7.7226,-7.7226,-7.7226,-7.7226,-7.7461,-7.7656,-7.789,-7.8398,-7.875,-7.8828,-7.9101,-7.9648,-7.9961,-8.0,-8.0429,-8.0898,-8.1328,-8.1523,-8.1914,-8.2265,-8.3203,-8.3906,-8.4336,-8.4765,-8.5234]}]]